     2              OBSERVATION DATA    G (GPS)             RINEX VERSION / TYPE
ASRINEXO V2.9.7 UX USGS/MENLO_PARK 06-OCT-00 13:21          PGM / RUN BY / DATE
                                                            COMMENT
National Earthquake Hazard Reduction Program                COMMENT
Crustal Strain Project                                      COMMENT
345 Middlefield Road, MS/977                                COMMENT
U.S. Geological Survey, Menlo Park, California 94025        COMMENT
Contact: kwendt@isdmnl.wr.usgs.gov (Ph: 650-329-4866)       COMMENT
HI's are vertical to base of antenna                        COMMENT
BIT 2 OF LLI (+4) FLAGS DATA COLLECTED UNDER "AS" CONDITION COMMENT
q837                                                        MARKER NAME
WRT                                                         OBSERVER / AGENCY
lp019992805 ASHTECH Z-XII3 CD00                             REC # / TYPE / VERS
CR519993703 ASH701945B_M NONE                               ANT # / TYPE
 -2468967.0000 -4179812.0000  4125304.0000                  APPROX POSITION XYZ
        1.3843        0.0000        0.0000                  ANTENNA: DELTA H/E/N
     1     1                                                WAVELENGTH FACT L1/2
     5    C1    L1    L2    P1    P2                        # / TYPES OF OBSERV
    30                                                      INTERVAL
  2000     9    20    15    29   30.000000                  TIME OF FIRST OBS
                                                            END OF HEADER
 00  9 20 15 29 30.0000000  0  8 29 31 03 15 23 09 21 17
  21951338.224     -271875.019 8   -199379.82547  21951338.555    21951343.8114
  23266957.603     -233036.426 8   -169422.37045  23266957.161
  23266962.7174       -121.459
  20522367.442     -177566.665 9   -127421.28347  20522366.731    20522371.6874
  21393667.584      129392.556 9     93546.77247  21393667.112    21393672.3034
  23909918.019      -92541.68545                  23909918.378    23909927.0154
  21183498.433     -108873.148 9    -79322.99647  21183497.730    21183502.5734
  22133478.085      205108.986 8    148432.27546  22133477.282    22133483.0854
 00  9 20 15 30  0.0000000  0  8 29 31 03 15 23 09 21 17
  21913031.967     -473174.662 8   -356236.65947  21913032.373    21913037.8424
  23231228.892     -420790.514 8   -315724.25546  23231228.536    23231234.2794
  21357405.963     -156312.473 9    -95104.47547  21357405.646    21357410.6384
  20490151.533     -346863.743 9   -259341.09147  20490150.644    20490155.6034
  21380172.769       58475.553 9     38286.73047  21380172.085    21380177.3164
  23879430.936     -293465.77518   -217364.52445  23879435.901    23879443.7714
  21155347.966     -256801.404 9   -194591.78247  21155347.937    21155352.7504
  22124687.001      158906.470 8    112430.23646  22124685.359    22124691.1494
 00  9 20 15 30 30.0000000  0  8 29 31 03 15 23 09 21 17
  21896989.184     -557481.592 8   -421930.34947  21896989.349    21896994.7044
  23217781.447     -491457.147 8   -370789.18045  23217781.074    23217786.8534
  21356475.601     -161202.038 9    -98914.54947  21356475.360    21356480.2334
  20480187.438     -399224.520 9   -300141.70247  20480186.712    20480191.7014
  21388908.709      104382.834 9     74058.59747  21388908.047    21388913.2934
  23871231.584     -336564.425 8   -250947.82145  23871235.777    23871242.6114
  21149441.088     -287843.238 9   -218780.23947  21149440.877    21149445.7094
  22138147.923      229645.954 8    167551.82946  22138146.740    22138152.5884
 00  9 20 15 31  0.0000000  0  8 29 31 03 15 23 09 21 17
  21881012.697     -641439.348 8   -487351.92247  21881012.690    21881017.9474
  23204418.533     -561679.701 8   -425508.06745  23204418.185    23204424.0154
  21355657.293     -165502.040 9   -102265.22047  21355657.026    21355661.9374
  20470279.178     -451292.705 9   -340714.30847  20470278.441    20470283.4694
  21397678.419      150467.853 9    109968.96347  21397677.806    21397683.0574
  23863116.901     -379215.501 8   -284182.36045  23863119.027    23863126.2734
  21143579.972     -318644.113 9   -242780.93147  21143579.684    21143584.5244
  22151665.471      300681.657 8    222904.24846  22151664.442    22151670.4004
 00  9 20 15 31 30.0000000  0  8 29 31 03 15 23 09 21 17
  21865102.615     -725047.676 8   -552501.22047  21865102.574    21865107.6224
  23191140.467     -631457.497 8   -479880.40145  23191139.977    23191145.8134
  21354950.935     -169213.654 9   -105157.41347  21354950.675    21354955.6704
  20460426.601     -503068.393 9   -381059.00447  20460425.882    20460430.9474
  21406481.384      196727.812 9    146015.64447  21406480.842    21406486.0914
  23855086.589     -421418.197 7   -317067.53545  23855087.977    23855095.2444
  21137764.246     -349206.220 9   -266595.57547  21137763.920    21137768.7794
  22165238.962      372011.343 8    278485.75346  22165238.015    22165244.1084
 00  9 20 15 32  0.0000000  0  8 29 31 03 15 23 09 21 17
  21849260.122     -808300.825 8   -617373.75247  21849260.052    21849264.9884
  23177948.110     -700784.331 8   -533901.32645  23177947.681    23177953.3204
  21354357.300     -172333.210 9   -107588.25847  21354357.036    21354362.0354
  20450630.669     -554546.417 9   -421171.75147  20450629.963    20450635.0554
  21415318.164      243165.307 9    182200.67147  21415317.634    21415322.8434
  23847142.251     -463166.640 8   -349598.75145  23847143.217    23847150.7234
  21131994.584     -379526.450 9   -290221.73647  21131994.205    21131999.0744
  22178869.036      443638.331 8    334298.90946  22178868.149    22178874.3994
 00  9 20 15 32 30.0000000  0  8 29 31 03 15 23 09 21 17
  21833485.649     -891196.571 8   -681967.82447  21833485.503    21833490.3704
  23164842.041     -769657.871 8   -587569.01445  23164841.543    23164847.1624
  21353876.425     -174860.497 9   -109557.58847  21353876.149    21353881.1614
  20440891.794     -605724.746 9   -461050.97247  20440891.116    20440896.2494
  21424188.563      289779.463 9    218523.35647  21424188.063    21424193.2644
  23839285.042     -504458.213 7   -381774.00045  23839285.637    23839293.2514
  21126270.941     -409604.812 9   -313659.42747  21126270.507    21126275.3904
  22192555.677      515562.452 8    390343.60246  22192554.953    22192561.2314
 00  9 20 15 33  0.0000000  0  8 29 31 03 15 23 09 21 17
  21817779.432     -973733.149 8   -746282.02547  21817779.316    21817784.2554
  23151822.612     -838076.380 8   -640882.15145  23151822.117    23151827.4984
  21353508.207     -176795.715 9   -111065.57347  21353507.964    21353512.9374
  20431210.171     -656602.125 9   -500695.68147  20431209.478    20431214.6394
  21433092.357      336568.705 9    254982.47047  21433091.859    21433097.0084
  23831514.882     -545291.054 8   -413591.74745  23831515.205    23831522.9024
  21120593.157     -439441.670 9   -336908.93347  21120592.768    21120597.6804
  22206298.887      587782.977 8    446619.25546  22206298.119    22206304.5324
 00  9 20 15 33 30.0000000  0  8 29 31 03 15 23 09 21 17
  21802141.887    -1055908.992 8   -810315.12947  21802141.811    21802146.7824
  23138890.138     -906038.150 8   -693839.36045  23138889.530    23138894.7524
  21353252.633     -178139.001 9   -112112.31047  21353252.391    21353257.3074
  20421586.101     -707177.144 9   -540104.79247  20421585.420    20421590.5264
  21442029.267      383531.719 9    291576.98347  21442028.732    21442033.8644
  23823832.528     -585663.039 7   -445050.36145  23823832.534    23823840.1714
  21114961.124     -469038.069 9   -359971.08347  21114960.737    21114965.7124
  22220098.382      660299.155 8    503125.27646  22220097.637    22220104.0844
 00  9 20 15 34  0.0000000  0  8 29 31 03 15 23 09 21 17
  21786573.484    -1137721.410 8   -874065.04747  21786573.419    21786578.3784
  23126044.854     -973540.239 8   -746438.37745  23126044.363    23126049.5934
  21353109.803     -178889.862 9   -112697.41347  21353109.550    21353114.4594
  20412020.086     -757447.454 9   -579276.46347  20412019.363    20412024.3964
  21450999.124      430668.355 9    328306.79747  21450998.593    21451003.7244
  23816238.428     -625571.024 7   -476147.43345  23816238.302    23816245.9854
  21109375.055     -498393.343 9   -382845.33747  21109374.654    21109379.6564
  22233954.058      733111.201 8    559861.86246  22233953.394    22233959.8214
 00  9 20 15 34 30.0000000  0  8 29 31 03 15 23 09 21 17
  21771074.818    -1219167.775 8   -937529.72647  21771074.788    21771079.6584
  23113287.638    -1040579.858 8   -798677.03745  23113287.114    23113292.3034
  21353079.737     -179047.905 9   -112820.59847  21353079.501    21353084.3884
  20402512.326     -807410.924 9   -618209.04247  20402511.635    20402516.6564
  21460001.864      477977.931 9    365171.35647  21460001.350    21460006.5144
  23808732.950     -665012.319 8   -506880.89445  23808732.827    23808740.5644
  21103834.951     -527507.047 9   -405531.35147  21103834.539    21103839.5244
  22247866.089      806219.139 8    616829.00246  22247865.403    22247871.8194
 00  9 20 15 35  0.0000000  0  8 29 31 03 15 23 09 21 17
  21755646.029    -1300246.671 8  -1000708.06547  21755645.950    21755650.7474
  23100618.620    -1107155.350 8   -850554.03845  23100618.234    23100623.5044
  21353162.338     -178613.743 9   -112482.31747  21353162.113    21353167.0004
  20393063.184     -857066.384 9   -656901.61347  20393062.536    20393067.5664
  21469037.306      525458.945 9    402169.51247  21469036.775    21469041.9344
  23801316.718     -703985.132 8   -537249.33645  23801316.450    23801324.3074
  21098340.634     -556380.078 9   -428029.83047  21098340.203    21098345.1704
  22261834.200      879622.108 8    674026.03946  22261833.613    22261839.9484
 00  9 20 15 35 30.0000000  0  8 29 31 03 15 23 09 21 17
  21740287.554    -1380955.550 8  -1063598.07747  21740287.522    21740292.3094
  23088038.732    -1173263.806 8   -902067.11346  23088038.204    23088043.5864
  21353357.843     -177586.736 9   -111682.07747  21353357.618    21353362.4574
  20383673.129     -906411.657 9   -695352.47447  20383672.477    20383677.5254
  21478105.335      573110.875 9    439300.85647  21478104.757    21478109.8064
  23793990.186     -742486.634 8   -567250.50245  23793990.083    23793997.7914
  21092892.114     -585012.520 9   -450340.83047  21092891.675    21092896.6454
  22275858.509      953320.075 8    731452.94546  22275857.964    22275864.2974
 00  9 20 15 36  0.0000000  0  8 29 31 03 15 23 09 21 17
  21724999.652    -1461294.021 8  -1126199.46147  21724999.586    21725004.4614
  23075547.752    -1238904.799 8   -953215.93746  23075547.221    23075552.5454
  21353665.816     -175968.565 9   -110421.19747  21353665.575    21353670.4144
  20374342.165     -955446.561 9   -733561.49747  20374341.517    20374346.5294
  21487205.253      620930.788 9    476563.08847  21487204.688    21487209.6914
  23786753.604     -780516.053 8   -596883.77545  23786753.373    23786761.0544
  21087489.009     -613405.957 9   -472465.60047  21087488.605    21087493.5964
  22289938.685     1027310.729 8    789107.93146  22289938.087    22289944.3824
 00  9 20 15 36 30.0000000  0  8 29 31 03 15 23 09 21 17
  21709782.753    -1541259.359 8  -1188510.08547  21709782.700    21709787.6264
  23063146.314    -1304075.330 8  -1003998.18246  23063145.796    23063151.0984
  21354086.345     -173758.678 9   -108699.23447  21354086.104    21354090.9524
  20365070.629    -1004168.718 9   -771526.82047  20365069.995    20365074.9684
  21496337.038      668918.647 9    513956.18347  21496336.516    21496341.5614
  23779607.306     -818070.397 8   -626146.82445  23779607.041    23779614.6084
  21082131.585     -641559.801 9   -494403.66747  21082131.164    21082136.1414
  22304074.515     1101594.858 8    846991.59546  22304073.881    22304080.3994
 00  9 20 15 37  0.0000000  0  8 29 31 03 15 23 09 21 17
  21694637.448    -1620849.033 8  -1250527.98147  21694637.345    21694642.2464
  23050834.881    -1368772.637 8  -1054411.65846  23050834.319    23050839.6434
  21354619.544     -170957.057 9   -106516.18947  21354619.305    21354624.1454
  20355859.051    -1052575.761 9   -809246.60047  20355858.412    20355863.4114
  21505500.644      717073.855 9    551479.68147  21505500.122    21505505.2494
  23772551.899     -855146.897 7   -655037.57845  23772551.765    23772559.1524
  21076819.711     -669474.118 9   -516155.09347  21076819.262    21076824.2594
  22318266.005     1176172.376 8    905103.86346  22318265.467    22318272.1074
 00  9 20 15 37 30.0000000  0  8 29 31 03 15 23 09 21 17
  21679563.662    -1700062.108 8  -1312252.40947  21679563.590    21679568.5044
  23038613.604    -1432995.493 8  -1104455.45445  23038613.110    23038618.4084
  21355265.160     -167564.589 9   -103872.73947  21355264.898    21355269.7684
  20346707.581    -1100667.076 9   -846720.35047  20346706.948    20346711.9524
  21514695.792      765394.549 9    589132.13047  21514695.266    21514700.4704
  23765587.558     -891744.477 7   -683555.15545  23765587.417    23765594.9014
  21071553.142     -697150.089 9   -537720.79247  21071552.698    21071557.6954
  22332513.310     1251041.735 8    963443.54646  22332512.693    22332519.2954
 00  9 20 15 38  0.0000000  0  8 29 31 03 15 23 09 21 17
  21664562.052    -1778895.913 8  -1373681.31947  21664562.006    21664566.8844
  23026483.118    -1496741.458 8  -1154127.62845  23026482.608    23026487.8534
  21356023.345     -163580.434 9   -100768.23647  21356023.093    21356027.9854
  20337616.710    -1148440.246 9   -883946.20847  20337616.061    20337621.0654
  21523922.357      813880.435 9    626913.29947  21523921.869    21523927.0924
  23758714.959     -927860.015 8   -711697.13045  23758714.844    23758722.4444
  21066331.953     -724587.637 9   -559100.70747  21066331.542    21066336.5524
  22346816.116     1326203.202 8   1022010.82846  22346815.521    22346822.1774
 00  9 20 15 38 30.0000000  0  8 29 31 03 15 23 09 21 17
  21649632.972    -1857348.769 8  -1434813.39747  21649632.931    21649637.7844
  23014443.823    -1560008.327 8  -1203426.47546  23014443.362    23014448.5974
  21356894.072     -159005.191 9    -97203.14047  21356893.800    21356898.7084
  20328586.662    -1195893.854 9   -920923.04947  20328586.003    20328591.0144
  21533180.165      862530.172 9    664822.14547  21533179.680    21533184.8624
  23751934.633     -963491.686 8   -739462.05445  23751934.538    23751941.9004
  21061156.151     -751786.993 9   -580295.02447  21061155.725    21061160.7334
  22361174.477     1401656.120 8   1080805.23646  22361173.901    22361180.4364
 00  9 20 15 39  0.0000000  0  8 29 31 03 15 23 09 21 17
  21634776.645    -1935419.154 8  -1495647.43247  21634776.606    21634781.4774
  23002496.148    -1622794.670 8  -1252350.88746  23002495.584    23002500.8064
  21357877.033     -153839.535 9    -93177.98947  21357876.799    21357881.7404
  20319617.620    -1243026.545 9   -957649.82847  20319616.952    20319622.0034
  21542468.888      911342.212 9    702857.46147  21542468.359    21542473.4934
  23745246.626     -998637.743 8   -766848.56645  23745246.538    23745253.9644
  21056025.506     -778748.789 9   -601304.22847  21056025.097    21056030.0864
  22375588.036     1477399.367 8   1139825.88046  22375587.423    22375593.9994
 00  9 20 15 39 30.0000000  0  8 29 31 03 15 23 09 21 17
  21619993.568    -2013104.269 8  -1556181.25147  21619993.560    21619998.4934
  22990640.241    -1685097.515 8  -1300898.54246  22990639.752    22990644.9454
  21358972.564     -148082.856 9    -88692.29547  21358972.341    21358977.2744
  20310710.148    -1289835.512 9   -994124.35347  20310709.508    20310714.6004
  21551788.430      960316.799 9    741019.43947  21551787.898    21551793.0734
  23738651.611    -1033295.035 8   -793854.22145  23738651.373    23738658.8864
  21050940.215     -805472.398 9   -622127.83047  21050939.798    21050944.7924
  22390056.814     1553433.114 8   1199072.88146  22390056.237    22390062.8404
 00  9 20 15 40  0.0000000  0  8 29 31 03 15 23 09 21 17
  21605284.203    -2090402.353 8  -1616413.49947  21605284.203    21605289.1664
  22978876.757    -1746914.713 8  -1349067.76846  22978876.265    22978881.5054
  21360180.496     -141735.404 9    -83746.26047  21360180.275    21360185.2064
  20301864.620    -1336319.429 9  -1030345.59847  20301863.972    20301869.0104
  21561138.634     1009452.772 9    779307.17447  21561138.155    21561143.3744
  23732149.848    -1067461.498 7   -820477.41045  23732149.655    23732157.1914
  21045900.149     -831958.394 9   -642766.28047  21045899.727    21045904.7214
  22404580.849     1629756.914 8   1258545.88746  22404580.272    22404586.8534
 00  9 20 15 40 30.0000000  0  8 29 31 03 15 23 09 21 17
  21590648.874    -2167311.816 8  -1676342.92647  21590648.825    21590653.8044
  22967206.088    -1808244.508 8  -1396857.20546  22967205.654    22967210.8944
  21361500.727     -134798.136 9    -78340.62147  21361500.461    21361505.3824
  20293081.165    -1382477.028 9  -1066312.55947  20293080.512    20293085.5064
  21570519.456     1058748.816 9    817719.64047  21570518.970    21570524.1584
  23725741.859    -1101135.377 7   -846716.77445  23725741.611    23725749.2664
  21040905.217     -858207.293 9   -663219.97747  21040904.765    21040909.7744
  22419159.878     1706369.978 8   1318244.30446  22419159.319    22419165.8794
 00  9 20 15 41  0.0000000  0  8 29 31 03 15 23 09 21 17
  21576087.537    -2243831.547 9  -1735968.63747  21576087.565    21576092.4984
  22955628.470    -1869085.670 8  -1444265.89846  22955627.959    22955633.1704
  21362933.003     -127271.822 9    -72475.99347  21362932.749    21362937.6304
  20284360.039    -1428307.052 9  -1102024.26347  20284359.360    20284364.3614
  21579930.444     1108203.166 9    856255.46347  21579929.905    21579935.0884
  23719427.904    -1134315.745 8   -872571.56445  23719427.652    23719435.1134
  21035955.165     -884220.092 9   -683489.69947  21035954.702    21035959.7504
  22433793.759     1783271.099 8   1378167.18446  22433793.228    22433799.8134
 00  9 20 15 41 30.0000000  0  8 29 31 03 15 23 09 21 17
  21561601.097    -2319958.364 9  -1795288.16947  21561601.124    21561605.9174
  22944144.388    -1929435.244 8  -1491291.52946  22944143.790    22944148.9964
  21364477.447     -119155.971 9    -66151.98647  21364477.190    21364482.1024
  20275701.634    -1473806.901 9  -1137478.69547  20275700.974    20275705.9884
  21589371.529     1157816.035 9    894914.79547  21589370.999    21589376.2014
  23713208.449    -1166998.788 8   -898038.82945  23713208.198    23713215.8684
  21031050.206     -909995.846 9   -703574.71347  21031049.747    21031054.8174
  22448482.574     1860460.900 8   1438314.99846  22448481.989    22448488.6124
 00  9 20 15 42  0.0000000  0  8 29 31 03 15 23 09 21 17
  21547189.653    -2395691.018 9  -1854300.55947  21547189.631    21547194.4144
  22932754.016    -1989291.093 8  -1537932.47146  22932753.545    22932758.6964
  21366133.921     -110451.165 9    -59369.04547  21366133.673    21366138.6474
  20267106.388    -1518975.252 9  -1172674.81647  20267105.755    20267110.7794
  21598842.443     1207586.201 9    933696.70547  21598841.943    21598847.1864
  23707083.988    -1199182.940 7   -923117.36845  23707083.768    23707091.2864
  21026190.307     -935535.002 9   -723475.36547  21026189.862    21026194.8844
  22463226.187     1937938.420 8   1498687.00746  22463225.662    22463232.2594
 00  9 20 15 42 30.0000000  0  8 29 31 03 15 23 09 21 17
  21532853.640    -2471027.508 9  -1913004.28047  21532853.626    21532858.3824
  22921458.281    -2048651.326 8  -1584187.20746  22921457.755    22921462.8874
  21367902.344     -101158.015 9    -52127.65447  21367902.109    21367907.0994
  20258574.572    -1563810.428 9  -1207611.32047  20258573.941    20258578.9414
  21608343.181     1257512.565 9    972600.33147  21608342.676    21608347.9244
  23701054.653    -1230866.188 7   -947805.59145  23701054.521    23701062.1594
  21021375.347     -960837.952 9   -743191.96147  21021374.915    21021379.9154
  22478024.424     2015703.008 8   1559282.68846  22478023.838    22478030.4894
 00  9 20 15 43  0.0000000  0  8 29 31 03 15 23 09 21 17
  21518593.284    -2545966.430 9  -1971398.18847  21518593.238    21518597.9424
  22910256.982    -2107513.967 8  -1630054.19746  22910256.519    22910261.7514
  21369782.649      -91277.044 9    -44428.22447  21369782.437    21369787.4364
  20250106.526    -1608310.626 9  -1242286.80647  20250105.883    20250110.8994
  21617873.382     1307593.882 9   1011624.69447  21617872.888    21617878.1284
  23695121.245    -1262046.577 7   -972101.97045  23695120.870    23695128.6084
  21016605.132     -985905.619 9   -762725.22047  21016604.707    21016609.6904
  22492877.090     2093753.964 8   1620101.54046  22492876.486    22492883.2324
 00  9 20 15 43 30.0000000  0  8 29 31 03 15 23 09 21 17
  21504408.987    -2620505.330 9  -2029480.41047  21504408.947    21504413.6374
  22899150.858    -2165876.948 8  -1675531.84346  22899150.408    22899155.7314
  21371774.895      -80807.910 9    -36270.48147  21371774.668    21371779.7124
  20241702.528    -1652473.863 9  -1276699.72247  20241701.871    20241706.9454
  21627433.042     1357829.783 9   1050769.51547  21627432.540    21627437.7504
  23689283.772    -1292721.959 7   -996004.79845  23689283.510    23689291.2214
  21011879.805    -1010737.680 9   -782074.88847  21011879.379    21011884.3184
  22507784.096     2172091.227 8   1681143.47146  22507783.555    22507790.4924
 00  9 20 15 44  0.0000000  0  8 29 31 03 15 23 09 21 17
  21490300.929    -2694643.703 9  -2087250.52447  21490300.845    21490305.5984
  22888140.045    -2223739.607 8  -1720619.63146  22888139.561    22888144.9054
  21373878.627      -69752.655 9    -27656.03147  21373878.422    21373883.4784
  20233362.747    -1696299.725 9  -1310849.74847  20233362.095    20233367.1984
  21637021.728     1408218.134 9   1090033.12647  21637021.172    21637026.3764
  23683542.531    -1322891.731 7  -1019513.64245  23683542.315    23683550.0194
  21007199.024    -1035335.728 9   -801242.20847  21007198.559    21007203.4714
  22522745.404     2250712.938 8   1742407.06246  22522744.848    22522751.7534
 00  9 20 15 44 30.0000000  0  8 29 31 03 15 23 09 21 17
  21476269.425    -2768379.375 9  -2144706.87347  21476269.348    21476274.0964
  22877224.938    -2281099.465 8  -1765315.62746  22877224.517    22877229.7484
  21376093.987      -58111.279 9    -18584.86347  21376093.738    21376098.8094
  20225087.669    -1739785.967 9  -1344735.13747  20225086.994    20225092.0204
  21646639.253     1458758.438 9   1129415.14447  21646638.704    21646643.9384
  23677898.076    -1352553.198 7  -1042626.39645  23677897.992    23677905.6744
  21002562.871    -1059699.113 9   -820226.67547  21002562.399    21002567.2934
  22537760.979     2329618.993 8   1803892.18746  22537760.373    22537767.1874
 00  9 20 15 45  0.0000000  0  8 29 31 03 15 23 09 21 17
  21462315.017    -2841710.021 9  -2201847.63347  21462314.949    21462319.7284
  22866405.878    -2337954.438 8  -1809618.19846  22866405.378    22866410.6294
  21378420.813      -45883.919 9     -9057.08547  21378420.537    21378425.6564
  20216877.564    -1782930.607 9  -1378354.34347  20216876.867    20216881.8564
  21656285.544     1509450.001 9   1168915.02947  21656284.996    21656290.2674
  23672350.935    -1381703.931 8  -1065341.19745  23672350.803    23672358.3034
  20997971.346    -1083827.796 9   -839028.25247  20997970.887    20997975.7574
  22552830.502     2408809.155 8   1865598.74046  22552829.921    22552836.5314
 00  9 20 15 45 30.0000000  0  8 29 31 03 15 23 09 21 17
  21448438.188    -2914633.658 9  -2258671.21947  21448438.145    21448442.8194
  22855683.201    -2394302.126 8  -1853525.48546  22855682.750    22855688.0004
  21380858.975      -33070.906 9       927.04847  21380858.759    21380863.8904
  20208732.780    -1825731.600 9  -1411705.76947  20208732.116    20208737.1324
  21665960.554     1560292.303 9   1208532.37247  21665959.988    21665965.2664
  23666901.275    -1410341.982 7  -1087656.48245  23666901.076    23666908.7714
  20993424.456    -1107721.717 9   -857646.90347  20993423.985    20993428.8574
  22567953.869     2488283.273 8   1927526.52546  22567953.341    22567960.0134
 00  9 20 15 46  0.0000000  0  8 29 31 03 15 23 09 21 17
  21434638.894    -2987149.484 9  -2315177.04647  21434638.828    21434643.4314
  22845057.329    -2450141.123 8  -1897036.37646  22845056.876    22845062.1444
  21383408.485      -19673.457 9     11366.58147  21383408.254    21383413.3964
  20200653.638    -1868187.802 9  -1444788.52447  20200652.979    20200658.0294
  21675663.932     1611283.896 9   1248266.03947  21675663.390    21675668.6864
  23661549.263    -1438466.317 7  -1109571.51245  23661549.151    23661556.9104
  20988922.067    -1131381.873 9   -876083.40047  20988921.632    20988926.4984
  22583131.284     2568040.036 8   1989674.57646  22583130.684    22583137.4194
 00  9 20 15 46 30.0000000  0  8 29 31 03 15 23 09 21 17
  21420917.801    -3059254.533 9  -2371362.77147  21420917.697    21420922.2144
  22834528.678    -2505468.822 8  -1940148.85346  22834528.245    22834533.6444
  21386069.193       -5691.511 9     22261.56547  21386068.952    21386074.0474
  20192640.618    -1910296.698 9  -1477600.65047  20192639.916    20192644.9864
  21685395.668     1662424.543 9   1288115.85647  21685395.153    21685400.4844
  23656295.645    -1466074.062 7  -1131083.99345  23656295.477    23656303.2664
  20984464.226    -1154808.140 9   -894337.64547  20984463.758    20984468.6424
  22598362.532     2648079.650 8   2052043.03246  22598361.920    22598368.6054
 00  9 20 15 47  0.0000000  0  8 29 31 03 15 23 09 21 17
  21407274.816    -3130948.402 9  -2427228.08047  21407274.742    21407279.3044
  22824097.559    -2560284.771 8  -1982862.56646  22824097.136    22824102.5784
  21388840.778        8873.251 9     33610.69447  21388840.564    21388845.6404
  20184693.740    -1952057.924 9  -1510141.87147  20184693.048    20184698.0594
  21695155.456     1713712.206 9   1328080.22947  21695154.897    21695160.2844
  23651140.431    -1493164.354 8  -1152193.28845  23651140.356    23651148.0654
  20980050.531    -1178002.244 9   -912410.98547  20980050.064    20980054.9964
  22613647.062     2728400.157 8   2114630.32346  22613646.419    22613653.2284
 00  9 20 15 47 30.0000000  0  8 29 31 03 15 23 09 21 17
  21393710.714    -3202227.887 9  -2482770.50747  21393710.652    21393715.2244
  22813764.480    -2614585.575 8  -2025174.86646  22813764.009    22813769.4534
  21391723.435       24021.784 9     45414.71647  21391723.238    21391728.3254
  20176813.569    -1993468.377 9  -1542409.75847  20176812.893    20176817.8744
  21704943.276     1765147.706 9   1368159.79847  21704942.751    21704948.2194
  23646084.608    -1519734.001 8  -1172896.86345  23646084.426    23646091.9024
  20975681.393    -1200962.198 9   -930301.86347  20975680.928    20975685.9004
  22628985.146     2809002.515 8   2177437.27146  22628984.620    22628991.3484
 00  9 20 15 48  0.0000000  0  8 29 31 03 15 23 09 21 17
  21380225.382    -3273093.620 9  -2537990.55647  21380225.338    21380229.9514
  22803529.424    -2668371.345 8  -2067085.85746  22803528.936    22803534.3364
  21394716.696       39751.018 9     57671.23047  21394716.456    21394721.5164
  20169000.158    -2034528.062 9  -1574404.32047  20168999.492    20169004.4604
  21714758.635     1816727.892 9   1408352.11347  21714758.156    21714763.6504
  23641127.622    -1545783.366 8  -1193195.00845  23641127.368    23641134.9004
  20971356.354    -1223690.515 9   -948012.24847  20971355.902    20971360.8834
  22644376.480     2889884.009 8   2240461.73746  22644375.905    22644382.6444
 00  9 20 15 48 30.0000000  0  8 29 31 03 15 23 09 21 17
  21366819.421    -3343542.229 9  -2592885.54647  21366819.409    21366824.0834
  22793392.983    -2721638.672 8  -2108592.85646  22793392.503    22793397.9354
  21397820.564       56061.902 9     70380.97447  21397820.357    21397825.4224
  20161254.040    -2075233.989 9  -1606123.23247  20161253.385    20161258.3674
  21724601.728     1868453.321 9   1448657.60247  21724601.211    21724606.7174
  23636270.273    -1571309.160 8  -1213085.17545  23636270.081    23636277.4374
  20967075.579    -1246186.246 9   -965541.39647  20967075.136    20967080.1144
  22659820.980     2971045.487 8   2303704.35846  22659820.443    22659827.3274
 00  9 20 15 49  0.0000000  0  8 29 31 03 15 23 09 21 17
  21353493.207    -3413571.875 9  -2647454.06847  21353493.174    21353497.9084
  22783355.509    -2774385.581 8  -2149694.34146  22783355.031    22783360.4924
  21401034.987       72953.855 9     83543.49747  21401034.792    21401039.9004
  20153575.681    -2115584.408 9  -1637565.11647  20153575.010    20153579.9764
  21734472.281     1920323.338 9   1489075.76447  21734471.778    21734477.2534
  23631513.007    -1596309.340 8  -1232565.83345  23631512.784    23631519.9314
  20962839.119    -1268449.079 9   -982889.06447  20962838.669    20962843.6554
  22675318.684     3052486.474 8   2367164.77546  22675318.064    22675325.0954
 00  9 20 15 49 30.0000000  0  8 29 31 03 15 23 09 21 17
  21340246.900    -3483181.825 9  -2701695.56747  21340246.904    21340251.5284
  22773417.364    -2826611.471 8  -2190389.83746  22773416.762    22773422.3274
  21404359.718       90425.178 9     97157.47847  21404359.520    21404364.6684
  20145965.082    -2155578.621 9  -1668729.44447  20145964.389    20145969.3774
  21744369.987     1972336.035 9   1529605.09747  21744369.526    21744374.9784
  23626855.752    -1620783.343 8  -1251636.49345  23626855.578    23626862.6754
  20958646.636    -1290480.877 9  -1000056.70647  20958646.161    20958651.1804
  22690869.107     3134205.126 8   2430841.54246  22690868.589    22690875.6544
 00  9 20 15 50  0.0000000  0  8 29 31 03 15 23 09 21 17
  21327080.834    -3552369.985 9  -2755608.41047  21327080.779    21327085.3934
  22763578.674    -2878314.149 8  -2230677.62646  22763578.102    22763583.7384
  21407794.642      108475.602 9    111222.70347  21407794.462    21407799.5744
  20138422.652    -2195214.374 9  -1699614.45747  20138421.971    20138426.9664
  21754294.811     2024491.051 9   1570245.32647  21754294.345    21754299.7754
  23622298.996    -1644728.813 8  -1270295.30945  23622298.852    23622306.0314
  20954498.271    -1312280.728 9  -1017043.61947  20954497.783    20954502.8084
  22706472.552     3216201.470 8   2494734.70646  22706472.046    22706479.0164
 00  9 20 15 50 30.0000000  0  8 29 31 03 15 23 09 21 17
  21313995.332    -3621134.623 9  -2809191.22247  21313995.298    21313999.8864
  22753839.848    -2929492.029 8  -2270556.47546  22753839.285    22753845.0444
  21411339.625      127104.382 9    125738.61347  21411339.438    21411344.5644
  20130948.740    -2234489.820 9  -1730218.69847  20130948.105    20130953.1184
  21764246.690     2076787.786 9   1610995.99447  21764246.166    21764251.5694
  23617843.405    -1668143.965 8  -1288540.91345  23617843.228    23617850.2854
  20950393.928    -1333849.225 9  -1033850.24447  20950393.455    20950398.4944
  22722128.739     3298474.859 8   2558843.75346  22722128.238    22722135.3184
 00  9 20 15 51  0.0000000  0  8 29 31 03 15 23 09 21 17
  21300990.700    -3689474.539 9  -2862443.08647  21300990.611    21300995.1714
  22744201.153    -2980143.433 8  -2310025.10446  22744200.658    22744206.5394
  21414994.389      146310.119 9    140704.08547  21414994.188    21414999.3084
  20123543.634    -2273403.661 9  -1760541.17747  20123543.021    20123548.0714
  21774225.187     2129224.907 9   1651856.04747  21774224.678    21774230.0934
  23613488.812    -1691027.537 8  -1306372.27645  23613488.622    23613495.6444
  20946333.459    -1355186.989 9  -1050477.08347  20946332.996    20946338.0764
  22737837.411     3381024.115 8   2623167.77346  22737836.922    22737844.0944
 00  9 20 15 51 30.0000000  0  8 29 31 03 15 23 09 21 17
  21288067.271    -3757387.393 9  -2915362.18347  21288067.208    21288071.7754
  22734663.241    -3030265.728 8  -2349081.43946  22734662.740    22734668.6484
  21418758.989      166093.024 9    156119.29347  21418758.772    21418763.8934
  20116207.905    -2311953.212 9  -1790579.79847  20116207.309    20116212.3674
  21784230.391     2181802.484 9   1692825.54647  21784229.891    21784235.3524
  23609235.812    -1713377.170 8  -1323787.56645  23609235.556    23609242.6284
  20942317.167    -1376293.126 9  -1066923.43547  20942316.686    20942321.7424
  22753598.678     3463849.421 8   2687706.88546  22753598.102    22753605.4654
 00  9 20 15 52  0.0000000  0  8 29 31 03 15 23 09 21 17
  21275225.269    -3824872.551 9  -2967948.00147  21275225.218    21275229.7854
  22725226.055    -3079858.192 8  -2387724.90746  22725225.563    22725231.5314
  21422633.020      186451.065 9    171982.66747  21422632.820    21422637.9134
  20108941.606    -2350138.042 9  -1820334.21547  20108941.020    20108946.0514
  21794261.955     2234518.592 8   1733902.99547  21794261.447    21794266.9254
  23605084.513    -1735191.968 8  -1340786.11445  23605084.320    23605091.4164
  20938344.625    -1397169.041 9  -1083190.39347  20938344.136    20938349.2264
  22769412.139     3546948.909 8   2752459.63146  22769411.574    22769418.8084
 00  9 20 15 52 30.0000000  0  8 29 31 03 15 23 09 21 17
  21262465.126    -3891927.432 9  -3020198.53347  21262465.072    21262469.7294
  22715890.309    -3128918.502 8  -2425953.72346  22715889.817    22715895.6464
  21426616.579      207384.511 9    188294.40347  21426616.392    21426621.5124
  20101745.215    -2387955.529 9  -1849802.39647  20101744.602    20101749.6444
  21804319.865     2287373.337 9   1775088.46247  21804319.384    21804324.8524
  23601035.534    -1756469.535 8  -1357366.03645  23601035.293    23601042.4374
  20934416.006    -1417814.212 9  -1099277.55247  20934415.506    20934420.6164
  22785277.932     3630323.040 8   2817426.38246  22785277.350    22785284.4724
 00  9 20 15 53  0.0000000  0  8 29 31 03 15 23 09 21 17
  21249786.834    -3958552.493 9  -3072114.12747  21249786.789    21249791.4444
  22706655.781    -3177446.646 8  -2463767.85046  22706655.259    22706661.0574
  21430709.131      228890.529 9    205052.30447  21430708.869    21430714.0004
  20094618.661    -2425405.802 9  -1878984.43348  20094618.065    20094623.1024
  21814403.673     2340364.172 8   1816379.97847  21814403.213    21814408.7174
  23597088.713    -1777210.090 8  -1373527.53245  23597088.486    23597095.5134
  20930530.783    -1438231.144 9  -1115186.86047  20930530.295    20930535.4264
  22801195.227     3713969.288 8   2882605.17446  22801194.672    22801201.9734
 00  9 20 15 53 30.0000000  0  8 29 31 03 15 23 09 21 17
  21237190.893    -4024744.345 9  -3123692.18947  21237190.859    21237195.5604
  22697523.016    -3225439.138 8  -2501164.59546  22697522.542    22697528.2854
  21434910.705      250969.738 9    222256.84947  21434910.470    21434915.5994
  20087562.612    -2462485.576 9  -1907877.76748  20087562.020    20087567.0354
  21824513.633     2393492.025 9   1857778.26247  21824513.174    21824518.6494
  23593244.833    -1797410.205 8  -1389267.90145  23593244.517    23593251.6194
  20926689.310    -1458418.110 9  -1130916.97647  20926688.865    20926694.0124
  22817164.440     3797888.431 8   2947996.63546  22817163.916    22817171.4554
 00  9 20 15 54  0.0000000  0  8 29 31 03 15 23 09 21 17
  21224677.630    -4090501.547 9  -3174931.54747  21224677.612    21224682.3224
  22688492.669    -3272894.655 8  -2538142.90746  22688492.114    22688497.7484
  21439221.142      273621.269 9    239907.35247  21439220.956    21439226.0744
  20080577.484    -2499193.132 9  -1936481.06048  20080576.866    20080581.8374
  21834649.494     2446755.854 8   1899282.49847  21834649.017    21834654.5034
  23589503.898    -1817068.596 8  -1404586.16345  23589503.716    23589510.8414
  20922891.543    -1478375.679 9  -1146468.34047  20922891.084    20922896.2124
  22833185.573     3882079.720 8   3013600.15146  22833185.114    22833192.5814
 00  9 20 15 54 30.0000000  0  8 29 31 03 15 23 09 21 17
  21212247.223    -4155823.585 9  -3225831.80947  21212247.207    21212251.8864
  22679564.300    -3319812.769 8  -2574702.47646  22679563.884    22679569.4324
  21443640.153      296842.982 9    258002.16047  21443639.927    21443645.0844
  20073663.325    -2535527.508 9  -1964793.56348  20073662.663    20073667.6484
  21844810.871     2500153.987 9   1940891.38847  21844810.382    21844815.9334
  23585866.089    -1836184.935 8  -1419482.03245  23585865.915    23585873.1344
  20919137.316    -1498104.492 9  -1161841.45047  20919136.883    20919141.9764
  22849258.286     3966541.638 8   3079414.50446  22849257.788    22849265.2044
 00  9 20 15 55  0.0000000  0  8 29 31 03 15 23 09 21 17
  21199900.069    -4220708.358 9  -3276391.35647  21199900.045    21199904.7164
  22670739.004    -3366191.071 8  -2610841.41346  22670738.485    22670743.7764
  21448167.574      320634.649 9    276541.08647  21448167.323    21448172.5344
  20066820.499    -2571486.587 9  -1992813.63048  20066819.850    20066824.9084
  21854997.717     2553686.197 9   1982604.74847  21854997.260    21855002.8314
  23582332.002    -1854756.981 8  -1433953.76745  23582331.871    23582339.0894
  20915426.736    -1517604.019 9  -1177035.90247  20915426.281    20915431.3374
  22865382.509     4051273.988 8   3145439.60346  22865382.045    22865389.2314
 00  9 20 15 55 30.0000000  0  8 29 31 03 15 23 09 21 17
  21187636.316    -4285154.816 9  -3326609.35447  21187636.295    21187640.9274
  22662016.340    -3412028.652 8  -2646558.99646  22662015.853    22662021.0524
  21452803.079      344994.564 9    295522.80647  21452802.864    21452808.1074
  20060049.294    -2607069.362 9  -2020540.47148  20060048.677    20060053.7414
  21865209.874     2607351.216 9   2024421.59947  21865209.381    21865214.9654
  23578901.666    -1872783.448 8  -1448000.37645  23578901.526    23578908.7824
  20911759.661    -1536874.980 9  -1192052.24647  20911759.200    20911764.2234
  22881557.884     4136275.525 8   3211674.44246  22881557.397    22881564.6164
 00  9 20 15 56  0.0000000  0  8 29 31 03 15 23 09 21 17
  21175456.492    -4349160.139 9  -3376483.60247  21175456.447    21175461.0854
  22653397.208    -3457322.641 8  -2681853.01646  22653396.700    22653401.8884
  21457546.838      369923.078 9    314947.58047  21457546.590    21457551.9004
  20053350.321    -2642272.952 9  -2047971.84848  20053349.685    20053354.7434
  21875447.412     2661149.530 8   2066342.32047  21875446.913    21875452.4604
  23575575.610    -1890261.829 8  -1461619.89745  23575575.529    23575582.8474
  20908136.063    -1555917.116 9  -1206890.28547  20908135.609    20908140.6194
  22897784.522     4221546.448 8   3278119.22446  22897783.954    22897791.2724
 00  9 20 15 56 30.0000000  0  8 29 31 03 15 23 09 21 17
  21163360.515    -4412724.789 9  -3426014.48447  21163360.510    21163365.1524
  22644881.485    -3502072.897 8  -2716723.33646  22644881.045    22644886.2494
  21462398.376      395417.530 9    334813.34947  21462398.081    21462403.3794
  20046723.526    -2677097.160 9  -2075107.60048  20046722.863    20046727.9294
  21885709.852     2715078.666 9   2108364.96947  21885709.299    21885714.8544
  23572353.735    -1907192.353 8  -1474812.51945  23572353.619    23572361.0004
  20904555.701    -1574732.035 9  -1221551.27147  20904555.228    20904560.2844
  22914061.914     4307084.535 8   3344772.17346  22914061.455    22914068.7134
 00  9 20 15 57  0.0000000  0  8 29 31 03 15 23 09 21 17
  21151348.881    -4475846.574 9  -3475200.28047  21151348.816    21151353.4324
  22636469.670    -3546277.544 8  -2751168.50446  22636469.179    22636474.4514
  21467357.347      421477.068 9    355119.45047  21467357.078    21467362.3974
  20040169.328    -2711539.672 9  -2101945.92748  20040168.700    20040173.7064
  21895997.068     2769138.584 8   2150489.52447  21895996.557    21896002.2554
  23569236.683    -1923573.004 8  -1487576.64845  23569236.497    23569243.8444
  20901018.653    -1593319.158 9  -1236034.75447  20901018.196    20901023.2784
  22930390.296     4392889.634 8   3411633.17046  22930389.771    22930396.9214
 00  9 20 15 57 30.0000000  0  8 29 31 03 15 23 09 21 17
  21139421.871    -4538523.879 9  -3524039.73147  21139421.773    21139426.3404
  22628161.980    -3589934.969 8  -2785187.26046  22628161.499    22628166.7764
  21472423.666      448100.965 9    375865.30247  21472423.470    21472428.7724
  20033688.092    -2745598.697 9  -2128485.43348  20033687.467    20033692.4844
  21906309.093     2823328.621 8   2192715.47047  21906308.638    21906314.3594
  23566224.509    -1939402.013 8  -1499910.93145  23566224.352    23566231.7264
  20897524.951    -1611678.620 9  -1250340.84347  20897524.495    20897529.6054
  22946769.353     4478961.324 8   3478701.89346  22946768.762    22946775.8984
 00  9 20 15 58  0.0000000  0  8 29 31 03 15 23 09 21 17
  21127579.573    -4600755.791 9  -3572532.11547  21127579.491    21127584.0014
  22619958.617    -3633044.055 8  -2818778.75146  22619958.149    22619963.4364
  21477597.188      475287.499 9    397049.57847  21477596.929    21477602.2184
  20027280.116    -2779272.940 9  -2154725.10548  20027279.473    20027284.5114
  21916645.715     2877647.697 8   2235041.97447  21916645.242    21916650.9994
  23563317.511    -1954678.679 8  -1511814.77245  23563317.355    23563324.7074
  20894074.354    -1629811.454 9  -1264470.33347  20894073.934    20894079.0764
  22963198.911     4565298.123 8   3545977.23046  22963198.289    22963205.4814
 00  9 20 15 58 30.0000000  0  8 29 31 03 15 23 09 21 17
  21115822.310    -4662540.338 9  -3620675.89647  21115822.231    21115826.8154
  22611859.929    -3675602.989 8  -2851941.54646  22611859.456    22611864.7754
  21482877.531      503035.910 9    418671.68447  21482877.294    21482882.6304
  20020945.760    -2812560.320 9  -2180663.32548  20020945.108    20020950.1334
  21927006.839     2932095.538 8   2277468.82247  21927006.389    21927012.0714
  23560515.955    -1969401.248 8  -1523286.88045  23560515.774    23560523.1114
  20890667.034    -1647717.110 9  -1278422.80047  20890666.612    20890671.7714
  22979678.665     4651899.844 8   3613458.97046  22979678.090    22979685.4764
 00  9 20 15 59  0.0000000  0  8 29 31 03 15 23 09 21 17
  21104150.270    -4723876.769 9  -3668470.50147  21104150.261    21104154.8994
  22603866.137    -3717610.656 8  -2884674.79746  22603865.630    22603870.9084
  21488264.519      531344.510 9    440730.29247  21488264.324    21488269.6374
  20014685.207    -2845459.788 9  -2206299.28048  20014684.552    20014689.6204
  21937392.229     2986670.876 8   2319995.01747  21937391.810    21937397.4274
  23557819.943    -1983569.052 8  -1534326.67245  23557819.741    23557827.1014
  20887302.824    -1665396.390 9  -1292198.87147  20887302.372    20887307.5364
  22996208.661     4738765.207 8   3681146.16946  22996208.116    22996215.5124
 00  9 20 15 59 30.0000000  0  8 29 31 03 15 23 09 21 17
  21092563.999    -4784762.747 9  -3715914.11047  21092564.012    21092568.6474
  22595977.679    -3759064.763 8  -2916976.71446  22595977.181    22595982.4294
  21493758.133      560213.203 9    463225.33447  21493757.911    21493763.1734
  20008498.931    -2877968.720 9  -2231630.92247  20008498.265    20008503.3574
  21947801.953     3041374.065 8   2362620.83347  21947801.493    21947807.1264
  23555229.940    -1997179.719 8  -1544932.35946  23555229.724    23555237.1144
  20883981.756    -1682848.459 9  -1305797.89547  20883981.321    20883986.5304
  23012788.805     4825894.204 8   3749038.78646  23012788.219    23012795.6564
 00  9 20 16  0  0.0000000  0  8 29 31 03 15 23 09 21 17
  21081063.528    -4845198.070 9  -3763006.56147  21081063.543    21081068.1354
  22588194.623    -3799964.933 8  -2948846.97346  22588194.109    22588199.4244
  21499357.819      589639.573 9    486154.93647  21499357.545    21499362.8584
  20002387.078    -2910086.546 9  -2256657.79947  20002386.446    20002391.5684
  21958235.581     3096203.171 8   2405344.76947  21958235.130    21958240.8114
  23552745.904    -2010232.910 8  -1555103.63446  23552745.724    23552753.2324
  20880703.754    -1700074.515 9  -1319220.80547  20880703.320    20880708.5064
  23029418.682     4913284.974 8   3817135.36146  23029418.086    23029425.6874
 00  9 20 16  0 30.0000000  0  8 29 31 03 15 23 09 21 17
  21069649.298    -4905180.903 9  -3809746.41447  21069649.245    21069653.7554
  22580517.243    -3840309.760 8  -2980284.49346  22580516.734    22580522.0584
  21505063.481      619622.851 9    509518.49047  21505063.234    21505068.4874
  19996350.065    -2941811.252 9  -2281378.34947  19996349.465    19996354.5474
  21968693.150     3151157.817 8   2448166.53347  21968692.700    21968698.4324
  23550368.324    -2022726.989 7  -1564839.24945  23550368.160    23550375.6864
  20877468.727    -1717074.785 9  -1332467.77647  20877468.289    20877473.4704
  23046098.353     5000937.021 8   3885435.53846  23046097.788    23046105.5514
 00  9 20 16  1  0.0000000  0  8 29 31 03 15 23 09 21 17
  21058321.531    -4964708.900 9  -3856131.84747  21058321.457    21058325.9294
  22572945.841    -3880096.772 8  -3011287.35546  22572945.485    22572950.8134
  21510875.014      650162.508 9    533315.57647  21510874.801    21510880.0334
  19990388.405    -2973140.264 9  -2305790.57047  19990387.782    19990392.8364
  21979174.691     3206238.331 8   2491086.37147  21979174.244    21979180.0164
  23548097.567    -2034659.785 7  -1574137.52745  23548097.441    23548104.9274
  20874276.854    -1733848.345 9  -1345538.09247  20874276.419    20874281.5754
  23062827.860     5088850.429 8   3953939.37446  23062827.277    23062835.1694
 00  9 20 16  1 30.0000000  0  8 29 31 03 15 23 09 21 17
  21047080.354    -5023781.585 9  -3902162.49047  21047080.270    21047084.7414
  22565480.998    -3919325.116 8  -3041854.89846  22565480.612    22565485.9424
  21516792.082      681256.654 9    557544.74047  21516791.875    21516797.0954
  19984502.261    -3004072.457 9  -2329893.57948  19984501.627    19984506.6114
  21989679.867     3261443.294 8   2534103.18647  21989679.422    21989685.2104
  23545933.660    -2046031.187 7  -1582998.33345  23545933.430    23545940.9964
  20871127.856    -1750396.201 9  -1358432.53147  20871127.469    20871132.6004
  23079606.779     5177023.748 8   4022645.74846  23079606.111    23079614.0224
 00  9 20 16  2  0.0000000  0  8 29 31 03 15 23 09 21 17
  21035925.596    -5082399.612 9  -3947838.85647  21035925.542    21035930.0784
  22558122.217    -3957995.837 8  -3071987.92746  22558121.787    22558127.1444
  21522814.098      712902.172 9    582203.54947  21522813.886    21522819.0974
  19978691.525    -3034608.300 9  -2353687.74648  19978690.900    19978695.8254
  22000208.195     3316770.061 8   2577214.91047  22000207.743    22000213.5324
  23543876.387    -2056841.954 7  -1591422.27945  23543876.233    23543883.7064
  20868021.433    -1766720.539 9  -1371152.80247  20868021.060    20868026.2074
  23096434.400     5265454.176 8   4091552.45545  23096433.881    23096441.5444
 00  9 20 16  2 30.0000000  0  8 29 31 03 15 23 09 21 17
  21024858.076    -5140559.695 9  -3993158.39747  21024858.034    21024862.5894
  22550870.077    -3996105.547 8  -3101683.80846  22550869.688    22550875.1394
  21528941.087      745099.399 9    607292.25747  21528940.904    21528946.1064
  19972956.834    -3064744.299 9  -2377170.34948  19972956.210    19972961.1374
  22010760.024     3372219.956 8   2620422.57747  22010759.578    22010765.3294
  23541926.443    -2067088.610 8  -1599406.64145  23541926.333    23541933.6324
  20864957.901    -1782819.256 9  -1383697.26747  20864957.550    20864962.7424
  23113311.479     5354142.941 8   4160660.45246  23113310.978    23113318.6034
 00  9 20 16  3  0.0000000  0  8 29 31 03 15 23 09 21 17
  21013877.877    -5198261.082 9  -4038120.50447  21013877.825    21013882.3974
  22543724.882    -4033653.521 8  -3130941.96446  22543724.535    22543730.0614
  21535172.676      777846.468 9    632809.41447  21535172.510    21535177.7234
  19967298.399    -3094479.353 9  -2400340.52748  19967297.787    19967302.7694
  22021335.083     3427791.669 8   2663725.17547  22021334.597    22021340.3554
  23540084.059    -2076770.525 8  -1606950.95145  23540083.829    23540091.2604
  20861937.099    -1798693.675 9  -1396066.95547  20861936.762    20861941.9194
  23130237.509     5443088.654 8   4229968.64146  23130236.960    23130244.6394
 00  9 20 16  3 30.0000000  0  8 29 31 03 15 23 09 21 17
  21002985.108    -5255503.012 9  -4082724.58947  21002985.076    21002989.6924
  22536686.784    -4070638.667 8  -3159761.54446  22536686.437    22536692.0134
  21541508.596      811141.713 9    658753.72147  21541508.404    21541513.6474
  19961716.583    -3123812.127 9  -2423197.23848  19961715.942    19961720.9704
  22031933.016     3483484.195 8   2707121.90847  22031932.531    22031938.3334
  23538349.097    -2085887.404 8  -1614054.94845  23538348.940    23538356.3454
  20858959.049    -1814344.096 9  -1408262.09647  20858958.653    20858963.7464
  23147212.075     5532289.962 8   4299476.06746  23147211.469    23147219.1954
 00  9 20 16  4  0.0000000  0  8 29 31 03 15 23 09 21 17
  20992180.164    -5312283.768 9  -4126969.31947  20992180.116    20992184.6564
  22529756.374    -4107059.445 8  -3188141.36046  22529755.885    22529761.3584
  21547948.602      844983.968 9    685124.26947  21547948.396    21547953.6524
  19956211.746    -3152740.429 9  -2445738.77748  19956211.083    19956216.1454
  22042553.957     3539297.428 8   2750612.69047  22042553.468    22042559.3114
  23536722.098    -2094437.323 8  -1620717.18545  23536721.886    23536729.3144
  20856023.658    -1829770.052 9  -1420282.32947  20856023.235    20856028.2964
  23164234.989     5621746.250 8   4369182.12945  23164234.375    23164242.2624
 00  9 20 16  4 30.0000000  0  8 29 31 03 15 23 09 21 17
  20981463.082    -5368602.404 9  -4170853.95347  20981463.036    20981467.5824
  22522933.240    -4142914.854 8  -3216080.64346  22522932.808    22522938.2564
  21554492.391      879371.652 9    711919.82447  21554492.186    21554497.4324
  19950784.081    -3181262.930 9  -2467964.10948  19950783.450    19950788.5114
  22053197.637     3595230.365 8   2794196.75847  22053197.159    22053202.9754
  23535203.018    -2102419.536 8  -1626937.04245  23535202.908    23535210.3264
  20853130.746    -1844972.522 9  -1432128.42447  20853130.318    20853135.3654
  23181306.308     5711456.747 8   4439086.27246  23181305.835    23181313.7914
 00  9 20 16  5  0.0000000  0  8 29 31 03 15 23 09 21 17
  20970834.080    -5424457.786 9  -4214377.60747  20970834.054    20970838.6244
  22516217.950    -4178204.069 8  -3243578.72646  22516217.527    22516222.9484
  21561139.687      914303.303 9    739139.25547  21561139.494    21561144.7474
  19945433.920    -3209378.121 9  -2489872.05348  19945433.314    19945438.3544
  22063863.952     3651282.353 8   2837873.60147  22063863.485    22063869.2984
  23533792.312    -2109833.258 8  -1632713.95845  23533792.205    23533799.5324
  20850280.353    -1859951.672 9  -1443800.49747  20850279.912    20850284.9584
  23198425.966     5801420.561 8   4509187.81645  23198425.534    23198433.4534
 00  9 20 16  5 30.0000000  0  8 29 31 03 15 23 09 21 17
  20960293.534    -5479848.571 9  -4257539.25247  20960293.511    20960298.0714
  22509610.676    -4212925.575 8  -3270634.43446  22509610.241    22509615.6844
  21567890.266      949777.460 9    766781.41447  21567890.060    21567895.2684
  19940161.626    -3237084.417 9  -2511461.38448  19940161.004    19940166.0284
  22074552.897     3707452.882 8   2881642.80747  22074552.405    22074558.2234
  23532489.936    -2116677.311 7  -1638046.95845  23532489.776    23532497.1964
  20847472.550    -1874706.799 9  -1455298.00747  20847472.095    20847477.1434
  23215593.547     5891636.599 8   4579485.92445  23215593.179    23215601.0894
 00  9 20 16  6  0.0000000  0  8 29 31 03 15 23 09 21 17
  20949841.668    -5534773.217 9  -4300337.66747  20949841.636    20949846.1974
  22503111.675    -4247078.014 8  -3297246.71346  22503111.220    22503116.7214
  21574743.854      985793.023 9    794845.44847  21574743.626    21574748.8504
  19934967.510    -3264379.945 9  -2532730.63548  19934966.889    19934971.8574
  22085264.279     3763741.513 8   2925504.03047  22085263.820    22085269.6574
  23531295.991    -2122950.266 7  -1642934.95145  23531295.894    23531303.4894
  20844707.269    -1889238.376 9  -1466621.32847  20844706.810    20844711.8974
  23232809.148     5982104.419 8   4649980.19045  23232808.760    23232816.7464
 00  9 20 16  6 30.0000000  0  8 29 31 03 15 23 09 21 17
  20939478.590    -5589231.505 9  -4342772.68547  20939478.591    20939483.1154
  22496721.125    -4280660.917 8  -3323415.20046  22496720.614    22496726.1024
  21581699.964     1022347.620 9    823329.50747  21581699.730    21581705.0494
  19929851.723    -3291263.678 9  -2553679.00448  19929851.091    19929856.0504
  22095997.895     3820147.042 8   2969456.35047  22095997.489    22096003.3624
  23530210.936    -2128652.104 7  -1647377.94445  23530210.844    23530218.5024
  20841984.428    -1903547.019 9  -1477770.92847  20841983.965    20841989.0794
  23250072.463     6072822.493 8   4720669.44945  23250071.990    23250079.9914
 00  9 20 16  7  0.0000000  0  8 29 31 03 15 23 09 21 17
  20929204.585    -5643221.921 9  -4384843.12647  20929204.553    20929209.0764
  22490439.068    -4313672.905 8  -3349138.82546  22490438.543    22490444.0514
  21588758.385     1059439.823 9    852232.48347  21588758.144    21588763.4654
  19924814.577    -3317733.957 9  -2574305.19848  19924813.958    19924818.9314
  22106753.793     3876669.143 8   3013499.50647  22106753.373    22106759.2324
  23529234.703    -2133781.659 7  -1651375.01845  23529234.710    23529242.3734
  20839303.851    -1917633.300 9  -1488747.25947  20839303.410    20839308.5694
  23267383.045     6163789.889 8   4791553.00745  23267382.567    23267390.5414
 00  9 20 16  7 30.0000000  0  8 29 31 03 15 23 09 21 17
  20919019.765    -5696743.229 9  -4426548.02847  20919019.744    20919024.2794
  22484265.957    -4346112.732 8  -3374416.59646  22484265.387    22484270.8574
  21595918.941     1097068.609 9    881553.58147  21595918.706    21595923.9854
  19919856.419    -3343788.965 9  -2594607.80048  19919855.801    19919860.8374
  22117531.754     3933307.192 8   3057633.01347  22117531.312    22117537.0984
  23528367.655    -2138337.945 7  -1654925.34445  23528367.530    23528375.3244
  20836665.603    -1931497.273 9  -1499550.35647  20836665.167    20836670.3514
  23284740.967     6255005.799 8   4862630.21845  23284740.380    23284748.4964
 00  9 20 16  8  0.0000000  0  8 29 31 03 15 23 09 21 17
  20908924.322    -5749794.950 9  -4467887.02647  20908924.343    20908928.9294
  22478201.854    -4377979.866 8  -3399248.11746  22478201.235    22478206.7014
  21603181.187     1135231.898 9    911291.16947  21603180.959    21603186.2664
  19914977.484    -3369427.641 9  -2614585.99748  19914976.928    19914981.9884
  22128331.534     3990060.041 8   3101855.97347  22128331.055    22128336.8054
  23527609.892    -2142320.584 8  -1658028.67345  23527609.685    23527617.4414
  20834069.716    -1945138.917 9  -1510180.21947  20834069.304    20834074.4554
  23302145.836     6346468.939 8   4933900.09745  23302145.390    23302153.4924
 00  9 20 16  8 30.0000000  0  8 29 31 03 15 23 09 21 17
  20898918.425    -5802376.298 9  -4508859.50147  20898918.440    20898923.0644
  22472246.875    -4409273.857 8  -3423633.04146  22472246.247    22472251.5994
  21610544.795     1173927.586 9    941443.61047  21610544.581    21610549.8894
  19910178.107    -3394648.781 9  -2634238.84248  19910177.521    19910182.5364
  22139152.940     4046926.800 8   3146167.69247  22139152.484    22139158.2784
  23526961.369    -2145729.098 8  -1660684.62345  23526961.174    23526968.7184
  20831515.964    -1958558.989 9  -1520637.42447  20831515.552    20831520.7144
  23319597.838     6438178.064 8   5005361.63145  23319597.249    23319605.2954
 00  9 20 16  9  0.0000000  0  8 29 31 03 15 23 09 21 17
  20889002.523    -5854484.849 9  -4549463.56047  20889002.534    20889007.1644
  22466401.263    -4439992.640 8  -3447569.73746  22466400.654    22466405.9974
  21618009.590     1213155.005 9    972010.39047  21618009.363    21618014.6754
  19905458.772    -3419449.362 9  -2653563.97348  19905458.158    19905463.1424
  22149996.205     4103908.111 8   3190568.67447  22149995.757    22150001.5744
  23526422.475    -2148561.037 8  -1662891.28945  23526422.277    23526429.7924
  20829004.532    -1971756.613 9  -1530921.29547  20829004.140    20829009.3154
  23337096.329     6530133.457 8   5077015.04845  23337095.815    23337103.6884
 00  9 20 16  9 30.0000000  0  8 29 31 03 15 23 09 21 17
  20879176.595    -5906120.249 9  -4589698.92447  20879176.617    20879181.2204
  22460665.182    -4470135.447 8  -3471057.62846  22460664.635    22460670.0014
  21625575.139     1252912.154 9   1002989.95847  21625574.896    21625580.2354
  19900819.497    -3443828.815 9  -2672560.94848  19900818.870    19900823.9034
  22160860.962     4161002.839 8   3235058.03347  22160860.515    22160866.4134
  23525993.253    -2150816.516 8  -1664648.75845  23525993.094    23526000.5224
  20826535.263    -1984732.761 9  -1541032.58047  20826534.880    20826540.0364
  23354641.490     6622333.419 8   5148859.06145  23354640.868    23354648.7144
 00  9 20 16 10  0.0000000  0  8 29 31 03 15 23 09 21 17
  20869441.008    -5957281.281 9  -4629564.65547  20869441.007    20869445.5524
  22455038.926    -4499701.322 8  -3494095.97046  22455038.430    22455043.8224
  21633241.187     1293197.502 9   1034381.09847  21633240.979    21633246.3444
  19896260.712    -3467785.284 9  -2691228.33448  19896260.126    19896265.1654
  22171747.368     4218210.772 8   3279635.59247  22171746.909    22171752.7764
  23525673.925    -2152494.784 8  -1665956.45845  23525673.755    23525681.0854
  20824108.227    -1997486.955 9  -1550970.92647  20824107.840    20824113.0044
  23372232.866     6714777.121 8   5220892.99245  23372232.310    23372240.3784
 00  9 20 16 10 30.0000000  0  8 29 31 03 15 23 09 21 17
  20859795.719    -6007967.644 9  -4669060.50847  20859795.744    20859800.2494
  22449522.672    -4528690.032 8  -3516684.57646  22449522.159    22449527.5134
  21641007.267     1334008.604 9   1066181.92447  21641007.083    21641012.4954
  19891782.645    -3491317.844 9  -2709565.39548  19891782.056    19891787.1074
  22182655.078     4275530.568 8   3324300.32947  22182654.558    22182660.4274
  23525464.447    -2153595.668 8  -1666814.24645  23525464.260    23525471.6104
  20821723.233    -2010020.221 9  -1560737.11647  20821722.861    20821728.0054
  23389870.712     6807463.046 8   5293115.67245  23389870.070    23389878.1304
 00  9 20 16 11  0.0000000  0  8 29 31 03 15 23 09 21 17
  20850241.089    -6058177.874 9  -4708185.35447  20850241.069    20850245.5644
  22444116.418    -4557100.015 8  -3538822.22346  22444115.981    22444121.2904
  21648873.259     1375344.460 9   1098391.65047  21648873.057    21648878.4814
  19887385.715    -3514424.176 9  -2727570.33148  19887385.110    19887390.1684
  22193583.985     4332962.197 8   3369052.20747  22193583.512    22193589.3294
  23525365.065    -2154117.902 8  -1667221.14545  23525364.918    23525372.1794
  20819380.338    -2022332.157 9  -1570330.83947  20819379.973    20819385.1154
  23407554.485     6900390.641 8   5365526.65545  23407553.907    23407561.7714
 00  9 20 16 11 30.0000000  0  8 29 31 03 15 23 09 21 17
  20840777.088    -6107911.109 9  -4746938.51747  20840777.100    20840781.6784
  22438820.467    -4584930.684 8  -3560508.46046  22438820.038    22438825.2604
  21656838.692     1417202.782 9   1131008.48847  21656838.503    21656843.9504
  19883070.031    -3537103.448 9  -2745242.49348  19883069.387    19883074.4254
  22204533.966     4390504.588 8   3413890.39947  22204533.462    22204539.3094
  23525375.859    -2154061.117 8  -1667176.87345  23525375.771    23525383.0514
  20817079.510    -2034423.378 9  -1579752.57947  20817079.116    20817084.2814
  23425283.839     6993558.710 8   5438125.01545  23425283.244    23425291.1674
 00  9 20 16 12  0.0000000  0  8 29 31 03 15 23 09 21 17
  20831404.190    -6157166.325 9  -4785319.19547  20831404.179    20831408.7814
  22433634.912    -4612180.970 8  -3581742.45046  22433634.558    22433639.7234
  21664903.338     1459582.424 9   1164031.55447  21664903.099    21664908.5904
  19878835.901    -3559353.923 9  -2762580.52248  19878835.279    19878840.2624
  22215505.006     4448157.622 8   3458814.79447  22215504.496    22215510.4004
  23525497.184    -2153424.229 8  -1666680.59345  23525497.018    23525504.2064
  20814820.728    -2046293.816 9  -1589002.27747  20814820.310    20814825.4424
  23443058.845     7086966.624 8   5510910.29045  23443058.248    23443066.3964
 00  9 20 16 12 30.0000000  0  8 29 31 03 15 23 09 21 17
  20822122.257    -6205943.093 9  -4823327.05947  20822122.265    20822126.8904
  22428559.810    -4638850.690 8  -3602524.06046  22428559.432    22428564.5704
  21673066.682     1502480.737 9   1197458.76747  21673066.448    21673071.9274
  19874683.594    -3581174.542 9  -2779583.61248  19874682.983    19874687.9304
  22226496.818     4505919.948 8   3503824.35447  22226496.327    22226502.3114
  23525728.712    -2152207.240 8  -1665732.29345  23525728.547    23525735.8364
  20812603.734    -2057944.147 9  -1598080.46747  20812603.334    20812608.4554
  23460879.417     7180612.671 8   5583881.09945  23460878.781    23460887.0464
 00  9 20 16 13  0.0000000  0  8 29 31 03 15 23 09 21 17
  20812931.675    -6254240.207 9  -4860961.16247  20812931.657    20812936.2714
  22423595.433    -4664938.745 8  -3622852.41646  22423595.018    22423600.2674
  21681328.451     1545896.190 9   1231288.95447  21681328.169    21681333.6624
  19870613.393    -3602563.600 9  -2796250.41048  19870612.771    19870617.7494
  22237509.379     4563791.437 8   3548918.97347  22237508.863    22237514.9114
  23526070.767    -2150409.386 7  -1664331.38645  23526070.651    23526077.9454
  20810428.722    -2069374.200 9  -1606987.00947  20810428.280    20810433.4574
  23478744.807     7274496.036 7   5657036.78545  23478744.194    23478752.4874
 00  9 20 16 13 30.0000000  0  8 29 31 03 15 23 09 21 17
  20803832.493    -6302056.434 9  -4898220.55347  20803832.467    20803837.0964
  22418741.932    -4690444.129 8  -3642726.75046  22418741.538    22418746.7964
  21689688.289     1589827.379 9   1265521.00947  21689688.021    21689693.5534
  19866625.679    -3623519.169 9  -2812579.43548  19866625.042    19866630.0644
  22248542.688     4621771.912 8   3594098.52147  22248542.245    22248548.2184
  23526523.603    -2148029.769 8  -1662477.16545  23526523.467    23526530.7554
  20808295.535    -2080584.197 9  -1615722.08747  20808295.117    20808300.2654
  23496655.251     7368616.060 8   5730376.90845  23496654.744    23496662.8334
 00  9 20 16 14  0.0000000  0  8 29 31 03 15 23 09 21 17
  20794824.921    -6349391.213 9  -4935104.78747  20794824.922    20794829.5444
  22413999.492    -4715366.327 8  -3662146.64246  22413999.031    22414004.2414
  21698145.844     1634272.065 9   1300153.19647  21698145.586    21698151.0944
  19862720.659    -3644040.101 9  -2828569.77448  19862720.035    19862725.1194
  22259596.665     4679860.489 8   3639362.31547  22259596.172    22259602.0834
  23527087.121    -2145068.035 8  -1660169.35645  23527087.027    23527094.3014
  20806204.237    -2091574.209 9  -1624285.74347  20806203.785    20806208.9444
  23514610.651     7462971.570 7   5803900.52045  23514610.123    23514618.2714
 00  9 20 16 14 30.0000000  0  8 29 31 03 15 23 09 21 17
  20785909.005    -6396244.253 9  -4971613.64147  20785909.025    20785913.6234
  22409368.005    -4739705.037 8  -3681111.88046  22409367.568    22409372.7044
  21706700.674     1679227.951 9   1335183.71047  21706700.414    21706705.9084
  19858898.527    -3664125.456 9  -2844220.70848  19858897.891    19858903.0374
  22270670.943     4738056.205 8   3684709.57847  22270670.495    22270676.3944
  23527761.472    -2141524.246 8  -1657408.00545  23527761.360    23527768.6094
  20804154.625    -2102344.719 9  -1632678.36347  20804154.194    20804159.4024
  23532610.342     7557560.832 8   5877606.28245  23532609.823    23532618.4624
 00  9 20 16 15  0.0000000  0  8 29 31 03 15 23 09 21 17
  20777085.205    -6442614.139 9  -5007746.00947  20777085.223    20777089.7314
  22404847.970    -4763458.867 8  -3699621.35946  22404847.437    22404852.4704
  21715352.569     1724693.799 8   1370611.61047  21715352.324    21715357.8734
  19855159.669    -3683773.175 9  -2859530.62648  19855159.049    19855164.1804
  22281765.674     4796358.997 8   3730140.27747  22281765.165    22281771.1024
  23528546.865    -2137397.379 8  -1654192.28545  23528546.716    23528553.9314
  20802146.864    -2112895.717 9  -1640899.93047  20802146.444    20802151.6124
  23550654.443     7652383.211 8   5951493.72245  23550653.862    23550662.7094
 00  9 20 16 15 30.0000000  0  8 29 31 03 15 23 09 21 17
  20768353.505    -6488499.959 9  -5043501.17347  20768353.488    20768357.9244
  22400439.142    -4786627.368 8  -3717674.74246  22400438.619    22400443.6664
  21724101.095     1770667.718 8   1406435.41047  21724100.848    21724106.4264
  19851504.396    -3702981.837 9  -2874498.42248  19851503.780    19851508.8894
  22292880.620     4854768.279 8   3775653.95947  22292880.100    22292886.1054
  23529443.262    -2132686.942 8  -1650521.85346  23529443.096    23529450.3244
  20800180.899    -2123227.175 9  -1648950.43247  20800180.475    20800185.6084
  23568742.811     7747437.875 8   6025562.14445  23568742.249    23568751.0294
 00  9 20 16 16  0.0000000  0  8 29 31 03 15 23 09 21 17
  20759713.976    -6533901.315 9  -5078878.84747  20759713.959    20759718.3774
  22396141.863    -4809209.968 8  -3735271.58546  22396141.354    22396146.4184
  21732945.842     1817147.244 8   1442653.19447  21732945.605    21732951.1974
  19847932.910    -3721750.317 9  -2889123.22148  19847932.282    19847937.3434
  22304015.653     4913283.225 8   3821249.96747  22304015.142    22304021.1974
  23530450.731    -2127392.725 8  -1646396.52146  23530450.598    23530457.7734
  20798256.557    -2133339.748 9  -1656830.37647  20798256.157    20798261.2434
  23586875.319     7842723.424 8   6099810.49245  23586874.627    23586883.3294
 00  9 20 16 16 30.0000000  0  8 29 31 03 15 23 09 21 17
  20751166.785    -6578817.103 9  -5113878.15247  20751166.756    20751171.1934
  22391956.222    -4831205.906 8  -3752411.27746  22391955.682    22391960.7444
  21741886.533     1864130.913 8   1479263.81547  21741886.315    21741891.9164
  19844445.515    -3740076.902 9  -2903403.68648  19844444.867    19844449.9194
  22315170.767     4971903.770 8   3866928.25547  22315170.279    22315176.4044
  23531569.472    -2121514.090 8  -1641815.79846  23531569.293    23531576.4444
  20796373.940    -2143233.137 9  -1664539.52247  20796373.540    20796378.5854
  23605051.365     7938239.123 8   6174238.13045  23605050.753    23605059.5494
 00  9 20 16 17  0.0000000  0  8 29 31 03 15 23 09 21 17
  20742712.018    -6623247.001 9  -5148498.84947  20742711.979    20742716.4794
  22387882.066    -4852615.242 8  -3769093.88046  22387881.582    22387886.6934
  21750922.794     1911616.239 8   1516265.32547  21750922.579    21750928.1114
  19841042.308    -3757960.760 9  -2917339.16848  19841041.683    19841046.7354
  22326345.764     5030628.901 8   3912688.03947  22326345.323    22326351.4444
  23532799.306    -2115051.135 8  -1636779.74646  23532799.192    23532806.2834
  20794532.906    -2152908.061 9  -1672078.44147  20794532.465    20794537.5444
  23623271.306     8033983.306 8   6248843.84445  23623270.670    23623279.4014
 00  9 20 16 17 30.0000000  0  8 29 31 03 15 23 09 21 17
  20734349.866    -6667190.288 9  -5182740.36647  20734349.818    20734354.3464
  22383919.736    -4873437.072 8  -3785318.69146  22383919.265    22383924.5024
  21760054.122     1959601.350 8   1553656.27947  21760053.908    21760059.4294
  19837723.583    -3775400.612 9  -2930928.67248  19837722.990    19837728.0424
  22337540.612     5089458.126 8   3958528.93647  22337540.153    22337546.2994
  23534140.447    -2108003.351 8  -1631287.97446  23534140.314    23534147.4704
  20792733.377    -2162364.412 9  -1679447.04647  20792732.951    20792738.0354
  23641534.133     8129954.956 7   6323626.81445  23641533.467    23641542.3814
 00  9 20 16 18  0.0000000  0  8 29 31 03 15 23 09 21 17
  20726080.645    -6710645.570 9  -5216601.62147  20726080.583    20726085.0894
  22380069.473    -4893670.338 8  -3801084.88246  22380069.031    22380074.2554
  21769280.241     2008084.842 9   1591435.57547  21769280.071    21769285.5884
  19834489.781    -3792394.321 9  -2944170.53148  19834489.199    19834494.2784
  22348755.342     5148391.480 8   4004450.96847  22348754.889    22348760.9924
  23535592.996    -2100370.013 8  -1625339.93745  23535592.958    23535600.0654
  20790975.534    -2171602.006 9  -1686645.18747  20790975.137    20790980.2224
  23659840.092     8226153.583 7   6398586.63545  23659839.424    23659848.5154
 00  9 20 16 18 30.0000000  0  8 29 31 03 15 23 09 21 17
  20717904.190    -6753613.179 9  -5250082.86647  20717904.143    20717908.5794
  22376331.151    -4913315.472 8  -3816392.79046  22376330.719    22376335.9104
  21778600.673     2057063.612 8   1629600.80947  21778600.468    21778605.9724
  19831340.978    -3808941.415 9  -2957064.37448  19831340.379    19831345.4634
  22359989.599     5207427.700 8   4050453.15847  22359989.141    22359995.2764
  23537156.938    -2092151.613 8  -1618936.00245  23537156.876    23537163.9614
  20789259.127    -2180621.947 9  -1693673.72747  20789258.726    20789263.7964
  23678188.980     8322577.104 8   6473721.67945  23678188.450    23678197.4384
 00  9 20 16 19  0.0000000  0  8 29 31 03 15 23 09 21 17
  20709820.749    -6796091.851 9  -5283183.11547  20709820.709    20709825.1324
  22372704.850    -4932371.480 8  -3831241.63346  22372704.449    22372709.7244
  21788015.033     2106536.253 8   1668150.87947  21788014.841    21788020.3354
  19828277.555    -3825039.914 9  -2969608.66648  19828276.959    19828282.0314
  22371243.441     5266566.631 8   4096535.39046  22371242.991    22371249.0874
  23538832.267    -2083347.463 8  -1612075.61745  23538832.106    23538839.4614
  20787584.233    -2189423.650 9  -1700532.21047  20787583.815    20787588.9334
  23696580.853     8419224.806 7   6549031.41545  23696580.159    23696589.1004
 00  9 20 16 19 30.0000000  0  8 29 31 03 15 23 09 21 17
  20701830.532    -6838080.879 9  -5315901.82947  20701830.461    20701834.8584
  22369190.768    -4950838.026 8  -3845631.15846  22369190.362    22369195.6784
  21797522.961     2156500.536 8   1707084.03547  21797522.789    21797528.3084
  19825299.781    -3840688.495 9  -2981802.37448  19825299.181    19825304.2404
  22382516.712     5325807.805 8   4142697.28446  22382516.276    22382522.3104
  23540619.138    -2073957.475 8  -1604758.74345  23540618.969    23540626.2984
  20785950.815    -2198007.260 9  -1707220.75247  20785950.416    20785955.5314
  23715014.621     8516095.750 8   6624515.16245  23715014.097    23715023.0554
 00  9 20 16 20  0.0000000  0  8 29 31 03 15 23 09 21 17
  20693933.525    -6879579.686 9  -5348238.54947  20693933.488    20693937.9264
  22365788.925    -4968714.702 8  -3859561.03846  22365788.457    22365793.9204
  21807124.174     2206954.749 8   1746398.96047  21807123.922    21807129.4804
  19822407.892    -3855885.729 9  -2993644.38348  19822407.283    19822412.3524
  22393809.425     5385151.021 8   4188938.69546  22393808.989    22393815.0134
  23542517.607    -2063981.061 8  -1596984.92345  23542517.355    23542524.6304
  20784359.018    -2206372.281 9  -1713738.96447  20784358.638    20784363.7534
  23733490.885     8613188.940 7   6700172.06045  23733490.377    23733499.4784
 00  9 20 16 20 30.0000000  0  8 29 31 03 15 23 09 21 17
  20686129.922    -6920587.496 9  -5380192.68447  20686129.910    20686134.3914
  22362499.407    -4986000.702 8  -3873030.66146  22362498.964    22362504.5764
  21816818.054     2257896.518 8   1786093.80047  21816817.811    21816823.3964
  19819602.108    -3870630.464 9  -3005133.80348  19819601.505    19819606.5594
  22405121.480     5444595.688 8   4235259.15646  22405121.017    22405127.0234
  23544527.575    -2053418.151 8  -1588754.07845  23544527.442    23544534.7984
  20782808.721    -2214519.513 9  -1720087.46947  20782808.291    20782813.4164
  23752009.447     8710503.193 8   6776001.15745  23752008.936    23752017.6774
 00  9 20 16 21  0.0000000  0  8 29 31 03 15 23 09 21 17
  20678419.893    -6961103.949 9  -5411763.94447  20678419.898    20678424.3764
  22359322.341    -5002695.905 8  -3886039.92146  22359321.934    22359327.6434
  21826604.334     2309323.714 8   1826166.89747  21826604.126    21826609.6754
  19816882.712    -3884921.159 9  -3016269.41948  19816882.098    19816887.1604
  22416452.624     5504141.087 8   4281658.10946  22416452.163    22416458.2014
  23546649.325    -2042268.478 7  -1580066.02945  23546649.145    23546656.4834
  20781299.663    -2222449.396 9  -1726266.61447  20781299.256    20781304.3914
  23770569.610     8808037.046 8   6852001.42645  23770569.067    23770577.6994
 00  9 20 16 21 30.0000000  0  8 29 31 03 15 23 09 21 17
  20670803.475    -7001128.641 9  -5442952.00948  20670803.461    20670807.9444
  22356257.790    -5018800.168 8  -3898588.70946  22356257.385    22356263.1434
  21836482.552     2361233.883 8   1866616.33047  21836482.338    21836487.8914
  19814249.834    -3898756.841 9  -3027050.48148  19814249.221    19814254.2884
  22427802.872     5563786.630 8   4328135.10346  22427802.405    22427808.4434
  23548882.548    -2030532.549 7  -1570921.12745  23548882.398    23548889.7924
  20779831.927    -2230162.408 9  -1732276.76247  20779831.552    20779836.6724
  23789171.308     8905789.205 8   6928171.82145  23789170.739    23789179.6724
 00  9 20 16 22  0.0000000  0  8 29 31 03 15 23 09 21 17
  20663280.693    -7040660.996 9  -5473756.43548  20663280.688    20663285.1854
  22353305.771    -5034313.060 8  -3910676.69546  22353305.369    22353311.1704
  21846452.350     2413624.982 8   1907440.51847  21846452.116    21846457.6814
  19811703.799    -3912136.385 9  -3037476.11048  19811703.183    19811708.2604
  22439171.991     5623531.856 8   4374689.76846  22439171.575    22439177.5904
  23551227.458    -2018210.114 7  -1561319.24245  23551227.363    23551234.6334
  20778405.540    -2237658.343 9  -1738117.76447  20778405.159    20778410.2424
  23807814.503     9003758.495 8   7004511.37245  23807813.892    23807823.0224
 00  9 20 16 22 30.0000000  0  8 29 31 03 15 23 09 21 17
  20655851.754    -7079700.356 9  -5504176.71348  20655851.731    20655856.2364
  22350466.314    -5049234.420 8  -3922303.74746  22350465.944    22350471.7424
  21856513.223     2466495.115 8   1948637.97547  21856513.011    21856518.6054
  19809244.795    -3925058.363 9  -3047545.19748  19809244.196    19809249.2674
  22450560.084     5683376.491 8   4421321.89346  22450559.661    22450565.7104
  23553683.902    -2005301.080 7  -1551260.25345  23553683.904    23553691.2864
  20777020.438    -2244937.194 9  -1743789.60347  20777020.028    20777025.1274
  23826498.745     9101943.887 7   7081019.29145  23826498.238    23826507.1724
 00  9 20 16 23  0.0000000  0  8 29 31 03 15 23 09 21 17
  20648516.663    -7118246.532 9  -5534212.69347  20648516.629    20648521.1334
  22347739.454    -5063564.508 8  -3933470.06146  22347739.032    22347744.7694
  21866664.678     2519841.345 8   1990206.40847  21866664.503    21866670.1224
  19806873.075    -3937521.811 9  -3057256.98648  19806872.478    19806877.5554
  22461966.938     5743319.497 8   4468030.67146  22461966.494    22461972.5714
  23556251.774    -1991805.827 7  -1540744.47945  23556251.757    23556259.2594
  20775676.484    -2251999.586 9  -1749292.78247  20775676.119    20775681.2234
  23845223.568     9200343.859 7   7157694.45345  23845223.036    23845231.4044
 00  9 20 16 23 30.0000000  0  8 29 31 03 15 23 09 21 17
  20641275.756    -7156297.703 9  -5563862.95247  20641275.722    20641280.2334
  22345125.538    -5077301.021 8  -3944173.85446  22345125.102    22345130.7864
  21876906.626     2573663.150 8   2032145.42047  21876906.463    21876912.1134
  19804589.216    -3949523.649 9  -3066609.08448  19804588.628    19804593.6704
  22473392.693     5803362.009 8   4514816.98746  22473392.265    22473398.3344
  23558931.751    -1977722.533 7  -1529770.50245  23558931.740    23558939.4314
  20774374.043    -2258844.053 9  -1754626.15347  20774373.700    20774378.8034
  23863989.422     9298958.630 8   7234536.99045  23863988.964    23863997.2714
 00  9 20 16 24  0.0000000  0  8 29 31 03 15 23 09 21 17
  20634128.921    -7193854.812 9  -5593128.23148  20634128.860    20634133.3694
  22342624.227    -5090445.635 8  -3954416.41946  22342623.763    22342629.4514
  21887238.348     2627956.567 8   2074451.92847  21887238.220    21887243.8954
  19802393.061    -3961064.510 9  -3075601.97348  19802392.459    19802397.5164
  22484836.981     5863501.894 8   4561679.17546  22484836.532    22484842.6014
  23561723.282    -1963052.809 7  -1518339.55845  23561723.217    23561731.0074
  20773112.693    -2265472.422 9  -1759791.12747  20773112.354    20773117.4874
  23882795.850     9397785.395 7   7311544.69745  23882795.174    23882803.9684
 00  9 20 16 24 30.0000000  0  8 29 31 03 15 23 09 21 17
  20627076.167    -7230917.237 9  -5622008.03648  20627076.142    20627080.6314
  22340235.742    -5102997.538 8  -3964197.13846  22340235.227    22340240.9144
  21897659.473     2682719.606 8   2117124.37947  21897659.306    21897664.9804
  19800284.897    -3972142.970 9  -3084234.54848  19800284.328    19800289.3974
  22496299.775     5923739.144 8   4608617.23646  22496299.306    22496305.4094
  23564626.575    -1947796.821 7  -1506451.78945  23564626.309    23564634.0694
  20771892.501    -2271884.612 9  -1764787.65347  20771892.128    20771897.3384
  23901642.272     9496823.234 8   7388716.88245  23901641.717    23901650.5344
 00  9 20 16 25  0.0000000  0  8 29 31 03 15 23 09 21 17
  20620117.730    -7267484.251 9  -5650501.81548  20620117.700    20620122.1844
  22337960.003    -5114956.571 8  -3973515.88446  22337959.552    22337965.1854
  21908169.515     2737950.084 8   2160161.05647  21908169.320    21908174.9604
  19798264.979    -3982757.823 9  -3092505.87648  19798264.417    19798269.4984
  22507781.056     5984073.412 8   4655630.89246  22507780.588    22507786.7264
  23567641.475    -1931954.191 7  -1494106.89645  23567641.082    23567648.8204
  20770713.456    -2278080.368 9  -1769615.53347  20770713.134    20770718.3474
  23920528.795     9596070.973 7   7466052.61845  23920528.302    23920536.7724
 00  9 20 16 25 30.0000000  0  8 29 31 03 15 23 09 21 17
  20613253.539    -7303555.743 9  -5678609.47448  20613253.541    20613257.9994
  22335797.132    -5126323.008 8  -3982372.85146  22335796.640    22335802.1434
  21918768.045     2793645.650 8   2203560.14447  21918767.862    21918773.5244
  19796333.504    -3992907.915 9  -3100415.05048  19796332.934    19796337.9894
  22519280.803     6044504.228 8   4702719.78246  22519280.287    22519286.4174
  23570767.691    -1915525.346 7  -1481305.20145  23570767.447    23570775.0084
  20769575.558    -2284060.125 9  -1774275.10147  20769575.212    20769580.4824
  23939454.847     9695527.192 7   7543550.79745  23939454.310    23939462.6324
 00  9 20 16 26  0.0000000  0  8 29 31 03 15 23 09 21 17
  20606483.790    -7339130.804 9  -5706330.31148  20606483.788    20606488.2724
  22333747.050    -5137096.123 8  -3990767.50546  22333746.629    22333752.0484
  21929454.710     2849804.229 8   2247320.01147  21929454.524    21929460.1984
  19794490.783    -4002591.626 9  -3107960.81448  19794490.199    19794495.2584
  22530798.775     6105031.388 8   4749883.72546  22530798.303    22530804.4754
  23574005.601    -1898510.171 7  -1468046.65045  23574005.465    23574012.9324
  20768478.829    -2289823.615 9  -1778766.15447  20768478.471    20768483.7804
  23958420.368     9795191.080 7   7621210.83245  23958419.741    23958428.1844
 00  9 20 16 26 30.0000000  0  8 29 31 03 15 23 09 21 17
  20599808.716    -7374208.582 9  -5733663.65648  20599808.739    20599813.1874
  22331809.975    -5147275.622 8  -3998699.60946  22331809.550    22331815.0214
  21940229.198     2906424.390 8   2291439.55247  21940229.025    21940234.7194
  19792737.180    -4011806.885 9  -3115141.54748  19792736.594    19792741.6854
  22542335.139     6165655.103 8   4797122.92246  22542334.626    22542340.8364
  23577355.175    -1880907.904 7  -1454330.59545  23577355.067    23577362.6294
  20767423.381    -2295369.996 9  -1783088.02647  20767423.022    20767428.3684
  23977425.130     9895062.124 7   7699032.26645  23977424.604    23977433.4414
 00  9 20 16 27  0.0000000  0  8 29 31 03 15 23 09 21 17
  20593228.287    -7408789.172 9  -5760609.57048  20593228.285    20593232.7094
  22329985.847    -5156861.586 8  -4006169.20746  22329985.453    22329990.8754
  21951091.012     2963503.273 8   2335916.55447  21951090.846    21951096.5504
  19791072.775    -4020553.371 9  -3121957.00248  19791072.196    19791077.3024
  22553889.613     6226374.456 8   4844436.62746  22553889.137    22553895.4364
  23580816.402    -1862719.279 7  -1440157.66445  23580816.341    23580823.8624
  20766408.999    -2300700.453 9  -1787241.64447  20766408.654    20766414.0014
  23996469.281     9995138.507 7   7777013.73145  23996468.680    23996477.7574
 00  9 20 16 27 30.0000000  0  8 29 31 03 15 23 09 21 17
  20586742.467    -7442872.599 9  -5787168.08648  20586742.455    20586746.8384
  22328274.577    -5165854.377 8  -4013176.60246  22328274.247    22328279.5544
  21962039.526     3021038.017 8   2380748.76747  21962039.357    21962045.1114
  19789497.754    -4028830.222 9  -3128406.51548  19789497.156    19789502.2924
  22565462.105     6287188.428 8   4891824.06946  22565461.666    22565467.9694
  23584388.883    -1843945.125 7  -1425528.46445  23584388.828    23584396.3594
  20765435.679    -2305815.407 9  -1791227.34247  20765435.328    20765440.7004
  24015552.082    10095418.280 7   7855153.59845  24015551.230    24015560.3324
 00  9 20 16 28  0.0000000  0  8 29 31 03 15 23 09 21 17
  20580351.376    -7476458.302 9  -5813338.76848  20580351.339    20580355.6684
  22326676.248    -5174253.856 8  -4019721.68446  22326675.894    22326681.1224
  21973074.428     3079026.569 8   2425934.59547  21973074.257    21973080.0674
  19788012.383    -4036635.916 9  -3134488.89448  19788011.804    19788016.9134
  22577052.716     6348097.110 8   4939285.30546  22577052.252    22577058.6184
  23588072.954    -1824585.272 7  -1410442.87145  23588072.927    23588080.4624
  20764503.400    -2310714.726 9  -1795045.01447  20764503.054    20764508.4214
  24034673.436    10195900.719 8   7933451.40845  24034672.702    24034681.5274
 00  9 20 16 28 30.0000000  0  8 29 31 03 15 23 09 21 17
  20574055.018    -7509545.933 9  -5839121.33648  20574054.998    20574059.3064
  22325190.763    -5182060.046 8  -4025804.44546  22325190.412    22325195.6964
  21984195.136     3137466.436 8   2471472.09647  21984194.988    21984200.8514
  19786616.845    -4043969.596 9  -3140203.46548  19786616.251    19786621.3584
  22588661.213     6409099.952 8   4986819.92346  22588660.775    22588667.1004
  23591868.451    -1804640.009 7  -1394901.15045  23591868.389    23591875.9274
  20763612.215    -2315398.371 9  -1798694.62247  20763611.801    20763617.1774
  24053833.108    10296584.521 7   8011906.14945  24053832.369    24053841.5094
 00  9 20 16 29  0.0000000  0  8 29 31 03 15 23 09 21 17
  20567853.570    -7542134.829 9  -5864515.28948  20567853.541    20567857.8574
  22323818.344    -5189272.548 8  -4031424.60446  22323817.923    22323823.2604
  21995401.421     3196355.703 8   2517359.77447  21995401.290    21995407.2104
  19785311.490    -4050829.422 9  -3145548.80548  19785310.874    19785316.0034
  22600287.686     6470197.169 8   5034428.07246  22600287.257    22600293.5874
  23595775.338    -1784109.262 7  -1378903.18145  23595775.264    23595782.8044
  20762762.045    -2319866.143 9  -1802176.02647  20762761.649    20762767.0524
  24073030.777    10397468.892 7   8090517.17645  24073030.088    24073039.5954
 00  9 20 16 29 30.0000000  0  8 29 31 03 15 23 09 21 17
  20561746.890    -7574225.501 9  -5889521.01648  20561746.839    20561751.2524
  22322558.721    -5195891.971 8  -4036582.62046  22322558.324    22322563.6274
  22006692.601     3255690.995 8   2563595.00747  22006692.464    22006698.4014
  19784096.272    -4057215.182 9  -3150524.74048  19784095.695    19784100.8544
  22611931.882     6531387.312 8   5082108.62746  22611931.445    22611937.7304
  23599793.509    -1762994.078 8  -1362449.83245  23599793.453    23599800.9414
  20761952.718    -2324118.962 9  -1805489.93147  20761952.349    20761957.7704
  24092266.140    10498551.487 7   8169282.63745  24092265.462    24092275.2814
 00  9 20 16 30  0.0000000  0  8 29 31 03 15 23 09 21 17
  20555735.132    -7605817.201 9  -5914137.93347  20555735.091    20555739.5614
  22321412.108    -5201918.103 8  -4041278.33546  22321411.638    22321416.8924
  22018068.384     3315470.706 8   2610176.54247  22018068.208    22018074.0754
  19782971.641    -4063125.306 9  -3155130.04748  19782971.054    19782976.2094
  22623593.796     6592670.686 8   5129861.84646  22623593.322    22623599.6604
  23603922.933    -1741294.361 8  -1345540.99545  23603922.814    23603930.2844
  20761184.495    -2328156.169 9  -1808635.82347  20761184.121    20761189.5654
  24111539.244    10599831.763 8   8248202.13745  24111538.519    24111548.1344
 00  9 20 16 30 30.0000000  0  8 29 31 03 15 23 09 21 17
  20549818.244    -7636910.333 9  -5938366.35548  20549818.227    20549822.7324
  22320378.101    -5207351.922 8  -4045512.50446  22320377.664    22320382.8654
  22029528.175     3375691.782 8   2657101.98847  22029527.995    22029533.7834
  19781937.658    -4068559.346 9  -3159364.38048  19781937.070    19781942.2064
  22635273.170     6654046.149 8   5177686.80546  22635272.786    22635279.1014
  23608163.507    -1719010.971 7  -1328177.35245  23608163.339    23608170.7144
  20760457.074    -2331978.746 9  -1811614.47847  20760456.705    20760462.1544
  24130849.619    10701307.573 7   8327273.96745  24130848.831    24130858.3154
 00  9 20 16 31  0.0000000  0  8 29 31 03 15 23 09 21 17
  20543996.585    -7667503.604 9  -5962205.27048  20543996.557    20544001.0264
  22319457.153    -5212192.213 8  -4049284.18546  22319456.682    22319461.8834
  22041071.601     3436352.558 8   2704370.06947  22041071.404    22041077.1654
  19780994.698    -4073514.941 9  -3163225.89648  19780994.093    19780999.2374
  22646970.276     6715514.563 8   5225584.20046  22646969.849    22646976.2214
  23612515.086    -1696143.068 8  -1310358.24545  23612514.965    23612522.3944
  20759770.736    -2335585.717 9  -1814425.12047  20759770.350    20759775.7534
  24150196.877    10802978.896 7   8406498.19645  24150196.177    24150205.9344
 00  9 20 16 31 30.0000000  0  8 29 31 03 15 23 09 21 17
  20538269.979    -7697597.102 9  -5985654.75348  20538269.972    20538274.4174
  22318648.923    -5216439.748 8  -4052593.98446  22318648.451    22318653.6224
  22052698.102     3497450.272 8   2751978.60447  22052697.955    22052703.7054
  19780142.807    -4077991.527 9  -3166714.16648  19780142.203    19780147.3904
  22658684.834     6777074.889 8   5273553.21346  22658684.449    22658690.8074
  23616977.946    -1672691.774 8  -1292084.55045  23616977.716    23616985.0474
  20759125.433    -2338977.256 9  -1817067.90147  20759125.007    20759130.3914
  24169581.107    10904843.795 7   8485873.27245  24169580.288    24169590.4554
 00  9 20 16 32  0.0000000  0  8 29 31 03 15 23 09 21 17
  20532638.544    -7727190.499 9  -6008714.54048  20532638.560    20532642.9654
  22317953.494    -5220094.306 8  -4055441.71946  22317952.993    22317958.2654
  22064407.404     3558982.633 8   2799925.83747  22064407.259    22064413.0214
  19779382.322    -4081987.719 9  -3169828.09648  19779381.749    19779386.9474
  22670417.037     6838727.145 8   5321593.85446  22670416.547    22670422.9664
  23621551.612    -1648657.286 8  -1273356.44045  23621551.361    23621558.7524
  20758521.030    -2342153.349 9  -1819542.79847  20758520.635    20758526.0294
  24189001.577    11006901.234 7   8565398.37145  24189001.053    24189011.6464
 00  9 20 16 32 30.0000000  0  8 29 31 03 15 23 09 21 17
  20527102.326    -7756283.755 9  -6031384.61648  20527102.323    20527106.7134
  22317370.773    -5223156.239 8  -4057827.67046  22317370.296    22317375.5994
  22076198.883     3620946.959 8   2848209.66547  22076198.696    22076204.5484
  19778713.462    -4085502.690 9  -3172567.05648  19778712.892    19778718.0774
  22682166.507     6900471.049 8   5369705.91146  22682166.043    22682172.5564
  23626236.149    -1624040.053 8  -1254174.22845  23626235.927    23626243.3134
  20757957.572    -2345114.240 9  -1821850.00647  20757957.225    20757962.6054
  24208458.870    11109149.876 7   8645072.48945  24208458.521    24208468.9384
 00  9 20 16 33  0.0000000  0  8 29 31 03 15 23 09 21 17
  20521661.149    -7784877.229 9  -6053665.24448  20521661.130    20521665.5854
  22316900.889    -5225626.089 8  -4059752.24346  22316900.341    22316905.6594
  22088072.058     3683340.557 8   2896827.99347  22088071.876    22088077.6814
  19778136.318    -4088535.795 9  -3174930.53048  19778135.712    19778140.9174
  22693933.322     6962305.729 8   5417888.70946  22693932.867    22693939.3764
  23631031.507    -1598841.092 8  -1234538.70845  23631031.208    23631038.6354
  20757434.979    -2347860.962 9  -1823990.32347  20757434.567    20757439.9414
  24227952.793    11211587.980 7   8724894.15745  24227952.406    24227962.3424
 00  9 20 16 33 30.0000000  0  8 29 31 03 15 23 09 21 17
  20516315.137    -7812970.623 9  -6075556.21447  20516315.111    20516319.6254
  22316543.578    -5227504.152 8  -4061215.70746  22316543.029    22316548.3054
  22100026.438     3746160.854 8   2945778.81647  22100026.220    22100032.0654
  19777651.092    -4091085.822 9  -3176917.58748  19777650.488    19777655.6514
  22705717.362     7024230.921 8   5466142.03946  22705716.859    22705723.3884
  23635937.249    -1573060.760 7  -1214450.20145  23635937.080    23635944.5424
  20756953.250    -2350392.539 9  -1825963.00547  20756952.871    20756958.2354
  24247482.444    11314214.158 7   8804862.36645  24247482.066    24247491.5004
 00  9 20 16 34  0.0000000  0  8 29 31 03 15 23 09 21 17
  20511064.247    -7840563.987 9  -6097057.54348  20511064.236    20511068.8024
  22316298.754    -5228790.593 8  -4062218.15546  22316298.228    22316303.4394
  22112061.441     3809405.246 8   2995060.10146  22112061.219    22112067.1314
  19777257.891    -4093152.186 9  -3178527.75848  19777257.310    19777262.4424
  22717518.567     7086246.040 8   5514465.43646  22717518.049    22717524.5224
  23640953.480    -1546699.701 8  -1193909.17445  23640953.308    23640960.7724
  20756512.390    -2352709.478 9  -1827768.43447  20756511.996    20756517.3554
  24267047.611    11417026.985 7   8884976.09545  24267047.052    24267056.4614
 00  9 20 16 34 30.0000000  0  8 29 31 03 15 23 09 21 17
  20505908.735    -7867656.471 9  -6118168.57448  20505908.725    20505913.2684
  22316166.446    -5229485.436 8  -4062759.62246  22316165.990    22316171.3134
  22124176.806     3873071.929 8   3044670.43346  22124176.601    22124182.5104
  19776957.026    -4094733.258 9  -3179759.78048  19776956.448    19776961.5924
  22729336.907     7148351.550 8   5562859.27046  22729336.408    22729342.8544
  23646080.262    -1519757.951 7  -1172915.66445  23646080.110    23646087.6504
  20756112.389    -2354811.756 9  -1829406.58847  20756111.973    20756117.3234
  24286647.853    11520025.967 7   8965234.89245  24286647.453    24286657.0464
 00  9 20 16 35  0.0000000  0  8 29 31 03 15 23 09 21 17
  20500848.488    -7894248.170 9  -6138889.38348  20500848.508    20500853.0384
  22316146.654    -5229589.146 8  -4062840.45846  22316146.253    22316151.6224
  22136372.003     3937157.925 8   3094607.49646  22136371.809    22136377.7294
  19776748.724    -4095827.887 9  -3180612.76048  19776748.142    19776753.3194
  22741172.349     7210546.887 8   5611323.09246  22741171.854    22741178.3184
  23651317.247    -1492236.248 8  -1151470.23845  23651317.174    23651324.8904
  20755753.229    -2356699.088 9  -1830877.25847  20755752.821    20755758.2064
  24306283.311    11623209.440 7   9045637.37345  24306282.879    24306292.0844
 00  9 20 16 35 30.0000000  0  8 29 31 03 15 23 09 21 17
  20495883.549    -7920339.095 9  -6159219.97448  20495883.575    20495888.0804
  22316239.307    -5229102.140 8  -4062460.99746  22316238.899    22316244.3614
  22148646.587     4001660.897 8   3144869.48546  22148646.421    22148652.2574
  19776633.168    -4096435.189 9  -3181086.00348  19776632.592    19776637.7964
  22753024.670     7272831.846 8   5659856.75046  22753024.230    22753030.8114
  23656664.710    -1464135.106 8  -1129573.31945  23656664.572    23656672.3404
  20755434.926    -2358371.723 9  -1832180.63447  20755434.542    20755439.9604
  24325953.695    11726576.131 7   9126182.63245  24325953.233    24325962.1314
 00  9 20 16 36  0.0000000  0  8 29 31 03 15 23 09 21 17
  20491013.980    -7945929.041 9  -6179160.18948  20491014.016    20491018.4714
  22316444.251    -5228024.610 8  -4061621.37946  22316443.898    22316449.4534
  22161000.026     4066578.442 8   3195454.52146  22160999.879    22161005.7244
  19776610.578    -4096553.992 9  -3181178.59448  19776609.998    19776615.2394
  22764894.134     7335206.279 8   5708460.13346  22764893.732    22764900.2934
  23662122.410    -1435455.023 8  -1107225.25245  23662122.264    23662130.0764
  20755157.567    -2359829.322 9  -1833316.44247  20755157.194    20755162.6054
  24345658.397    11830124.873 7   9206869.78945  24345657.774    24345667.0284
 00  9 20 16 36 30.0000000  0  9 29 31 03 11 15 23 09 21 17
  20486239.053    -7971021.383 9  -6198712.66648  20486239.082    20486243.5364
  22316760.895    -5226360.473 8  -4060324.67546  22316760.479    22316766.1494
  22173431.213     4131904.327 8   3246357.73746  22173431.023    22173436.9344
  24556139.572    -3904071.206 7  -2739806.32345  24556138.839    24556145.5814
  19776680.448    -4096186.931 9  -3180892.59348  19776679.879    19776685.1194
  22776779.872     7397666.188 8   5757130.12246  22776779.454    22776786.0824
  23667689.713    -1406200.174 7  -1084429.31645  23667689.429    23667697.0834
  20754920.450    -2361075.491 9  -1834287.50347  20754920.058    20754925.5114
  24365396.246    11933850.661 7   9287694.95445  24365395.708    24365405.5274
 00  9 20 16 37  0.0000000  0  9 29 31 03 11 15 23 09 21 17
  20481559.360    -7995613.427 9  -6217875.30548  20481559.372    20481563.8274
  22317189.659    -5224106.938 8  -4058568.69846  22317189.272    22317195.0424
  22185940.142     4197638.776 8   3297579.32846  22185939.933    22185945.8814
  24536671.586    -4006375.606 8  -2819524.02145  24536670.846    24536677.5944
  19776843.482    -4095330.192 9  -3180225.02448  19776842.907    19776848.1714
  22788682.404     7460214.049 8   5805868.64546  22788682.013    22788688.5964
  23673366.590    -1376368.427 7  -1061183.85345  23673366.419    23673373.8544
  20754724.075    -2362107.309 9  -1835091.53847  20754723.734    20754729.1634
  24385168.605    12037755.085 7   9368659.21345  24385168.268    24385178.3804
 00  9 20 16 37 30.0000000  0  9 29 31 03 11 15 23 09 21 17
  20476975.147    -8019703.577 9  -6236646.85748  20476975.185    20476979.6404
  22317730.786    -5221263.457 8  -4056353.02746  22317730.386    22317736.1494
  22198526.484     4263780.651 8   3349118.38346  22198526.310    22198532.3394
  24517210.292    -4108645.409 8  -2899214.78245  24517209.749    24517216.3814
  19777100.167    -4093981.519 9  -3179174.13048  19777099.589    19777104.8714
  22800601.985     7522851.168 8   5854676.71746  22800601.562    22800608.0904
  23679153.490    -1345958.787 8  -1037488.10045  23679153.332    23679160.7614
  20754568.836    -2362923.538 9  -1835727.58247  20754568.461    20754573.8744
  24404975.290    12141838.089 7   9449762.60245  24404974.957    24404984.7744
 00  9 20 16 38  0.0000000  0  9 29 31 03 11 15 23 09 21 17
  20472486.395    -8043292.210 9  -6255027.61848  20472486.433    20472490.9324
  22318384.141    -5217830.706 8  -4053678.18546  22318383.674    22318389.3774
  22211189.847     4330327.060 8   3400972.65546  22211189.693    22211195.8334
  24497755.985    -4210879.137 8  -2978877.40845  24497755.457    24497761.9744
  19777450.566    -4092140.411 9  -3177739.51648  19777449.966    19777455.2604
  22812538.345     7585577.013 8   5903553.93446  22812538.028    22812544.4724
  23685050.127    -1314972.555 7  -1013343.03445  23685049.901    23685057.3154
  20754454.509    -2363524.393 9  -1836195.80047  20754454.100    20754459.5144
  24424815.590    12246098.146 7   9531003.99645  24424815.262    24424824.7024
 00  9 20 16 38 30.0000000  0  9 29 31 03 11 15 23 09 21 17
  20468092.955    -8066379.838 9  -6273017.98448  20468093.014    20468097.5314
  22319149.368    -5213809.501 8  -4050544.80346  22319148.895    22319154.5584
  22223929.593     4397274.729 8   3453139.59546  22223929.414    22223935.6074
  24478308.848    -4313075.369 8  -3058510.80945  24478308.200    24478314.6594
  19777894.742    -4089806.387 9  -3175920.81248  19777894.149    19777899.4294
  22824491.589     7648391.013 8   5952499.83246  22824491.204    22824497.6094
  23691056.003    -1283410.810 7   -988749.55445  23691056.003    23691063.4534
  20754381.095    -2363910.521 9  -1836496.70247  20754380.671    20754386.0654
  24444689.105    12350533.313 8   9612381.87345  24444688.773    24444698.0064
 00  9 20 16 39  0.0000000  0  8 29 31 03 11 15 23 09 21
  20463795.081    -8088965.495 9  -6290617.20248  20463795.119    20463799.6524
  22320026.628    -5209199.372 8  -4046952.52146  22320026.197    22320031.8814
  22236745.491     4464622.321 8   3505618.16146  22236745.321    22236751.4524
  24458869.037    -4415231.553 7  -3138112.97745  24458868.547    24458874.9994
  19778433.089    -4086977.391 9  -3173716.41648  19778432.506    19778437.7514
  22836461.643     7711293.686 8   6001514.82246  22836461.227    22836467.6924
  23697171.605    -1251273.303 7   -963707.38545  23697171.669    23697178.9004
  20754348.677    -2364080.868 9  -1836629.46147  20754348.264    20754353.6224
 00  9 20 16 39 30.0000000  0  8 29 31 03 11 15 23 09 21
  20459593.309    -8111046.164 9  -6307822.92548  20459593.348    20459597.8524
  22321016.529    -5203997.815 8  -4042899.38846  22321016.082    22321021.7764
  22249637.621     4532370.243 8   3558408.68146  22249637.466    22249643.5464
  24439437.761    -4517342.730 8  -3217680.12445  24439437.320    24439443.8964
  19779066.358    -4083649.567 9  -3171123.32448  19779065.778    19779071.0154
  22848449.043     7774287.936 8   6050601.18146  22848448.608    22848455.1824
  23703397.308    -1218557.969 7   -938214.98645  23703397.299    23703404.5874
  20754357.949    -2364032.098 9  -1836591.48147  20754357.547    20754362.9144
 00  9 20 16 40  0.0000000  0  8 29 31 03 11 15 23 09 21
  20455486.277    -8132628.878 9  -6324640.63148  20455486.321    20455490.7814
  22322117.510    -5198212.151 8  -4038391.09946  22322117.100    22322122.8134
  22262604.088     4600508.782 8   3611503.56946  22262603.880    22262609.9814
  24420014.223    -4619413.969 8  -3297216.08545  24420013.647    24420020.2934
  19779793.471    -4079828.771 9  -3168146.09548  19779792.874    19779798.1274
  22860452.583     7837366.645 8   6099753.34946  22860452.139    22860458.7814
  23709731.450    -1185272.339 7   -912278.18145  23709731.375    23709738.7124
  20754407.661    -2363770.608 9  -1836387.74647  20754407.293    20754412.6854
 00  9 20 16 40 30.0000000  0  8 29 31 03 11 15 23 09 21
  20451474.268    -8153712.363 9  -6341069.32648  20451474.279    20451478.7264
  22323329.804    -5191841.603 8  -4033427.06146  22323329.390    22323335.1204
  22275644.555     4669036.793 8   3664901.94546  22275644.322    22275650.5194
  24400598.731    -4721442.344 7  -3376718.74245  24400598.218    24400604.7164
  19780614.726    -4075513.070 9  -3164783.22948  19780614.126    19780619.3714
  22872472.296     7900530.764 8   6148972.05546  22872471.877    22872478.6464
  23716174.011    -1151415.902 7   -885896.65045  23716173.984    23716181.4284
  20754497.916    -2363296.305 9  -1836018.18147  20754497.540    20754502.9964
 00  9 20 16 41  0.0000000  0  8 29 31 03 11 15 23 09 21
  20447557.337    -8174296.178 9  -6357108.66848  20447557.331    20447561.7554
  22324653.314    -5184886.603 8  -4028007.61146  22324652.884    22324658.6454
  22288758.765     4737952.154 8   3718602.14946  22288758.564    22288764.8064
  24381191.682    -4823425.324 7  -3456185.96244  24381191.363    24381197.6734
  19781530.456    -4070700.956 9  -3161033.54748  19781529.862    19781535.1014
  22884508.423     7963780.529 8   6198257.52146  22884507.955    22884514.6954
  23722725.295    -1116989.171 7   -859070.66745  23722725.229    23722732.7374
  20754628.846    -2362608.271 9  -1835482.07547  20754628.480    20754633.9494
 00  9 20 16 41 30.0000000  0  8 29 31 03 11 15 23 09 21
  20443735.436    -8194380.358 9  -6372758.68548  20443735.417    20443739.8464
  22326087.958    -5177347.738 8  -4022133.20046  22326087.561    22326093.2964
  22301946.069     4807252.122 8   3772602.04646  22301945.904    22301952.1854
  24361793.927    -4925361.054 7  -3535616.40244  24361793.682    24361799.9414
  19782540.798    -4065391.600 9  -3156896.40748  19782540.212    19782545.4364
  22896560.831     8027115.825 8   6247609.61346  22896560.391    22896567.1044
  23729384.932    -1081992.941 7   -831800.97345  23729384.919    23729392.4434
  20754800.636    -2361705.775 9  -1834778.85547  20754800.251    20754805.7484
 00  9 20 16 42  0.0000000  0  8 29 31 03 11 15 23 09 21
  20440008.649    -8213964.603 9  -6388019.14548  20440008.666    20440013.1104
  22327633.712    -5169225.209 8  -4015803.97846  22327633.281    22327639.0734
  22315206.272     4876934.662 8   3826900.05746  22315206.124    22315212.4174
  24342405.446    -5027247.238 7  -3615008.18444  24342405.074    24342411.6074
  19783646.034    -4059583.633 9  -3152370.73848  19783645.427    19783650.6654
  22908629.656     8090537.037 8   6297028.66146  22908629.166    22908635.8094
  23736152.833    -1046427.560 7   -804087.75245  23736152.844    23736160.3104
  20755013.207    -2360588.931 9  -1833908.61747  20755012.804    20755018.3144
 00  9 20 16 42 30.0000000  0  8 29 31 03 11 15 23 09 21
  20436376.847    -8233049.845 9  -6402890.77148  20436376.871    20436381.3344
  22329290.209    -5160520.228 8  -4009020.91146  22329289.804    22329295.6404
  22328538.676     4946996.030 8   3881493.25146  22328538.425    22328544.7834
  24323026.311    -5129082.681 7  -3694360.45344  24323026.189    24323033.0024
  19784846.095    -4053277.269 9  -3147456.70948  19784845.516    19784850.7814
  22920714.551     8154043.190 8   6346513.89746  22920714.070    22920720.7334
  23743028.815    -1010294.598 7   -775932.29145  23743028.723    23743036.2034
  20755266.428    -2359258.300 9  -1832871.78647  20755266.038    20755271.5604
 00  9 20 16 43  0.0000000  0  8 29 31 03 11 15 23 09 21
  20432840.067    -8251635.675 9  -6417373.24648  20432840.069    20432844.5734
  22331057.647    -5151232.798 8  -4001783.99246  22331057.221    22331062.9904
  22341942.595     5017434.246 8   3936380.08746  22341942.425    22341948.7914
  24303657.649    -5230864.945 7  -3773671.29444  24303657.748    24303664.8074
  19786141.294    -4046470.938 9  -3142153.09348  19786140.710    19786146.0164
  22932815.736     8217634.493 8   6396065.48146  22932815.162    22932821.8704
  23750012.643     -973594.518 7   -747334.88245  23750012.568    23750019.9374
  20755560.498    -2357713.018 9  -1831667.69447  20755560.095    20755565.6674
 00  9 20 16 43 30.0000000  0  8 29 31 03 11 15 23 09 21
  20429398.313    -8269722.372 9  -6431466.78248  20429398.312    20429402.8084
  22332935.668    -5141364.007 8  -3994094.04846  22332935.251    22332940.9934
  22355417.714     5088246.603 8   3991558.47246  22355417.566    22355423.9524
  24284299.745    -5332592.267 7  -3852939.32845  24284299.690    24284306.6184
  19787531.807    -4039163.728 9  -3136459.17548  19787531.227    19787536.5494
  22944932.911     8281310.912 8   6445683.37546  22944932.454    22944939.2024
  23757104.314     -936328.208 8   -718296.27545  23757104.139    23757111.5634
  20755895.405    -2355953.135 9  -1830296.37747  20755895.023    20755900.5924
 00  9 20 16 44  0.0000000  0  8 29 31 03 11 15 23 09 21
  20426051.560    -8287309.859 9  -6445171.33048  20426051.539    20426056.0484
  22334924.261    -5130914.058 8  -3985951.25346  22334923.824    22334929.5914
  22368963.655     5159430.662 8   4047026.49946  22368963.518    22368969.9274
  24264952.444    -5434262.741 7  -3932163.02845  24264952.302    24264959.4304
  19789017.813    -4031354.822 9  -3130374.33048  19789017.228    19789022.5464
  22957066.426     8345072.316 8   6495367.51346  22957065.924    22957072.7064
  23764303.332     -898496.840 7   -688817.35945  23764303.175    23764310.6954
  20756271.149    -2353978.758 9  -1828757.92147  20756270.743    20756276.2994
 00  9 20 16 44 30.0000000  0  8 29 31 03 11 15 23 09 21
  20422799.707    -8304398.620 9  -6458487.26048  20422799.690    20422804.1964
  22337023.073    -5119884.333 8  -3977356.71246  22337022.691    22337028.4914
  22382579.806     5230983.545 8   4102781.90846  22382579.623    22382586.0994
  24245616.561    -5535874.425 7  -4011340.92945  24245616.289    24245623.2284
  19790599.404    -4023043.809 9  -3123898.23748  19790598.804    19790604.0874
  22969215.881     8408918.446 8   6545117.67346  22969215.483    22969222.3054
  23771609.868     -860101.276 7   -658898.80645  23771609.637    23771617.0934
  20756687.624    -2351790.052 9  -1827052.46647  20756687.254    20756692.7904
 00  9 20 16 45  0.0000000  0  8 29 31 03 11 15 23 09 21
  20419642.653    -8320989.223 9  -6471415.01448  20419642.636    20419647.1364
  22339232.128    -5108276.084 8  -3968311.35046  22339231.681    22339237.4604
  22396265.492     5302902.021 8   4158822.20246  22396265.348    22396271.8534
  24226292.032    -5637426.135 7  -4090472.11045  24226291.847    24226298.6984
  19792276.581    -4014230.146 9  -3117030.46748  19792276.012    19792281.2814
  22981381.443     8472848.441 8   6594933.17046  22981381.021    22981387.8484
  23779023.332     -821143.251 8   -628541.98545  23779023.185    23779030.7554
  20757144.916    -2349387.172 9  -1825180.11447  20757144.568    20757150.0644
 00  9 20 16 45 30.0000000  0  8 29 31 03 11 15 23 09 21
  20416580.323    -8337081.830 9  -6483954.71748  20416580.306    20416584.8024
  22341551.156    -5096089.855 8  -3958815.61546  22341550.716    22341556.4694
  22410020.291     5375183.399 8   4215145.26446  22410020.106    22410026.6384
  24206979.192    -5738915.502 7  -4169554.71245  24206979.178    24206985.9654
  19794049.553    -4004913.177 9  -3109770.50848  19794048.975    19794054.2444
  22993563.048     8536862.388 8   6644814.08546  22993562.568    22993569.4054
  23786543.760     -781623.344 7   -597747.34145  23786543.579    23786551.1774
  20757643.094    -2346769.589 9  -1823140.46447  20757642.703    20757648.1804
 00  9 20 16 46  0.0000000  0  8 29 31 03 11 15 23 09 21
  20413612.760    -8352676.620 9  -6496106.50948  20413612.740    20413617.2294
  22343979.932    -5083326.408 8  -3948870.09346  22343979.495    22343985.3024
  22423843.628     5447824.817 8   4271748.88446  22423843.386    22423849.9414
  24187678.647    -5840340.599 8  -4248587.21245  24187678.629    24187685.4334
  19795918.513    -3995091.953 9  -3102117.63048  19795917.951    19795923.1984
  23005760.459     8600960.284 8   6694760.41246  23005760.014    23005767.0194
  23794170.762     -741542.807 8   -566515.82645  23794170.718    23794178.1334
  20758182.036    -2343937.524 9  -1820933.67847  20758181.650    20758187.1284
 00  9 20 16 46 30.0000000  0  8 29 31 03 11 15 23 09 21
  20410739.891    -8367773.670 9  -6507870.45648  20410739.869    20410744.3854
  22346518.481    -5069986.334 8  -3938475.26046  22346518.097    22346523.8914
  22437734.889     5520824.185 8   4328631.41846  22437734.709    22437741.3264
  24168390.850    -5941699.182 8  -4327567.89445  24168390.861    24168397.5314
  19797883.593    -3984765.444 9  -3094071.03048  19797883.021    19797888.3024
  23017973.904     8665142.252 8   6744772.23646  23017973.409    23017980.5414
  23801904.472     -700902.332 8   -534847.98645  23801904.334    23801911.8614
  20758761.933    -2340890.447 9  -1818559.35747  20758761.519    20758767.0124
 00  9 20 16 47  0.0000000  0  8 29 31 03 11 15 23 09 21
  20407961.651    -8382373.518 9  -6519246.96748  20407961.642    20407966.1264
  22349166.599    -5056070.426 8  -3927631.72346  22349166.234    22349172.0524
  22451693.863     5594178.545 8   4385790.58146  22451693.656    22451700.2674
  24149116.135    -6042989.563 8  -4406495.42745  24149116.085    24149122.6924
  19799944.895    -3973933.171 9  -3085630.32048  19799944.334    19799949.6554
  23030203.293     8729407.862 8   6794849.25146  23030202.822    23030209.9994
  23809744.496     -659703.118 8   -502744.77845  23809744.337    23809751.9634
  20759382.695    -2337628.359 9  -1816017.49547  20759382.319    20759387.8334
 00  9 20 16 47 30.0000000  0  8 29 31 03 11 15 23 09 21
  20405277.730    -8396477.399 9  -6530237.01448  20405277.740    20405282.2414
  22351923.928    -5041580.809 8  -3916341.13746  22351923.485    22351929.3184
  22465719.585     5667883.853 8   4443223.20246  22465719.386    22465726.0394
  24129854.527    -6144211.122 7  -4485369.31745  24129854.320    24129860.8244
  19802102.340    -3962595.732 9  -3076795.97948  19802101.790    19802107.1264
  23042448.399     8793755.864 8   6844990.45946  23042447.846    23042455.0594
  23817690.396     -617947.527 8   -470208.01945  23817690.216    23817697.8604
  20760044.112    -2334152.611 9  -1813309.13947  20760043.751    20760049.2874
 00  9 20 16 48  0.0000000  0  8 29 31 03 11 15 23 09 21
  20402688.370    -8410084.402 9  -6540839.88648  20402688.403    20402692.9354
  22354790.405    -5026517.300 8  -3904603.36146  22354790.000    22354795.8864
  22479811.813     5741938.692 8   4500928.17846  22479811.620    22479818.2934
  24110606.422    -6245360.321 7  -4564186.84945  24110606.235    24110612.7274
  19804356.306    -3950751.123 9  -3067566.43548  19804355.730    19804361.0994
  23054709.445     8858187.587 8   6895196.90146  23054708.917    23054716.1114
  23825742.240     -575635.341 8   -437237.53045  23825741.992    23825749.7354
  20760746.461    -2330461.845 9  -1810433.23547  20760746.065    20760751.6404
 00  9 20 16 48 30.0000000  0  8 29 31 03 11 15 23 09 21
  20400193.396    -8423195.579 9  -6551056.40248  20400193.420    20400197.9714
  22357765.899    -5010881.619 8  -3892419.75446  22357765.441    22357771.2854
  22493969.861     5816339.623 8   4558902.83346  22493969.728    22493976.4134
  24091372.327    -6346435.814 7  -4642946.91045  24091372.121    24091378.6914
  19806706.786    -3938399.268 9  -3057941.63848  19806706.213    19806711.6134
  23066986.186     8922702.177 8   6945467.91846  23066985.708    23066992.8434
  23833899.474     -532768.408 8   -403834.79545  23833899.444    23833907.2234
  20761489.655    -2326555.989 9  -1807389.73247  20761489.320    20761494.9114
 00  9 20 16 49  0.0000000  0  8 29 31 03 11 15 23 09 21
  20397792.760    -8435811.054 9  -6560886.65148  20397792.802    20397797.3494
  22360850.166    -4994674.539 8  -3879790.89046  22360849.666    22360855.3814
  22508193.448     5891084.014 8   4617145.13046  22508193.282    22508199.8404
  24072152.645    -6447435.478 7  -4721647.92845  24072152.495    24072159.0624
  19809153.949    -3925539.542 9  -3047921.09048  19809153.368    19809158.7934
  23079278.671     8987299.580 8   6995803.46946  23079278.228    23079285.3094
  23842162.338     -489347.836 8   -370000.62145  23842162.225    23842170.0354
  20762273.847    -2322435.084 9  -1804178.65447  20762273.507    20762279.0764
 00  9 20 16 49 30.0000000  0  8 29 31 03 11 15 23 09 21
  20395486.335    -8447931.631 9  -6570331.26948  20395486.359    20395490.9144
  22364042.715    -4977897.435 8  -3866717.85246  22364042.216    22364047.9344
  22522481.622     5966168.570 8   4675652.48746  22522481.471    22522488.1004
  24052947.739    -6548357.987 7  -4800288.79045  24052947.522    24052954.2874
  19811697.792    -3912171.736 9  -3037504.64148  19811697.197    19811702.6144
  23091586.912     9051979.450 8   7046203.27446  23091586.457    23091593.5304
  23850530.155     -445375.241 8   -335736.32045  23850529.992    23850537.7904
  20763098.949    -2318099.357 9  -1800800.18847  20763098.576    20763104.1264
 00  9 20 16 50  0.0000000  0  8 29 31 03 11 15 23 09 21
  20393274.049    -8459557.405 9  -6579390.32248  20393274.060    20393278.6414
  22367343.693    -4960550.944 8  -3853201.14146  22367343.250    22367348.8844
  22536834.096     6041591.126 8   4734423.24646  22536833.974    22536840.6204
  24033757.906    -6649200.643 7  -4878867.45245  24033757.816    24033764.4314
  19814338.545    -3898294.785 9  -3026691.45048  19814337.959    19814343.3424
  23103910.907     9116741.784 8   7096667.34246  23103910.455    23103917.4514
  23859002.770     -400851.650 8   -301042.67745  23859002.636    23859010.4714
  20763964.900    -2313548.825 9  -1797254.33647  20763964.546    20763970.1194
 00  9 20 16 50 30.0000000  0  8 29 31 03 11 15 23 09 21
  20391155.677    -8470689.550 9  -6588064.73648  20391155.697    20391160.2654
  22370752.752    -4942636.669 8  -3839241.99946  22370752.310    22370757.9034
  22551250.140     6117347.947 8   4793454.44146  22551250.014    22551256.7244
  24014583.428    -6749962.410 7  -4957383.03845  24014583.311    24014589.8514
  19817076.109    -3883908.931 9  -3015481.72148  19817075.514    19817080.8514
  23116250.364     9181585.747 8   7147195.01246  23116249.843    23116256.9694
  23867579.880     -355779.125 7   -265921.27445  23867579.639    23867587.5784
  20764871.684    -2308783.839 9  -1793541.38647  20764871.309    20764876.9114
 00  9 20 16 51  0.0000000  0  8 29 31 03 11 15 23 09 21
  20389131.506    -8481326.855 9  -6596353.55248  20389131.508    20389136.0674
  22374269.749    -4924154.339 8  -3824840.20646  22374269.396    22374274.9664
  22565729.659     6193437.765 8   4852745.12246  22565729.550    22565736.2254
  23995425.401    -6850639.567 8  -5035832.73545  23995425.053    23995431.5714
  19819910.935    -3869012.016 9  -3003873.75748  19819910.372    19819915.6694
  23128605.594     9246512.822 8   7197787.43646  23128605.110    23128612.3174
  23876261.331     -310157.151 7   -230371.75945  23876261.168    23876269.1434
  20765819.615    -2303802.271 9  -1789659.66747  20765819.262    20765824.8834
 00  9 20 16 51 30.0000000  0  8 29 31 03 11 15 23 09 21
  20387200.999    -8491471.606 9  -6604258.56548  20387201.024    20387205.5694
  22377894.462    -4905106.731 8  -3809997.95846  22377894.096    22377899.5934
  22580271.766     6269856.194 8   4912291.85546  22580271.593    22580278.2854
  23976283.414    -6951231.918 8  -5114216.36545  23976283.035    23976289.2584
  19822842.803    -3853605.019 9  -2991868.32948  19822842.232    19822847.4994
  23140976.435     9311521.286 8   7248443.29746  23140975.936    23140983.1344
  23885046.912     -263988.631 7   -194396.34145  23885046.925    23885054.8094
  20766808.461    -2298605.900 9  -1785610.57347  20766808.118    20766813.7324
 00  9 20 16 52  0.0000000  0  8 29 31 03 11 15 23 09 21
  20385364.281    -8501123.678 9  -6611779.67048  20385364.306    20385368.8534
  22381626.556    -4885494.520 8  -3794715.75546  22381626.202    22381631.6924
  22594875.761     6346600.783 8   4972092.73546  22594875.663    22594882.3714
  23957157.724    -7051736.918 8  -5192531.91245  23957157.376    23957163.6554
  19825871.893    -3837687.229 9  -2979464.87948  19825871.325    19825876.5864
  23153362.842     9376611.534 8   7299162.87746  23153362.321    23153369.5804
  23893936.289     -217274.741 7   -157995.92645  23893936.382    23893944.2584
  20767838.318    -2293194.306 9  -1781393.76947  20767837.965    20767843.5844
 00  9 20 16 52 30.0000000  0  8 29 31 03 11 15 23 09 21
  20383621.290    -8510283.119 9  -6618916.90748  20383621.332    20383625.8574
  22385466.034    -4865318.274 8  -3778994.02746  22385465.664    22385471.1524
  22609541.341     6423668.903 8   5032145.72246  22609541.210    22609548.0664
  23938049.167    -7152151.940 8  -5270777.33045  23938048.874    23938055.2444
  19828998.417    -3821257.584 9  -2966662.58048  19828997.840    19829003.0974
  23165764.763     9441783.866 8   7349946.40146  23165764.235    23165771.5694
  23902929.272     -170016.134 7   -121171.11745  23902929.296    23902937.4474
  20768909.213    -2287566.763 9  -1777008.69547  20768908.863    20768914.4994
 00  9 20 16 53  0.0000000  0  8 29 31 03 11 15 23 09 21
  20381971.908    -8518950.909 9  -6625671.03948  20381971.934    20381976.4224
  22389412.500    -4844579.698 8  -3762834.13246  22389412.103    22389417.6314
  22624267.991     6501057.617 8   5092448.53146  22624267.835    22624274.7434
  23918958.288    -7252475.471 8  -5348951.48545  23918957.990    23918964.1604
  19832222.333    -3804315.910 9  -2953461.29548  19832221.759    19832227.0204
  23178182.217     9507037.700 8   7400793.46446  23178181.728    23178189.0644
  23912025.800     -122214.804 7    -83923.37545  23912025.768    23912033.8104
  20770021.121    -2281723.999 9  -1772455.91547  20770020.754    20770026.3764
 00  9 20 16 53 30.0000000  0  8 29 31 03 11 15 23 09 21
  20380415.947    -8527127.867 9  -6632042.71048  20380415.952    20380420.4464
  22393465.638    -4823280.389 8  -3746237.30846  22393465.207    22393470.7614
  22639055.013     6578763.607 8   5152998.55146  22639054.858    22639061.8304
  23899885.182    -7352705.920 8  -5427053.09445  23899884.884    23899890.8914
  19835543.657    -3786862.226 9  -2939861.04748  19835543.089    19835548.3824
  23190615.146     9572372.528 8   7451703.62846  23190614.711    23190621.9644
  23921224.882      -73872.675 7    -46254.25245  23921224.931    23921233.1904
  20771174.020    -2275665.519 9  -1767735.04647  20771173.646    20771179.2724
 00  9 20 16 54  0.0000000  0  8 29 31 03 11 15 23 09 21
  20378953.173    -8534814.829 9  -6638032.55848  20378953.194    20378957.7164
  22397625.286    -4801421.798 8  -3729204.67246  22397624.797    22397630.3394
  22653901.952     6656783.819 8   5213793.42646  22653901.720    22653908.6814
  23880830.191    -7452841.594 8  -5505080.87145  23880829.706    23880835.7934
  19838962.447    -3768896.357 9  -2925861.68948  19838961.883    19838967.2314
  23203063.469     9637788.048 8   7502676.67146  23203062.954    23203070.2434
  23930526.791      -24991.409 7     -8165.03045  23930526.821    23930534.9814
  20772367.884    -2269391.897 9  -1762846.53547  20772367.529    20772373.1234
 00  9 20 16 54 30.0000000  0  8 29 31 03 11 15 23 09 21
  20377583.623    -8542012.055 9  -6643640.80048  20377583.612    20377588.1704
  22401891.105    -4779005.038 8  -3711737.11846  22401890.694    22401896.1414
  22668808.185     6735115.750 8   5274831.20246  22668807.941    22668814.8604
  23861793.247    -7552880.024 7  -5583032.83445  23861792.895    23861799.2364
  19842478.840    -3750417.516 9  -2911462.61848  19842478.298    19842483.6684
  23215527.087     9703284.574 8   7553712.81046  23215526.635    23215533.9534
  23939931.008       24427.892 7     30343.42045  23939930.882    23939939.1454
  20773602.831    -2262902.455 9  -1757789.85647  20773602.464    20773608.0804
 00  9 20 16 55  0.0000000  0  8 29 31 03 11 15 23 09 21
  20376307.244    -8548719.320 9  -6648867.24948  20376307.266    20376311.8144
  22406263.091    -4756030.341 8  -3693834.78546  22406262.667    22406268.1144
  22683773.291     6813757.061 8   5336110.06046  22683773.071    22683779.9514
  23842775.405    -7652818.294 8  -5660906.76445  23842775.140    23842781.6424
  19846093.080    -3731424.592 9  -2896662.95648  19846092.546    19846097.9384
  23228006.257     9768862.448 8   7604812.37046  23228005.786    23228013.1444
  23949437.510       74384.561 8     69270.59545  23949437.379    23949445.4914
  20774878.948    -2256196.567 9  -1752564.50847  20774878.561    20774884.1674
 00  9 20 16 55 30.0000000  0  8 29 31 03 11 15 23 09 21
  20375123.753    -8554938.526 9  -6653713.39648  20375123.775    20375128.3504
  22410740.634    -4732500.224 8  -3675499.68346  22410740.267    22410745.7904
  22698796.432     6892703.570 8   5397626.72846  22698796.140    22698803.0364
  23823777.006    -7752655.772 7  -5738702.20445  23823776.702    23823783.0904
  19849804.941    -3711918.608 9  -2881463.51548  19849804.436    19849809.8314
  23240500.656     9834520.535 8   7655974.41446  23240500.176    23240507.5134
  23959046.026      124876.283 8    108614.69245  23959045.847    23959053.8494
  20776196.025    -2249275.391 9  -1747171.41047  20776195.639    20776201.2664
 00  9 20 16 56  0.0000000  0  8 29 31 03 11 15 23 09 21
  20374033.069    -8560669.797 9  -6658179.32948  20374033.130    20374037.7204
  22415323.783    -4708415.796 8  -3656732.62446  22415323.405    22415328.9654
  22713877.173     6971952.914 8   5459379.37046  22713876.960    22713883.8324
  23804798.191    -7852389.722 7  -5816416.92945  23804797.882    23804804.3014
  19853614.642    -3691898.595 9  -2865863.52748  19853614.109    19853619.5444
  23253010.386     9900259.145 8   7707199.20946  23253009.916    23253017.2074
  23968756.003      175901.506 8    148374.49845  23968755.886    23968763.6694
  20777554.186    -2242138.101 9  -1741609.90947  20777553.819    20777559.4504
 00  9 20 16 56 30.0000000  0  8 29 31 03 11 15 23 09 21
  20373035.228    -8565913.575 9  -6662265.39748  20373035.271    20373039.8384
  22420012.052    -4683778.498 8  -3637534.76646  22420011.719    22420017.3284
  22729014.993     7051502.406 8   5521365.88246  22729014.760    22729021.6664
  23785839.420    -7952018.253 7  -5894049.50745  23785839.167    23785845.6024
  19857522.301    -3671363.860 9  -2849862.45948  19857521.784    19857527.2184
  23265535.551     9966078.442 8   7758486.88046  23265534.985    23265542.2814
  23978567.075      227458.737 8    188548.84145  23978566.923    23978574.8564
  20778953.586    -2234784.610 9  -1735879.93747  20778953.210    20778958.8144
 00  9 20 16 57  0.0000000  0  8 29 31 03 11 15 23 09 21
  20372130.044    -8570670.530 9  -6665972.12348  20372130.068    20372134.6644
  22424805.513    -4658589.361 8  -3617906.90146  22424805.130    22424810.7184
  22744209.377     7131349.092 8   5583583.98646  22744209.131    22744216.0424
  23766901.260    -8051538.878 8  -5971597.99245  23766901.076    23766907.5134
  19861527.990    -3650314.194 9  -2833460.14648  19861527.441    19861532.8784
  23278075.921    10031978.298 8   7809837.31746  23278075.334    23278082.7444
  23988479.141      279546.622 8    229136.67045  23988479.071    23988487.0384
  20780394.097    -2227214.722 9  -1729981.34847  20780393.733    20780399.3164
 00  9 20 16 57 30.0000000  0  8 29 31 03 11 15 23 09 21
  20371317.383    -8574941.341 9  -6669300.03348  20371317.400    20371321.9374
  22429703.578    -4632849.863 8  -3597850.17946  22429703.249    22429708.8794
  22759459.664     7211489.939 8   5646031.29846  22759459.464    22759466.3804
  23747984.222    -8150949.468 8  -6049060.72845  23747984.012    23747990.2684
  19865631.699    -3628749.300 9  -2816656.35748  19865631.150    19865636.5854
  23290631.532    10097958.759 8   7861250.56746  23290631.031    23290638.5634
  23998491.942      332163.831 8    270136.99145  23998491.851    23998499.8124
  20781875.803    -2219428.138 9  -1723913.90447  20781875.467    20781881.0774
 00  9 20 16 58  0.0000000  0  8 29 31 03 11 15 23 09 21
  20370597.068    -8578726.815 9  -6672249.75848  20370597.059    20370601.6004
  22434706.182    -4606561.646 8  -3577365.89146  22434705.707    22434711.4294
  22774765.430     7291921.913 8   5708705.48546  22774765.218    22774772.1254
  23729088.328    -8250248.495 8  -6126436.57545  23729088.014    23729094.2924
  19869833.479    -3606669.035 9  -2799450.97348  19869832.921    19869838.3674
  23303202.425    10164019.342 8   7912726.24346  23303201.949    23303209.6034
  24008604.976      385308.300 8    311548.16645  24008604.898    24008613.0744
  20783398.876    -2211424.672 9  -1717677.46247  20783398.503    20783404.1354
 00  9 20 16 58 30.0000000  0  8 29 31 03 11 15 23 09 21
  20369968.915    -8582027.786 9  -6674821.95148  20369968.924    20369973.4614
  22439812.807    -4579726.285 8  -3556455.26246  22439812.331    22439818.0614
  22790126.061     7372642.187 8   5771604.31146  22790125.874    22790132.7864
  23710214.011    -8349433.554 7  -6203723.58145  23710213.621    23710220.0044
  19874133.299    -3584073.368 9  -2781843.98048  19874132.744    19874138.1874
  23315788.690    10230160.005 8   7964264.31146  23315788.126    23315795.8504
  24018818.244      438978.427 7    353368.95445  24018818.058    24018826.2434
  20784963.220    -2203203.803 9  -1711271.61947  20784962.870    20784968.5254
 00  9 20 16 59  0.0000000  0  8 29 31 03 11 15 23 09 21
  20369432.840    -8584845.049 9  -6677017.23048  20369432.855    20369437.3654
  22445023.225    -4552345.447 8  -3535119.57446  22445022.764    22445028.4904
  22805540.940     7453647.634 8   5834725.34646  22805540.712    22805547.7274
  23691361.541    -8448503.046 8  -6280920.54245  23691361.132    23691367.6544
  19878531.250    -3560962.106 9  -2763835.22248  19878530.680    19878536.1164
  23328390.051    10296380.673 8   8015864.73546  23328389.612    23328397.2464
  24029131.022      493172.281 7    395597.83845  24029130.829    24029138.9874
  20786568.919    -2194766.021 9  -1704696.74647  20786568.558    20786574.1984
 00  9 20 16 59 30.0000000  0  8 29 31 03 11 15 23 09 21
  20368988.678    -8587179.087 9  -6678835.96948  20368988.673    20368993.2254
  22450337.169    -4524420.331 8  -3513359.79646  22450336.755    22450342.4854
  22821009.709     7534935.634 8   5898066.55846  22821009.474    22821016.4754
  23672531.803    -8547454.250 8  -6358025.35345  23672531.537    23672537.7724
  19883027.410    -3537334.644 9  -2745424.23548  19883026.837    19883032.2794
  23341006.698    10362681.414 8   8067527.54546  23341006.287    23341013.9094
  24039543.087      547888.527 7    438233.76945  24039542.901    24039551.4474
  20788215.872    -2186111.386 9  -1697952.89447  20788215.508    20788221.1184
 00  9 20 17  0  0.0000000  0  8 29 31 03 11 15 23 09 21
  20368636.272    -8589031.026 9  -6680279.05348  20368636.277    20368640.8774
  22455754.349    -4495952.682 8  -3491177.25546  22455753.975    22455759.6834
  22836531.531     7616502.887 8   5961625.36146  22836531.348    22836538.2584
  23653724.906    -8646285.377 8  -6435036.59045  23653724.618    23653730.5304
  19887621.771    -3513191.153 9  -2726611.14748  19887621.186    19887626.6334
  23353638.536    10429061.774 8   8119252.43046  23353638.162    23353645.7504
  24050054.202      603125.076 7    481275.16945  24050054.074    24050062.7404
  20789904.151    -2177239.636 9  -1691039.86747  20789903.789    20789909.3894
 00  9 20 17  0 30.0000000  0  8 29 31 03 11 15 23 09 21
  20368375.413    -8590401.601 9  -6681347.03948  20368375.427    20368380.0604
  22461274.555    -4466943.911 8  -3468573.05546  22461274.184    22461279.8844
  22852105.944     7698346.055 8   6025399.16946  22852105.706    22852112.5454
  23634941.164    -8744994.443 8  -6511952.69645  23634940.901    23634946.7164
  19892314.402    -3488531.249 9  -2707395.65548  19892313.828    19892319.2824
  23366285.401    10495521.741 8   8171039.32046  23366285.107    23366292.7444
  24060664.057      658880.152 7    524720.61845  24060663.920    24060672.6634
  20791633.768    -2168150.527 9  -1683957.46547  20791633.422    20791639.0284
 00  9 20 17  1  0.0000000  0  8 29 31 03 11 15 23 09 21
  20368206.048    -8591291.468 9  -6682040.45248  20368206.074    20368210.7374
  22466897.435    -4437395.639 8  -3445548.45646  22466897.011    22466902.7834
  22867732.303     7780462.641 8   6089386.01846  22867732.068    22867738.8994
  23616181.342    -8843579.139 8  -6588771.90845  23616180.978    23616186.6404
  19897105.340    -3463354.746 9  -2687777.62248  19897104.781    19897110.2354
  23378947.534    10562061.378 8   8222888.31146  23378947.162    23378954.8594
  24071372.375      715152.548 7    568569.24345  24071372.117    24071380.9084
  20793404.793    -2158843.950 9  -1676705.60647  20793404.415    20793410.0354
 00  9 20 17  1 30.0000000  0  8 29 31 03 11 15 23 09 21
  20368128.007    -8591701.780 9  -6682360.18548  20368128.008    20368132.6464
  22472622.616    -4407309.516 8  -3422104.77146  22472622.188    22472628.0284
  22883410.078     7862849.418 8   6153583.41346  22883409.885    22883416.5864
  23597445.379    -8942037.686 8  -6665492.82145  23597445.049    23597450.5394
  19901994.609    -3437661.774 9  -2667757.14348  19901994.036    19901999.5084
  23391624.766    10628680.442 8   8274799.17445  23391624.356    23391632.2544
  24082178.644      771939.890 7    612819.12745  24082178.525    24082187.1764
  20795217.182    -2149319.964 9  -1669284.33647  20795216.781    20795222.4304
 00  9 20 17  2  0.0000000  0  8 29 31 03 11 15 23 09 21
  20368141.022    -8591633.159 9  -6682306.72248  20368141.069    20368145.6894
  22478449.883    -4376687.186 8  -3398243.25846  22478449.453    22478455.2714
  22899138.692     7945503.416 8   6217989.03146  22899138.487    22899145.3294
  23578733.708    -9040367.843 8  -6742113.65545  23578733.392    23578739.0064
  19906982.114    -3411452.270 9  -2647334.17248  19906981.543    19906987.0194
  23404317.099    10695378.795 8   8326771.82545  23404316.679    23404324.6684
  24093082.715      829240.759 7    657469.16545  24093082.547    24093091.0354
  20797070.977    -2139578.171 9  -1661693.34947  20797070.608    20797076.2564
 00  9 20 17  2 30.0000000  0  8 29 31 03 11 15 23 09 21
  20368245.215    -8591085.919 9  -6681880.30848  20368245.257    20368249.8094
  22484378.922    -4345529.837 8  -3373964.84146  22484378.459    22484384.4374
  22914917.598     8028422.077 8   6282600.86646  22914917.363    22914924.2814
  23560046.991    -9138566.891 8  -6818632.33245  23560046.629    23560052.3964
  19912068.079    -3384725.365 9  -2626508.03048  19912067.522    19912072.9944
  23417024.580    10762157.050 8   8378806.74645  23417024.281    23417032.2114
  24104083.931      887053.511 7    702518.09545  24104083.930    24104092.4294
  20798966.401    -2129617.862 9  -1653932.09047  20798966.015    20798971.6574
 00  9 20 17  3  0.0000000  0  8 29 31 03 11 15 23 09 21
  20368440.130    -8590061.749 9  -6681082.26248  20368440.172    20368444.7344
  22490409.305    -4313839.770 8  -3349271.33546  22490408.934    22490414.9314
  22930746.207     8111601.689 8   6347416.03646  22930746.034    22930752.9734
  23541385.469    -9236633.598 8  -6895047.90145  23541385.138    23541390.9724
  19917252.344    -3357481.834 9  -2605279.32548  19917251.754    19917257.2234
  23429747.277    10829014.260 8   8430903.15846  23429746.924    23429754.8034
  24115182.401      945375.982 7    747964.18945  24115182.247    24115190.8134
  20800903.202    -2119440.113 9  -1646001.40047  20800902.805    20800908.4594
 00  9 20 17  3 30.0000000  0  8 29 31 03 11 15 23 09 21
  20368725.703    -8588561.173 9  -6679912.98648  20368725.754    20368730.2674
  22496540.793    -4281618.613 8  -3324163.98446  22496540.399    22496546.5194
  22946623.984     8195039.423 8   6412432.37046  22946623.783    22946630.7004
  23522749.690    -9334565.427 8  -6971358.37745  23522749.350    23522754.9824
  19922534.947    -3329721.554 9  -2583647.95548  19922534.386    19922539.8404
  23442484.889    10895950.456 8   8483061.13246  23442484.595    23442492.3794
  24126377.629     1004206.223 8    793805.95845  24126377.415    24126385.8754
  20802881.507    -2109044.143 9  -1637900.66347  20802881.125    20802886.7694
 00  9 20 17  4  0.0000000  0  8 29 31 03 11 15 23 09 21
  20369101.732    -8586585.097 9  -6678373.19148  20369101.784    20369106.3424
  22502773.071    -4248867.931 8  -3298644.01646  22502772.704    22502778.7984
  22962550.220     8278732.498 8   6477647.64646  22962550.048    22962556.9864
  23504139.921    -9432359.923 8  -7047561.81145  23504139.613    23504145.4154
  19927916.040    -3301443.928 9  -2561613.46148  19927915.471    19927920.8634
  23455237.642    10962965.864 8   8535280.82746  23455237.227    23455244.9844
  24137669.037     1063542.713 8    840042.21645  24137668.899    24137677.1734
  20804901.389    -2098429.608 9  -1629629.61847  20804901.027    20804906.6594
 00  9 20 17  4 30.0000000  0  8 29 31 03 11 15 23 09 21
  20369568.048    -8584134.366 9  -6676463.54148  20369568.122    20369572.7204
  22509105.868    -4215589.496 8  -3272712.81246  22509105.461    22509111.5454
  22978524.385     8362678.064 8   6543059.66746  22978524.259    22978531.2914
  23485556.676    -9530015.247 8  -7123656.83145  23485556.328    23485562.2304
  19933395.618    -3272648.834 9  -2539175.74248  19933395.028    19933400.3854
  23468005.302    11030060.305 8   8587562.11746  23468004.997    23468012.6624
  24149056.537     1123383.352 7    886671.34845  24149056.387    24149064.5274
  20806962.866    -2087596.448 9  -1621188.21547  20806962.520    20806968.1794
 00  9 20 17  5  0.0000000  0  8 29 31 03 11 15 23 09 21
  20370124.513    -8581210.040 9  -6674184.85248  20370124.586    20370129.2234
  22515538.608    -4181785.347 8  -3246371.96446  22515538.247    22515544.3104
  22994546.153     8446872.957 8   6608665.98846  22994545.978    22994553.1274
  23467000.216    -9627529.432 8  -7199641.87645  23466999.894    23467005.7744
  19938973.591    -3243336.419 9  -2516334.92248  19938973.006    19938978.3724
  23480788.164    11097233.727 8   8639904.94646  23480787.798    23480795.4284
  24160539.233     1183726.056 7    933691.66045  24160539.097    24160547.3554
  20809066.056    -2076544.084 9  -1612576.00547  20809065.724    20809071.4024
 00  9 20 17  5 30.0000000  0  8 29 31 03 11 15 23 09 21
  20370770.992    -8577812.714 9  -6671537.59648  20370771.058    20370775.7114
  22522071.177    -4147456.687 8  -3219622.39246  22522070.825    22522076.9284
  23010614.733     8531314.432 8   6674464.43846  23010614.662    23010621.8794
  23448471.193    -9724899.539 8  -7275514.63445  23448470.951    23448476.8214
  19944649.992    -3213506.697 9  -2493090.99548  19944649.446    19944654.8344
  23493586.093    11164486.513 8   8692309.63846  23493585.699    23493593.3114
  24172117.362     1244569.420 7    981102.12845  24172117.202    24172125.5724
  20811211.109    -2065272.110 9  -1603792.66347  20811210.769    20811216.3944
 00  9 20 17  6  0.0000000  0  8 29 31 03 11 15 23 09 21
  20371507.303    -8573943.552 9  -6668522.67448  20371507.359    20371511.9674
  22528703.115    -4112605.825 8  -3192465.91446  22528702.744    22528708.8174
  23026729.932     8615999.342 8   6740452.58146  23026729.847    23026737.0424
  23429969.713    -9822123.896 8  -7351273.82245  23429969.610    23429975.6984
  19950424.783    -3183159.985 9  -2469444.22048  19950424.219    19950429.6684
  23506398.789    11231818.080 8   8744775.70545  23506398.489    23506406.1744
  24183790.281     1305911.349 7   1028901.06945  24183790.131    24183798.6634
  20813397.732    -2053781.322 9  -1594838.82047  20813397.355    20813403.0104
 00  9 20 17  6 30.0000000  0  8 29 31 03 11 15 23 09 21
  20372333.157    -8569603.668 9  -6665140.95748  20372333.227    20372337.8334
  22535434.065    -4077234.262 8  -3164903.68946  22535433.664    22535439.7734
  23042890.855     8700924.670 8   6806628.06446  23042890.788    23042897.8854
  23411496.584    -9919200.497 8  -7426917.88445  23411496.548    23411502.6224
  19956297.879    -3152296.596 9  -2445394.83948  19956297.333    19956302.8084
  23519226.530    11299228.393 8   8797303.14845  23519226.299    23519233.9554
  24195557.606     1367749.885 7   1077087.01745  24195557.594    24195565.9774
  20815626.070    -2042071.470 9  -1585714.28247  20815625.682    20815631.3754
 00  9 20 17  7  0.0000000  0  8 29 31 03 11 15 23 09 21
  20373248.332    -8564794.350 9  -6661393.45148  20373248.404    20373253.0244
  22542263.725    -4041344.437 8  -3136937.63346  22542263.286    22542269.3564
  23059096.920     8786086.689 8   6872987.96346  23059096.739    23059103.8474
  23393052.263   -10016127.518 8  -7502445.35945  23393051.987    23393058.0974
  19962269.319    -3120916.550 9  -2420942.87448  19962268.769    19962274.2354
  23532069.209    11366716.891 8   8849891.50345  23532068.968    23532076.6044
  24207419.334     1430082.482 7   1125657.93745  24207419.293    24207427.4464
  20817896.141    -2030142.152 9  -1576418.73047  20817895.771    20817901.4514
 00  9 20 17  7 30.0000000  0  8 29 31 03 11 15 23 09 21
  20374252.708    -8559516.310 9  -6657280.70948  20374252.768    20374257.3794
  22549191.726    -4004937.914 8  -3108568.95346  22549191.289    22549197.3294
  23075347.297     8871482.689 8   6939530.17946  23075347.150    23075354.2624
  23374636.684   -10112902.297 8  -7577854.22745  23374636.266    23374642.4354
  19968339.169    -3089019.462 9  -2396088.02448  19968338.597    19968344.0534
  23544927.070    11434284.071 8   8902541.16145  23544926.696    23544934.3504
  24219374.548     1492907.602 7   1174612.64745  24219374.366    24219382.7094
  20820208.054    -2017993.308 9  -1566952.11747  20820207.650    20820213.3354
 00  9 20 17  8  0.0000000  0  8 29 31 03 11 15 23 09 21
  20375346.153    -8553770.216 9  -6652803.24348  20375346.221    20375350.8404
  22556217.671    -3968016.456 8  -3079799.01946  22556217.275    22556223.2614
  23091641.719     8957109.935 8   7006252.62446  23091641.559    23091648.8294
  23356250.343   -10209522.341 8  -7653142.52545  23356249.975    23356256.1444
  19974507.467    -3056605.252 9  -2370830.22548  19974506.886    19974512.2964
  23557799.771    11501930.058 8   8955252.21945  23557799.474    23557807.1454
  24231423.061     1556223.386 7   1223949.71245  24231422.906    24231431.0414
  20822561.742    -2005624.654 9  -1557314.22247  20822561.341    20822567.0474
 00  9 20 17  8 30.0000000  0  8 29 31 03 11 15 23 09 21
  20376528.437    -8547557.547 9  -6647962.21248  20376528.503    20376533.1144
  22563341.176    -3930582.075 8  -3050629.41646  22563340.844    22563346.8774
  23107979.364     9042965.235 8   7073152.74446  23107979.238    23107986.7724
  23337893.866   -10305985.759 8  -7728308.78745  23337893.592    23337899.6434
  19980773.988    -3023674.592 9  -2345169.97948  19980773.418    19980778.8514
  23570687.501    11569654.499 8   9008024.40346  23570687.143    23570694.7414
  24243564.598     1620027.450 7   1273667.19745  24243564.360    24243572.5604
  20824957.237    -1993036.173 9  -1547505.03147  20824956.862    20824962.5874
 00  9 20 17  9  0.0000000  0  8 29 31 03 11 15 23 09 21
  20377799.371    -8540878.963 9  -6642758.13748  20377799.403    20377804.0404
  22570562.009    -3892636.601 8  -3021061.54846  22570561.626    22570567.6884
  23124360.030     9129045.720 8   7140228.32546  23124359.908    23124367.5164
  23319567.881   -10402290.038 8  -7803351.04145  23319567.440    23319573.4554
  19987138.765    -2990227.220 9  -2319107.11048  19987138.212    19987143.7074
  23583590.183    11637457.639 8   9060857.89945  23583589.730    23583597.3274
  24255798.497     1684318.160 7   1323763.85945  24255798.411    24255806.7234
  20827394.755    -1980227.004 9  -1537523.88147  20827394.365    20827400.1494
 00  9 20 17  9 30.0000000  0  8 29 31 03 11 15 23 09 21
  20379158.765    -8533735.418 9  -6637191.75148  20379158.812    20379163.4454
  22577879.760    -3854181.525 8  -2991096.60146  22577879.389    22577885.5894
  23140783.017     9215348.535 8   7207477.15246  23140782.809    23140790.5024
  23301272.497   -10498432.952 8  -7878267.54545  23301272.125    23301278.1004
  19993601.874    -2956263.229 9  -2292641.68048  19993601.338    19993606.8964
  23596507.824    11705339.536 8   9113752.77545  23596507.358    23596514.8514
  24268124.992     1749093.462 7   1374238.17545  24268124.817    24268133.0754
  20829874.260    -1967197.312 9  -1527370.89447  20829873.878    20829879.6744
 00  9 20 17 10  0.0000000  0  8 29 31 03 11 15 23 09 21
  20380606.355    -8526128.293 9  -6631264.13748  20380606.400    20380611.0294
  22585294.205    -3815219.274 8  -2960736.44246  22585293.747    22585300.0084
  23157247.561     9301870.278 8   7274896.56246  23157247.451    23157255.1324
  23283008.123   -10594412.660 8  -7953056.90045  23283007.659    23283013.6904
  20000163.287    -2921782.995 9  -2265773.98548  20000162.725    20000168.3174
  23609440.260    11773299.815 8   9166708.74245  23609439.854    23609447.3994
  24280543.170     1814350.849 7   1425088.10145  24280542.861    24280551.1764
  20832395.729    -1953946.911 9  -1517045.92747  20832395.373    20832401.1714
 00  9 20 17 10 30.0000000  0  8 29 31 03 11 15 23 09 21
  20382142.015    -8518058.689 9  -6624976.13948  20382142.027    20382146.6794
  22592804.566    -3775751.910 8  -2929982.69546  22592804.217    22592810.4504
  23173753.268     9388607.854 8   7342484.15646  23173753.124    23173760.7174
  23264775.259   -10690226.876 8  -8027717.28145  23264774.762    23264780.8114
  20006822.960    -2886786.528 9  -2238504.03148  20006822.405    20006827.9844
  23622387.639    11841338.460 8   9219725.79145  23622387.252    23622394.8654
  24293052.497     1880088.276 8   1476312.05845  24293052.350    24293060.6324
  20834959.304    -1940475.539 9  -1506548.77547  20834958.928    20834964.7044
 00  9 20 17 11  0.0000000  0  9 29 31 03 11 25 15 23 09 21
  20383765.105    -8509529.276 9  -6618329.85948  20383765.133    20383769.7484
  22600410.573    -3735782.829 8  -2898838.01346  22600410.201    22600416.3154
  23190299.284     9475556.768 8   7410236.43446  23190299.099    23190306.4984
  23246573.777   -10785874.981 8  -8102248.24145  23246573.502    23246579.5964
  24679405.126    -5546262.307 7  -4028598.36745  24679405.103    24679415.3454
  20013580.417    -2851276.081 9  -2210833.58148  20013579.857    20013585.4054
  23635349.422    11909453.736 8   9272802.56445  23635349.078    23635356.9774
  24305652.517     1946302.141 8   1527907.26145  24305652.446    24305660.6834
  20837564.569    -1926784.948 9  -1495880.80547  20837564.194    20837569.9284
 00  9 20 17 11 30.0000000  0  9 29 31 03 11 25 15 23 09 21
  20385475.662    -8500540.331 9  -6611325.49648  20385475.689    20385480.3084
  22608111.655    -3695313.403 8  -2867303.43446  22608111.270    22608117.3554
  23206885.042     9562714.856 8   7478151.72046  23206884.807    23206892.1454
  23228404.852   -10881353.770 8  -8176647.25945  23228404.500    23228410.5354
  24660096.885    -5647725.872 7  -4107660.66345  24660096.881    24660107.4794
  20020435.848    -2815250.806 9  -2182761.95948  20020435.251    20020440.7824
  23648326.171    11977646.730 8   9325939.88845  23648325.775    23648333.7964
  24318343.130     2012991.277 7   1579872.85645  24318342.912    24318351.0994
  20840211.847    -1912873.596 9  -1485040.81047  20840211.482    20840217.2104
 00  9 20 17 12  0.0000000  0  9 29 31 03 11 25 15 23 09 21
  20387273.803    -8491091.057 9  -6603962.42948  20387273.854    20387278.4554
  22615907.860    -3654343.769 8  -2835379.08746  22615907.543    22615913.6184
  23223510.340     9650080.893 8   7546229.03146  23223510.118    23223517.5414
  23210268.862   -10976659.278 8  -8250911.23645  23210268.386    23210274.2634
  24640781.318    -5749227.091 7  -4186752.28945  24640781.343    24640792.1794
  20027389.411    -2778709.160 9  -2154287.96348  20027388.847    20027394.4334
  23661317.983    12045919.134 8   9379139.08445  23661317.650    23661325.7544
  24331123.919     2080155.173 7   1632208.26945  24331123.735    24331132.1404
  20842901.522    -1898739.494 9  -1474027.24847  20842901.150    20842906.8684
 00  9 20 17 12 30.0000000  0  9 29 31 03 11 25 15 23 09 21
  20389159.508    -8481181.813 9  -6596240.95748  20389159.548    20389164.1154
  22623799.255    -3612875.055 8  -2803065.84946  22623798.860    22623804.8224
  23240174.864     9737652.934 8   7614466.87046  23240174.613    23240182.1364
  23192166.419   -11071788.326 8  -8325037.73745  23192165.978    23192171.6214
  24621459.287    -5850763.084 7  -4265871.03845  24621459.419    24621470.2174
  20034441.402    -2741650.478 9  -2125411.08748  20034440.845    20034446.5044
  23674325.195    12114271.728 8   9432400.73945  23674324.805    23674332.9734
  24343994.876     2147792.772 7   1684912.90145  24343994.674    24344002.9944
  20845633.785    -1884381.536 9  -1462839.25347  20845633.408    20845639.1054
 00  9 20 17 13  0.0000000  0  9 29 31 03 11 25 15 23 09 21
  20391132.083    -8470815.776 9  -6588163.53548  20391132.133    20391136.7044
  22631784.680    -3570911.801 8  -2770367.24846  22631784.252    22631790.1414
  23256877.404     9825425.375 8   7682860.86246  23256877.149    23256884.7754
  23174097.486   -11166740.891 8  -8399026.71145  23174097.086    23174102.5904
  24602131.007    -5952333.343 7  -4345016.48245  24602131.029    24602141.4964
  20041591.348    -2704077.161 9  -2096133.20048  20041590.825    20041596.5014
  23687347.210    12182702.379 8   9485723.21645  23687346.831    23687354.9754
  24356955.168     2215899.818 7   1737983.22145  24356955.111    24356963.2524
  20848408.239    -1869801.755 9  -1451478.40647  20848407.878    20848413.5944
 00  9 20 17 13 30.0000000  0  9 29 31 03 11 25 15 23 09 21
  20393191.552    -8459993.296 9  -6579730.44748  20393191.607    20393196.1874
  22639863.898    -3528455.219 8  -2737284.23546  22639863.449    22639869.4154
  23273617.706     9913396.116 8   7751409.37746  23273617.500    23273625.2714
  23156062.972   -11261513.693 8  -8472875.60445  23156062.472    23156067.9194
  24582796.877    -6053934.376 7  -4424185.90145  24582797.064    24582807.3404
  20048839.502    -2665988.407 9  -2066453.68048  20048838.957    20048844.5684
  23700384.274    12251211.774 8   9539107.05245  23700383.896    23700391.7684
  24370004.339     2284474.760 7   1791418.16344  24370004.349    24370012.6054
  20851225.130    -1854999.001 9  -1439943.81647  20851224.777    20851230.5064
 00  9 20 17 14  0.0000000  0  9 29 31 03 11 25 15 23 09 21
  20395337.529    -8448716.315 9  -6570943.20348  20395337.572    20395342.1794
  22648036.531    -3485507.962 8  -2703818.89146  22648036.111    22648042.0374
  23290395.125    10001561.512 8   7820109.54346  23290394.955    23290402.6064
  23138062.831   -11356105.214 8  -8546583.23445  23138062.313    23138067.8164
  24563457.283    -6155564.365 7  -4503377.92845  24563457.462    24563467.6064
  20056185.475    -2627385.518 9  -2036373.53648  20056184.912    20056190.4564
  23713436.159    12319799.223 8   9592551.70945  23713435.751    23713443.6244
  24383142.243     2353514.645 7   1845215.37745  24383142.330    24383150.3724
  20854084.360    -1839973.868 9  -1428235.94347  20854083.978    20854089.7034
 00  9 20 17 14 30.0000000  0  9 29 31 03 11 25 15 23 09 21
  20397569.735    -8436986.000 9  -6561802.70948  20397569.786    20397574.4204
  22656302.187    -3442072.005 8  -2669972.73746  22656301.748    22656307.7414
  23307209.011    10089918.309 8   7888958.88446  23307208.755    23307216.4744
  23120097.527   -11450513.201 8  -8620147.85746  23120097.089    23120102.6344
  24544112.764    -6257220.799 7  -4582590.54745  24544112.954    24544123.0724
  20063629.091    -2588269.021 9  -2005893.17148  20063628.539    20063634.1004
  23726502.794    12388464.784 7   9646057.26145  23726502.504    23726510.2554
  24396368.173     2423017.427 7   1899373.32445  24396368.324    24396376.2464
  20856985.896    -1824726.188 9  -1416354.65647  20856985.510    20856991.2484
 00  9 20 17 15  0.0000000  0  9 29 31 03 11 25 15 23 09 21
  20399888.057    -8424803.318 9  -6552309.72448  20399888.111    20399892.7434
  22664660.315    -3398149.632 8  -2635747.54746  22664659.942    22664665.9934
  23324058.665    10178463.910 8   7957955.34246  23324058.530    23324066.4064
  23102167.586   -11544735.312 8  -8693567.64246  23102167.282    23102172.7934
  24524763.509    -6358901.445 7  -4661822.10945  24524763.710    24524773.9684
  20071170.433    -2548639.152 9  -1975012.77148  20071169.868    20071175.4094
  23739584.209    12457208.549 8   9699623.73745  23739584.007    23739591.8854
  24409681.781     2492980.999 7   1953890.30645  24409681.938    24409690.1004
  20859929.740    -1809255.735 9  -1404299.78247  20859929.401    20859935.1654
 00  9 20 17 15 30.0000000  0  9 29 31 03 11 25 15 23 09 21
  20402292.405    -8412168.602 9  -6542464.50248  20402292.437    20402297.0904
  22673110.970    -3353741.979 8  -2601144.22846  22673110.542    22673116.5794
  23340943.939    10267196.034 8   8027097.16946  23340943.740    23340951.7484
  23084273.779   -11638768.294 8  -8766840.06846  23084273.430    23084278.8754
  24505410.217    -6460602.811 7  -4741069.76645  24505410.457    24505421.0724
  20078809.611    -2508495.179 9  -1943731.77548  20078809.040    20078814.5494
  23752680.979    12526031.596 8   9753252.01945  23752680.631    23752688.6984
  24423082.875     2563404.351 7   2008765.50545  24423082.961    24423091.4814
  20862916.368    -1793560.954 9  -1392070.10247  20862916.024    20862921.8274
 00  9 20 17 16  0.0000000  0  9 29 31 03 11 25 15 23 09 21
  20404782.168    -8399084.802 9  -6532269.34048  20404782.203    20404786.8944
  22681653.182    -3308853.104 8  -2566165.95846  22681652.718    22681658.8034
  23357863.723    10356109.954 8   8096380.62246  23357863.627    23357871.6644
  23066415.969   -11732611.487 8  -8839964.59545  23066415.583    23066421.0294
  24486053.618    -6562323.728 7  -4820332.67245  24486053.708    24486063.8154
  20086546.219    -2467839.150 9  -1912051.78848  20086545.644    20086551.1424
  23765792.379    12594932.002 8   9806940.56545  23765791.984    23765800.1804
  24436570.819     2634283.265 8   2063995.73445  24436571.063    24436579.6164
  20865945.309    -1777643.778 9  -1379667.11247  20865944.987    20865950.7814
 00  9 20 17 16 30.0000000  0  9 29 31 03 11 25 15 23 09 21
  20407357.358    -8385551.938 9  -6521724.26548  20407357.410    20407362.1214
  22690286.632    -3263483.928 8  -2530813.36346  22690286.232    22690292.3824
  23374817.945    10445203.649 8   8165804.17946  23374817.820    23374825.7074
  23048594.748   -11826261.655 8  -8912938.72845  23048594.500    23048599.9094
  24466693.759    -6664060.406 7  -4899607.82845  24466693.811    24466703.4864
  20094380.482    -2426670.206 9  -1879972.10348  20094379.920    20094385.3694
  23778918.712    12663911.227 8   9860690.49845  23778918.287    23778926.6194
  24450145.339     2705616.522 8   2119579.99945  24450145.406    24450153.9814
  20869016.913    -1761502.530 9  -1367089.55347  20869016.580    20869022.3514
 00  9 20 17 17  0.0000000  0  9 29 31 03 11 25 15 23 09 21
  20410017.586    -8371572.365 9  -6510831.09948  20410017.649    20410022.3074
  22699010.975    -3217637.501 8  -2495088.92546  22699010.601    22699016.7204
  23391805.581    10534473.174 8   8235364.68946  23391805.440    23391813.0664
  23030810.623   -11919717.315 8  -8985761.28645  23030810.352    23030815.7744
  24447330.619    -6765811.358 7  -4978894.13245  24447330.836    24447340.3244
  20102312.025    -2384989.816 9  -1847493.91148  20102311.449    20102316.8614
  23792059.891    12732968.036 8   9914500.90245  23792059.450    23792067.8444
  24463805.594     2777400.915 8   2175515.77945  24463805.729    24463813.9884
  20872131.065    -1745137.762 9  -1354337.83547  20872130.704    20872136.4454
 00  9 20 17 17 30.0000000  0  9 29 31 03 11 25 15 23 09 21
  20412762.888    -8357145.896 9  -6499589.70748  20412762.968    20412767.5764
  22707825.970    -3171315.036 8  -2458993.55046  22707825.599    22707831.6494
  23408826.236    10623916.663 8   8305060.78246  23408826.057    23408833.6284
  23013064.214   -12012974.993 8  -9058429.55646  23013064.007    23013069.3034
  24427965.378    -6867572.871 7  -5058188.63944  24427965.731    24427975.1594
  20110340.914    -2342797.598 9  -1814616.87748  20110340.351    20110345.8214
  23805215.935    12802103.525 7   9968372.58945  23805215.642    23805223.9394
  24477551.559     2849635.271 8   2231802.11345  24477551.553    24477559.9334
  20875288.021    -1728547.908 9  -1341410.67147  20875287.679    20875293.4134
 00  9 20 17 18  0.0000000  0  9 29 31 03 11 25 15 23 09 21
  20415592.850    -8342274.387 9  -6488001.53248  20415592.959    20415597.5214
  22716730.943    -3124519.104 8  -2422529.23346  22716730.584    22716736.6434
  23425879.290    10713530.887 8   8374889.93845  23425879.121    23425886.7834
  22995356.004   -12106032.653 8  -9130941.97346  22995355.717    22995360.9574
  24408599.160    -6969342.733 7  -5137489.67545  24408599.578    24408608.8814
  20118467.184    -2300093.910 9  -1781341.30248  20118466.635    20118472.1454
  23818386.846    12871317.381 7  10022305.36145  23818386.554    23818394.8644
  24491382.624     2922317.072 7   2288437.30545  24491382.709    24491390.7104
  20878487.737    -1711733.191 9  -1328308.31547  20878487.404    20878493.1814
 00  9 20 17 18 30.0000000  0  8 29 31 03 11 25 15 23 21
  20418507.414    -8326958.645 9  -6476067.19848  20418507.471    20418511.9894
  22725725.752    -3077251.692 8  -2385697.53046  22725725.338    22725731.3954
  23442964.396    10803313.028 8   8444849.93645  23442964.124    23442971.8824
  22977686.233   -12198887.993 8  -9203296.72646  22977685.889    22977691.2654
  24389231.865    -7071118.525 7  -5216795.28445  24389231.987    24389241.4054
  20126690.697    -2256879.162 9  -1747667.50248  20126690.122    20126695.6854
  23831572.871    12940609.732 7  10076299.32245  23831572.436    23831580.8374
  20881730.332    -1694693.268 9  -1315030.47547  20881729.999    20881735.8184
 00  9 20 17 19  0.0000000  0  8 29 31 03 11 25 15 23 21
  20421506.454    -8311198.776 9  -6463786.78848  20421506.465    20421511.0074
  22734810.017    -3029513.686 8  -2348499.13646  22734809.589    22734815.6144
  23460080.828    10893261.075 8   8514939.18145  23460080.694    23460088.5624
  22960055.586   -12291537.033 8  -9275490.74446  22960055.305    22960060.7354
  24369863.787    -7172895.971 7  -5296102.24345  24369864.046    24369873.5854
  20135011.639    -2213152.483 9  -1713594.78748  20135011.082    20135016.6744
  23844773.973    13009982.179 7  10130355.62545  23844773.497    23844782.1544
  20885016.137    -1677426.350 9  -1301575.75447  20885015.824    20885021.6604
 00  9 20 17 19 30.0000000  0  8 29 31 03 11 25 15 23 21
  20424589.258    -8294998.449 9  -6451163.17348  20424589.271    20424593.8674
  22743982.820    -2981309.993 8  -2310937.87346  22743982.419    22743988.5394
  23477227.925    10983369.685 8   8585153.54445  23477227.873    23477235.8264
  22942464.195   -12383980.106 8  -9347524.25246  22942463.914    22942469.3404
  24350495.766    -7274675.033 7  -5375410.37645  24350496.012    24350505.6444
  20143429.385    -2168916.860 9  -1679125.49748  20143428.834    20143434.4494
  23857990.046    13079432.239 8  10184472.40845  23857989.537    23857998.0744
  20888344.702    -1659934.894 9  -1287946.07547  20888344.350    20888350.2094
 00  9 20 17 20  0.0000000  0  8 29 31 03 11 25 15 23 21
  20427755.443    -8278359.856 9  -6438198.05248  20427755.499    20427760.1524
  22753243.758    -2932643.729 8  -2273016.16846  22753243.318    22753249.4914
  23494404.853    11073634.730 8   8655489.80345  23494404.892    23494412.7664
  22924912.425   -12476215.567 8  -9419396.01846  22924912.034    22924917.4024
  24331127.969    -7376453.822 7  -5454718.34245  24331128.220    24331137.9364
  20151943.785    -2124173.539 9  -1644260.60548  20151943.230    20151948.8134
  23871220.919    13148959.111 8  10238649.05745  23871220.278    23871228.7364
  20891715.877    -1642219.193 9  -1274141.65747  20891715.526    20891721.4294
 00  9 20 17 20 30.0000000  0  8 29 31 03 11 25 15 23 21
  20431005.123    -8261282.746 9  -6424891.22748  20431005.169    20431009.8444
  22762592.481    -2883515.800 8  -2234734.69846  22762592.015    22762598.3434
  23511611.471    11164054.988 8   8725947.02445  23511611.420    23511619.3904
  22907400.710   -12568239.663 8  -9491103.07846  22907400.437    22907405.8414
  24311760.934    -7478228.391 7  -5534022.97445  24311761.199    24311770.7054
  20160554.919    -2078921.678 9  -1608999.44448  20160554.379    20160559.9274
  23884466.360    13218564.134 8  10292886.58945  23884465.808    23884474.3424
  20895129.948    -1624278.011 9  -1260161.53747  20895129.623    20895135.5424
 00  9 20 17 21  0.0000000  0  8 29 31 03 11 25 15 23 21
  20434338.010    -8243768.326 9  -6411243.64448  20434338.042    20434342.7434
  22772028.624    -2833928.125 8  -2196095.00646  22772028.203    22772034.6294
  23528846.990    11254627.726 8   8796523.06445  23528846.918    23528854.9874
  22889929.863   -12660049.812 8  -9562643.41746  22889929.562    22889934.9624
  24292394.862    -7579996.174 7  -5613322.31545  24292395.145    24292404.7064
  20169262.799    -2033161.671 9  -1573342.33248  20169262.250    20169267.8024
  23897726.953    13288247.592 8  10347185.25745  23897726.328    23897734.8324
  20898587.129    -1606110.451 9  -1246005.02247  20898586.799    20898592.7244
 00  9 20 17 21 30.0000000  0  8 29 31 03 11 25 15 23 21
  20437753.956    -8225817.457 9  -6397255.96748  20437754.017    20437758.7094
  22781551.996    -2783882.474 8  -2157098.44746  22781551.600    22781558.0484
  23546111.149    11345350.311 8   8867215.86346  23546111.076    23546119.2244
  22872500.112   -12751643.273 8  -9634014.90946  22872499.768    22872505.2804
  24273030.910    -7681754.184 8  -5692614.06545  24273031.050    24273040.6364
  20178067.293    -1986893.797 9  -1537289.47048  20178066.745    20178072.3264
  23911002.172    13358009.747 7  10401545.24545  23911001.668    23911010.2734
  20902087.446    -1587715.984 9  -1231671.69847  20902087.156    20902093.1064
 00  9 20 17 22  0.0000000  0  8 29 31 03 11 25 15 23 21
  20441252.677    -8207431.849 9  -6382929.53348  20441252.715    20441257.3894
  22791161.929    -2733381.958 8  -2117747.44746  22791161.527    22791167.9784
  23563403.043    11436219.333 8   8938022.76846  23563402.986    23563411.2384
  22855111.852   -12843018.111 8  -9705216.05446  22855111.636    22855117.2194
  24253669.359    -7783499.889 8  -5771896.20345  24253669.444    24253679.0574
  20186968.269    -1940118.796 9  -1500841.43548  20186967.723    20186973.4204
  23924292.502    13427850.453 7  10455966.46645  23924291.968    23924300.8144
  20905631.044    -1569094.200 9  -1217161.24147  20905630.733    20905636.7214
 00  9 20 17 22 30.0000000  0  8 29 31 03 11 25 15 23 21
  20444833.675    -8188613.948 9  -6368266.25048  20444833.696    20444838.3534
  22800857.837    -2682429.987 8  -2078044.66046  22800857.455    22800863.8714
  23580721.920    11527230.429 8   9008940.36045  23580721.915    23580730.2184
  22837765.649   -12934173.104 8  -9776245.89046  22837765.434    22837771.0744
  24234310.536    -7885232.154 8  -5851167.90545  24234310.546    24234320.2304
  20195965.327    -1892838.778 9  -1463999.89348  20195964.805    20195970.5634
  23937597.270    13497768.509 8  10510447.92945  23937596.875    23937605.9384
  20909217.734    -1550246.140 9  -1202474.46747  20909217.450    20909223.4294
 00  9 20 17 23  0.0000000  0  8 29 31 03 11 25 15 23 21
  20448496.969    -8169363.387 9  -6353265.82748  20448496.970    20448501.6074
  22810639.598    -2631027.152 8  -2037990.55246  22810639.143    22810645.6364
  23598067.747    11618382.502 8   9079967.79845  23598067.597    23598075.9744
  22820462.070   -13025104.098 8  -9847101.16846  22820461.813    22820467.5334
  24214955.086    -7986946.230 8  -5930425.45245  24214954.955    24214964.6484
  20205058.814    -1845052.366 9  -1426763.75548  20205058.309    20205064.0734
  23950917.572    13567765.784 8  10564991.09045  23950917.185    23950925.9664
  20912847.897    -1531169.660 9  -1187609.70547  20912847.637    20912853.5704
 00  9 20 17 23 30.0000000  0  8 29 31 03 11 25 15 23 21
  20452242.031    -8149682.875 9  -6337930.37548  20452242.057    20452246.6884
  22820506.249    -2579177.408 8  -1997588.21846  22820505.832    22820512.3754
  23615439.449    11709671.121 8   9151101.62545  23615439.362    23615447.7254
  22803201.156   -13115810.191 8  -9917781.21546  22803201.002    22803206.7264
  24195602.896    -8088641.048 7  -6009667.98745  24195602.894    24195612.6464
  20214248.323    -1796761.560 9  -1389134.58748  20214247.787    20214253.5684
  23964252.596    13637841.022 8  10619595.02645  23964252.173    23964260.7824
  20916521.341    -1511866.140 9  -1172568.02947  20916521.054    20916526.9274
 00  9 20 17 24  0.0000000  0  8 29 31 03 11 25 15 23 21
  20456068.734    -8129573.218 9  -6322260.52548  20456068.778    20456073.4434
  22830457.688    -2526882.745 8  -1956839.18246  22830457.224    22830463.7844
  23632836.872    11801093.990 8   9222340.07645  23632836.727    23632845.0744
  22785983.881   -13206288.310 8  -9988283.61646  22785983.671    22785989.3254
  24176254.946    -8190313.309 7  -6088892.94845  24176255.007    24176264.8224
  20223533.764    -1747966.325 9  -1351112.36248  20223533.219    20223539.0154
  23977602.658    13707994.752 8  10674260.10545  23977602.211    23977610.6984
  20920238.105    -1492334.941 9  -1157348.93747  20920237.781    20920243.6334
 00  9 20 17 24 30.0000000  0  8 29 31 03 11 25 15 23 21
  20459976.856    -8109035.848 9  -6306257.39448  20459976.923    20459981.5944
  22840493.294    -2474145.462 8  -1915745.25446  22840492.816    22840499.4304
  23650259.100    11892647.802 8   9293680.57145  23650258.996    23650267.3404
  22768810.309   -13296536.097 8 -10058606.53546  22768810.041    22768815.7734
  24156911.872    -8291960.827 7  -6168098.64045  24156911.888    24156921.4874
  20232914.973    -1698667.620 9  -1312697.82348  20232914.435    20232920.2834
  23990967.590    13778226.914 8  10728986.30645  23990967.178    23990975.5624
  20923998.244    -1472575.733 9  -1141952.18847  20923997.898    20924003.7224
 00  9 20 17 25  0.0000000  0  8 29 31 03 11 25 15 23 21
  20463966.061    -8088072.658 9  -6289922.45448  20463966.121    20463970.8154
  22850612.535    -2420968.416 8  -1874308.66146  22850612.110    22850618.7494
  23667705.662    11984329.033 8   9365120.32345  23667705.528    23667714.0364
  22751680.934   -13386551.705 8 -10128748.53546  22751680.689    22751686.4084
  24137574.046    -8393581.277 7  -6247283.20245  24137574.075    24137583.4484
  20242391.798    -1648866.702 9  -1273891.94447  20242391.264    20242397.1304
  24004347.285    13848537.026 7  10783773.28345  24004346.786    24004355.3934
  20927801.767    -1452588.488 9  -1126377.75147  20927801.385    20927807.2194
 00  9 20 17 25 30.0000000  0  8 29 31 03 11 25 15 23 21
  20468036.197    -8066684.116 9  -6273256.07148  20468036.253    20468040.9384
  22860815.178    -2367353.178 8  -1832530.62246  22860814.847    22860821.4374
  23685176.007    12076135.709 8   9436657.84145  23685175.903    23685184.4184
  22734596.224   -13476331.739 8 -10198706.96046  22734595.997    22734601.8304
  24118242.367    -8495170.885 8  -6326443.73645  24118242.399    24118251.3584
  20251964.264    -1598563.243 9  -1234694.47448  20251963.727    20251969.6154
  24017741.707    13918925.872 8  10838621.61645  24017741.214    24017750.1364
  20931648.899    -1432371.859 9  -1110624.56547  20931648.511    20931654.3524
 00  9 20 17 26  0.0000000  0  8 29 31 03 11 25 15 23 21
  20472186.947    -8044871.996 9  -6256259.63148  20472186.970    20472191.6674
  22871100.848    -2313302.655 8  -1790413.40046  22871100.406    22871106.9484
  23702669.483    12168064.541 8   9508290.54245  23702669.393    23702678.0514
  22717556.706   -13565874.323 8 -10268480.36846  22717556.623    22717562.4094
  24098917.107    -8596727.441 7  -6405578.53245  24098916.907    24098925.5284
  20261632.218    -1547758.094 9  -1195106.07648  20261631.674    20261637.5384
  24031151.501    13989393.484 7  10893531.31645  24031150.870    24031159.8764
  20935539.641    -1411926.065 9  -1094692.81047  20935539.278    20935545.0884
 00  9 20 17 26 30.0000000  0  8 29 31 03 11 25 15 23 21
  20476417.921    -8022638.094 9  -6238934.52948  20476417.941    20476422.6824
  22881468.573    -2258819.748 8  -1747959.24446  22881468.169    22881474.7484
  23720185.813    12260112.185 8   9580015.83745  23720185.747    23720194.2984
  22700562.854   -13655177.250 8 -10338067.02646  22700562.777    22700568.6044
  24079597.946    -8698249.125 7  -6484686.16745  24079597.772    24079606.4054
  20271395.407    -1496452.528 9  -1155127.74248  20271394.885    20271400.7194
  24044575.963    14059939.411 8  10948502.01845  24044575.407    24044584.3864
  20939473.961    -1391251.107 9  -1078582.48547  20939473.614    20939479.3994
 00  9 20 17 27  0.0000000  0  8 29 31 03 11 25 15 23 21
  20480728.926    -7999983.521 9  -6221281.63248  20480728.966    20480733.7054
  22891918.233    -2203906.350 8  -1705169.65146  22891917.885    22891924.4434
  23737724.093    12352276.100 8   9651831.70845  23737724.065    23737732.5794
  22683615.182   -13744237.910 8 -10407464.90746  22683615.050    22683620.8364
  24060286.037    -8799732.531 7  -6563763.98745  24060285.781    24060294.4404
  20281253.703    -1444646.995 9  -1114759.82348  20281253.161    20281259.0244
  24058015.544    14130564.057 8  11003534.01945  24058014.882    24058024.0594
  20943452.047    -1370346.389 9  -1062293.12947  20943451.690    20943457.4724
 00  9 20 17 27 30.0000000  0  8 29 31 03 11 25 15 23 21
  20485119.811    -7976909.594 9  -6203301.96748  20485119.826    20485124.5444
  22902449.377    -2148565.177 8  -1662046.72446  22902448.935    22902455.4924
  23755283.981    12444552.965 8   9723735.61345  23755283.850    23755292.3284
  22666714.054   -13833053.732 8 -10476672.00746  22666713.911    22666719.7254
  24040981.864    -8901174.970 8  -6642809.87745  24040981.645    24040990.5624
  20291206.946    -1392342.321 9  -1074002.96248  20291206.420    20291212.3004
  24071470.142    14201267.408 7  11058627.37245  24071469.609    24071478.3834
  20947473.953    -1349211.154 9  -1045824.14747  20947473.606    20947479.3974
 00  9 20 17 28  0.0000000  0  8 29 31 03 11 25 15 23 21
  20489590.195    -7953417.857 9  -6184996.74048  20489590.212    20489594.8854
  22913061.335    -2092798.930 8  -1618592.57246  22913060.908    22913067.5154
  23772864.711    12536939.977 8   9795725.34445  23772864.588    23772873.0274
  22649859.834   -13921622.668 8 -10545686.72146  22649859.698    22649865.6374
  24021686.009    -9002573.880 8  -6721821.87945  24021686.003    24021694.7884
  20301255.032    -1339539.374 9  -1032857.85548  20301254.524    20301260.4194
  24084939.676    14272049.537 8  11113782.08045  24084939.123    24084948.0154
  20951539.760    -1327845.297 9  -1029175.47347  20951539.421    20951545.2694
 00  9 20 17 28 30.0000000  0  8 29 31 03 11 25 15 23 21
  20494139.641    -7929510.366 9  -6166367.55047  20494139.672    20494144.3004
  22923753.722    -2036610.596 8  -1574809.52746  22923753.305    22923759.8104
  23790465.731    12629433.421 8   9867798.01145  23790465.554    23790473.9754
  22633053.107   -14009942.614 8 -10614507.41646  22633052.884    22633058.9564
  24002399.056    -9103927.465 8  -6800798.53945  24002398.995    24002407.7214
  20311397.711    -1286239.552 9   -991325.56248  20311397.202    20311403.0334
  24098424.068    14342910.007 7  11168997.87645  24098423.628    24098432.5304
  20955649.375    -1306249.285 9  -1012347.44747  20955649.026    20955654.9064
 00  9 20 17 29  0.0000000  0  8 29 31 03 11 25 15 23 21
  20498768.081    -7905187.802 9  -6147414.92647  20498768.138    20498772.7294
  22934526.153    -1980001.795 8  -1530698.83646  22934525.649    22934532.1804
  23808086.467    12722031.192 8   9939951.97045  23808086.295    23808094.9584
  22616294.380   -14098010.467 8 -10683131.68946  22616294.155    22616300.1874
  23983121.326    -9205231.981 8  -6879736.94445  23983121.251    23983130.0674
  20321634.928    -1232442.950 9   -949406.17048  20321634.425    20321640.2534
  24111923.610    14413849.652 7  11224275.35845  24111923.103    24111931.9954
  20959802.984    -1284421.838 9   -995339.08347  20959802.661    20959808.5704
 00  9 20 17 29 30.0000000  0  8 29 31 03 11 25 15 23 21
  20503475.117    -7880452.107 9  -6128140.37947  20503475.170    20503479.7724
  22945377.705    -1922976.021 8  -1486263.22746  22945377.275    22945383.8164
  23825726.406    12814729.545 8  10012184.28845  23825726.282    23825735.1254
  22599583.867   -14185824.500 8 -10751558.17646  22599583.654    22599589.6564
  23963853.254    -9306485.660 8  -6958635.75345  23963853.179    23963862.0524
  20331966.421    -1178150.954 9   -907100.74648  20331965.903    20331971.7824
  24125438.046    14484867.851 8  11279614.04445  24125437.626    24125446.5584
  20964000.582    -1262363.421 9   -978150.74047  20964000.264    20964006.1644
 00  9 20 17 30  0.0000000  0  8 29 31 03 11 25 15 23 21
  20508260.455    -7855305.092 9  -6108545.32747  20508260.507    20508265.1204
  22956308.266    -1865535.657 8  -1441504.57346  22956307.848    22956314.3474
  23843385.012    12907525.386 8  10084492.58645  23843384.907    23843393.7434
  22582922.089   -14273382.148 8 -10819784.89546  22582921.948    22582927.8854
  23944595.503    -9407685.989 8  -7037492.98245  23944595.272    23944604.1924
  20342392.007    -1123364.336 9   -864409.90548  20342391.495    20342397.4104
  24138967.461    14555964.415 8  11335013.79445  24138967.011    24138975.8744
  20968242.222    -1240073.520 9   -960782.01447  20968241.888    20968247.7894
 00  9 20 17 30 30.0000000  0  8 29 31 03 11 25 15 23 21
  20513123.908    -7829747.582 9  -6088630.41347  20513123.950    20513128.5814
  22967317.342    -1807683.104 8  -1396424.73246  22967316.877    22967323.3484
  23861061.787    13000416.488 8  10156875.09445  23861061.701    23861070.5294
  22566309.831   -14360680.483 8 -10887809.53546  22566309.620    22566315.5694
  23925348.413    -9508829.357 8  -7116305.83645  23925348.197    23925357.1664
  20352911.632    -1068083.740 9   -821334.15048  20352911.093    20352916.9784
  24152511.797    14627139.873 8  11390475.01545  24152511.354    24152520.2554
  20972528.142    -1217551.254 9   -943232.22947  20972527.791    20972533.6814
 00  9 20 17 31  0.0000000  0  8 29 31 03 11 25 15 23 21
  20518065.107    -7803781.419 9  -6068397.07347  20518065.189    20518069.8034
  22978404.173    -1749421.458 8  -1351026.11446  22978403.792    22978410.1844
  23878755.908    13093399.433 8  10229329.18645  23878755.821    23878764.6354
  22549747.020   -14447717.732 8 -10955630.74746  22549746.955    22549752.8954
  23906112.565    -9609913.655 8  -7195072.66145  23906112.453    23906121.4294
  20363524.967    -1012310.466 9   -777874.49048  20363524.455    20363530.2784
  24166071.260    14698393.855 8  11445997.42045  24166070.797    24166079.7144
  20976858.116    -1194797.347 9   -925501.94047  20976857.734    20976863.6354
 00  9 20 17 31 30.0000000  0  8 29 31 03 11 25 15 23 21
  20523083.853    -7777408.130 9  -6047846.48647  20523083.915    20523088.4884
  22989568.522    -1690752.857 8  -1305310.38746  22989568.163    22989574.4674
  23896467.009    13186471.373 7  10301852.62445  23896466.970    23896475.6674
  22533234.507   -14534491.303 8 -11023246.47046  22533234.386    22533240.3474
  23886888.694    -9710936.433 8  -7273791.55245  23886888.541    23886897.3674
  20374231.868     -956045.443 9   -734031.65547  20374231.313    20374237.1364
  24179645.657    14769726.707 8  11501581.27145  24179645.139    24179654.2184
  20981232.332    -1171810.737 9   -907590.31647  20981231.965    20981237.8694
 00  9 20 17 32  0.0000000  0  8 29 31 03 11 25 15 23 21
  20528179.789    -7750629.063 9  -6026979.71247  20528179.827    20528184.3924
  23000809.704    -1631680.307 8  -1259279.90046  23000809.321    23000815.6494
  23914194.403    13279629.201 8  10374442.99645  23914194.248    23914203.2334
  22516772.867   -14620998.769 8 -11090654.86846  22516772.623    22516778.4614
  23867677.109    -9811894.595 8  -7352460.08545  23867676.812    23867685.4584
  20385032.138     -899289.533 9   -689806.30147  20385031.626    20385037.4474
  24193234.911    14841138.411 7  11557226.59345  24193234.412    24193243.6274
  20985650.873    -1148591.126 9   -889497.13947  20985650.536    20985656.4734
 00  9 20 17 32 30.0000000  0  8 29 31 03 11 25 15 23 21
  20533352.566    -7723445.909 9  -6005798.06347  20533352.586    20533357.1794
  23012127.385    -1572206.231 8  -1212936.53046  23012126.986    23012133.3174
  23931937.654    13372869.828 8  10447097.84845  23931937.544    23931946.5364
  22500362.019   -14707237.668 8 -11157853.99546  22500361.814    22500367.6504
  23848477.748    -9912786.007 8  -7431076.59945  23848477.583    23848486.1354
  20395925.667     -842043.716 9   -645199.20647  20395925.145    20395930.9834
  24206839.288    14912628.903 7  11612933.29445  24206838.734    24206848.1864
  20990113.843    -1125138.440 9   -871222.35047  20990113.497    20990119.4454
 00  9 20 17 33  0.0000000  0  8 29 31 03 11 25 15 23 21
  20538602.154    -7695859.344 9  -5984302.06847  20538602.182    20538606.7644
  23023520.962    -1512332.531 8  -1166281.77746  23023520.539    23023526.9434
  23949696.228    13466191.340 8  10519815.75345  23949696.151    23949705.3324
  22484002.929   -14793204.801 8 -11224841.35046  22484002.768    22484008.5254
  23829291.629   -10013606.795 7  -7509638.08445  23829291.646    23829300.1904
  20406912.424     -784308.181 9   -600210.50747  20406911.889    20406917.7004
  24220458.672    14984199.015 7  11668702.06745  24220458.235    24220467.6684
  20994621.285    -1101451.888 9   -852765.31147  20994620.906    20994626.8354
 00  9 20 17 33 30.0000000  0  8 29 31 03 11 25 15 23 21
  20543928.103    -7667871.531 9  -5962493.41248  20543928.124    20543932.7074
  23034989.919    -1452062.322 8  -1119318.05146  23034989.598    23034996.0914
  23967469.390    13559590.119 8  10592593.85945  23967469.456    23967478.5844
  22467696.077   -14878898.146 8 -11291615.35446  22467695.878    22467701.5894
  23810119.506   -10114354.951 7  -7588142.99845  23810119.538    23810128.1414
  20417992.091     -726084.331 9   -554841.31147  20417991.529    20417997.4034
  24234093.266    15055848.430 7  11724532.59045  24234092.657    24234102.2114
  20999173.229    -1077531.093 9   -834125.75847  20999172.855    20999178.8464
 00  9 20 17 34  0.0000000  0  8 29 31 03 11 25 15 23 21
  20549329.992    -7639484.385 9  -5940373.58248  20549330.045    20549334.6514
  23046533.822    -1391399.032 8  -1072048.02946  23046533.497    23046539.9904
  23985256.999    13653062.833 8  10665429.59645  23985256.932    23985265.8974
  22451441.721   -14964315.799 8 -11358174.53746  22451441.470    22451447.1944
  23790961.753   -10215028.628 8  -7666589.86645  23790961.750    23790970.3084
  20429164.267     -667373.804 9   -509092.87147  20429163.724    20429169.6014
  24247742.807    15127576.523 7  11780424.45045  24247742.197    24247751.7924
  21003769.813    -1053375.917 9   -815303.55647  21003769.443    21003775.4394
 00  9 20 17 34 30.0000000  0  8 29 31 03 11 25 15 23 21
  20554807.535    -7610699.765 9  -5917944.03948  20554807.593    20554812.2254
  23058152.051    -1330345.429 8  -1024473.86746  23058151.723    23058158.2474
  24003057.720    13746605.920 8  10738320.15045  24003057.589    24003066.8004
  22435240.042   -15049455.984 8 -11424517.51646  22435239.797    22435245.4744
  23771818.952   -10315625.111 8  -7744976.59345  23771818.902    23771827.3934
  20440428.858     -608178.037 9   -462966.33947  20440428.336    20440434.1854
  24261407.246    15199383.098 7  11836377.47345  24261406.727    24261416.1214
  21008410.907    -1028986.635 9   -796298.94547  21008410.550    21008416.5704
 00  9 20 17 35  0.0000000  0  8 29 31 03 11 25 15 23 21
  20560360.559    -7581518.649 9  -5895205.53148  20560360.598    20560365.2184
  23069844.188    -1268903.570 8   -976597.17646  23069843.790    23069850.3514
  24020871.580    13840217.201 8  10811263.88245  24020871.507    24020880.6564
  22419091.896   -15134315.362 8 -11490641.67946  22419091.636    22419097.1454
  23752691.464   -10416141.265 8  -7823300.71945  23752691.354    23752699.6284
  20451785.790     -548497.370 9   -416461.95847  20451785.253    20451791.0234
  24275086.667    15271268.817 7  11892392.20145  24275086.178    24275095.8184
  21013096.731    -1004362.541 9   -777111.36247  21013096.386    21013102.4204
 00  9 20 17 35 30.0000000  0  8 29 31 03 11 25 15 23 21
  20565988.737    -7551942.604 9  -5872159.28848  20565988.772    20565993.3964
  23081609.550    -1207076.427 8   -928420.26646  23081609.174    23081615.8304
  24038697.899    13933893.738 7  10884258.44545  24038697.626    24038706.7844
  22402997.566   -15218891.773 8 -11556545.34846  22402997.268    22403002.7714
  23733579.689   -10516574.341 8  -7901560.12045  23733579.665    23733587.6704
  20463234.805     -488332.860 9   -369580.55647  20463234.258    20463239.9904
  24288781.124    15343233.536 7  11948468.44745  24288780.586    24288790.3094
  21017827.318     -979503.380 9   -757740.61447  21017826.961    21017832.9924
 00  9 20 17 36  0.0000000  0  8 29 31 03 11 25 15 23 21
  20571691.780    -7521973.094 9  -5848806.44647  20571691.804    20571696.4684
  23093447.838    -1144866.346 8   -879944.95946  23093447.419    23093454.1424
  24056535.474    14027632.830 7  10957301.73545  24056535.516    24056544.7914
  22386957.656   -15303182.408 8 -11622226.34446  22386957.352    22386962.7644
  23714484.104   -10616921.657 8  -7979752.71145  23714483.945    23714492.1404
  20474775.694     -427685.441 9   -322322.85947  20474775.138    20474780.8594
  24302491.005    15415277.645 7  12004606.53845  24302490.395    24302499.8964
  21022602.806     -954408.131 9   -738185.89747  21022602.445    21022608.4764
 00  9 20 17 36 30.0000000  0  8 29 31 03 11 25 15 23 21
  20577469.254    -7491612.139 9  -5825148.57747  20577469.284    20577474.0034
  23105358.384    -1082276.738 8   -831173.91046  23105357.954    23105364.5994
  24074385.022    14121431.146 8  11030391.14445  24074384.939    24074394.0904
  22370972.441   -15387185.182 8 -11687683.01146  22370972.119    22370977.5964
  23695405.177   -10717180.891 8  -8057876.67045  23695405.093    23695413.3534
  20486408.087     -366556.791 9   -274690.17347  20486407.515    20486413.3134
  24316215.758    15487400.693 7  12060806.14245  24316215.124    24316224.5904
  21027423.042     -929077.564 9   -718447.81147  21027422.688    21027428.7534
 00  9 20 17 37  0.0000000  0  8 29 31 03 11 25 15 23 21
  20583321.093    -7460860.656 9  -5801186.40747  20583321.123    20583325.8214
  23117340.635    -1019309.646 8   -782108.74246  23117340.218    23117346.9814
  24092245.221    14215286.163 7  11103524.76145  24092245.215    24092254.1354
  22355042.564   -15470897.274 8 -11752913.18546  22355042.227    22355047.7304
  23676343.772   -10817348.432 8  -8135929.17145  23676343.799    23676352.0164
  20498131.988     -304947.244 9   -226682.76347  20498131.419    20498137.2594
  24329955.441    15559603.378 7  12117067.83345  24329954.992    24329964.6084
  21032288.343     -903510.110 9   -698525.14547  21032288.030    21032294.0684
 00  9 20 17 37 30.0000000  0  8 29 31 03 11 25 15 23 21
  20589246.843    -7429720.664 9  -5776921.49747  20589246.871    20589251.5874
  23129394.106     -955968.260 8   -732751.89546  23129393.714    23129400.5604
  24110115.591    14309194.319 7  11176699.80645  24110115.484    24110124.5484
  22339168.328   -15554316.583 8 -11817915.21846  22339168.085    22339173.6264
  23657300.308   -10917422.206 8  -8213908.60145  23657300.381    23657308.3724
  20509947.172     -242858.317 9   -178301.81547  20509946.599    20509952.4424
  24343710.089    15631885.223 7  12173391.19645  24343709.651    24343719.5814
  21037198.766     -877706.193 9   -678418.22647  21037198.381    21037204.4484
 00  9 20 17 38  0.0000000  0  8 29 31 03 11 25 15 23 21
  20595246.315    -7398193.482 9  -5752354.87747  20595246.347    20595251.0624
  23141518.395     -892255.083 8   -683105.35146  23141518.030    23141524.8724
  24127995.340    14403153.461 7  11249914.54645  24127995.266    24128004.7704
  22323350.493   -15637440.260 8 -11882686.87846  22323350.196    22323355.7664
  23638275.101   -11017399.678 8  -8291812.98545  23638275.143    23638283.0704
  20521853.363     -180290.727 9   -129547.89447  20521852.827    20521858.6904
  24357480.169    15704246.882 7  12229776.76745  24357479.757    24357489.6894
  21042154.274     -851664.640 9   -658126.12547  21042153.940    21042160.0004
 00  9 20 17 38 30.0000000  0  8 29 31 03 11 25 15 23 21
  20601319.122    -7366280.887 9  -5727487.93547  20601319.153    20601323.8504
  23153712.816     -828173.177 8   -633171.47846  23153712.409    23153719.3944
  24145884.385    14497160.245 7  11323166.42545  24145884.241    24145893.9324
  22307589.120   -15720266.420 8 -11947226.73646  22307588.848    22307594.3754
  23619268.963   -11117277.868 8  -8369640.03945  23619268.990    23619276.6504
  20533850.387     -117246.255 9    -80422.37147  20533849.822    20533855.7294
  24371265.307    15776687.908 7  12286224.15645  24371264.904    24371275.0034
  21047154.957     -825386.022 9   -637649.31147  21047154.608    21047160.6814
 00  9 20 17 39  0.0000000  0  8 29 31 03 11 25 15 23 21
  20607464.831    -7333985.099 9  -5702322.40147  20607464.859    20607469.5554
  23165976.896     -763725.625 8   -582952.68446  23165976.508    23165983.4074
  24163781.945    14591211.054 7  11396452.60745  24163781.682    24163791.3204
  22291884.767   -15802792.653 8 -12011532.85946  22291884.539    22291890.1514
  23600282.157   -11217054.555 8  -8447387.97945  23600282.035    23600289.6474
  20545937.801      -53726.312 9    -30926.34547  20545937.234    20545943.2214
  24385065.573    15849208.128 7  12342733.23945  24385065.240    24385075.2754
  21052200.750     -798870.207 9   -616987.66747  21052200.425    21052206.5094
 00  9 20 17 39 30.0000000  0  8 29 31 03 11 25 15 23 21
  20613683.261    -7301307.023 9  -5676858.98047  20613683.304    20613687.9854
  23178310.082     -698914.834 8   -532450.84346  23178309.660    23178316.5874
  24181687.452    14685303.820 7  11469771.43845  24181687.116    24181696.8134
  22276238.115   -15885016.400 8 -12075603.29646  22276237.842    22276243.4444
  23581314.923   -11316726.652 8  -8525054.46445  23581314.756    23581322.5594
  20558115.468       10268.086 9     18939.38247  20558114.943    20558120.9474
  24398880.880    15921807.875 7  12399304.30245  24398880.676    24398890.5304
  21057291.779     -772116.590 9   -596140.72847  21057291.460    21057297.5594
 00  9 20 17 40  0.0000000  0  8 29 31 03 11 25 15 23 21
  20619974.084    -7268248.455 9  -5651099.07747  20619974.149    20619978.8464
  23190711.810     -633743.557 8   -481668.11046  23190711.464    23190718.3424
  24199600.218    14779435.413 8  11543120.56645  24199599.985    24199609.6304
  22260649.484   -15966934.956 8 -12139435.91646  22260649.323    22260654.8864
  23562368.001   -11416291.907 8  -8602637.68745  23562367.832    23562375.8104
  20570383.375       74735.885 9     69173.99547  20570382.810    20570388.8204
  24412711.515    15994487.434 7  12455937.55145  24412711.261    24412721.2024
  21062428.362     -745124.071 9   -575107.62947  21062428.014    21062434.1144
 00  9 20 17 40 30.0000000  0  8 29 31 03 11 25 15 23 21
  20626336.966    -7234811.621 9  -5625044.41847  20626336.984    20626341.6714
  23203181.456     -568215.323 8   -430607.23546  23203181.122    23203188.0284
  24217519.691    14873602.251 8  11616497.15345  24217519.509    24217529.1894
  22245119.450   -16048546.799 8 -12203029.54746  22245119.165    22245124.6374
  23543441.932   -11515748.153 8  -8680135.96345  23543441.935    23543449.8044
  20582740.883      139675.234 9    119776.04647  20582740.355    20582746.3654
  24426557.233    16067245.891 7  12512632.30445  24426556.966    24426566.9154
  21067610.202     -717893.361 9   -553888.92447  21067609.867    21067615.9824
 00  9 20 17 41  0.0000000  0  8 29 31 03 11 25 15 23 21
  20632771.598    -7200997.679 9  -5598695.90547  20632771.589    20632776.2874
  23215718.676     -502332.421 8   -379269.98146  23215718.283    23215725.1434
  24235445.691    14967801.965 8  11689899.31045  24235445.370    24235455.0204
  22229648.191   -16129848.833 8 -12266381.75046  22229647.855    22229653.3464
  23524537.548   -11615091.825 8  -8757546.49945  23524537.591    23524545.1244
  20595188.039      205085.368 9    170744.94047  20595187.528    20595193.5534
  24440417.761    16140083.830 7  12569389.00245  24440417.571    24440427.7264
  21072837.667     -690423.203 9   -532483.63747  21072837.308    21072843.4134
 00  9 20 17 41 30.0000000  0  8 29 31 03 11 25 15 23 21
  20639277.662    -7166808.065 9  -5572054.66247  20639277.645    20639282.3384
  23228322.793     -436097.807 8   -327658.69146  23228322.447    23228329.1804
  24253377.120    15062032.113 7  11763325.20445  24253376.697    24253386.6954
  22214236.297   -16210838.287 8 -12329490.38046  22214236.074    22214241.5724
  23505655.068   -11714320.261 8  -8834867.25145  23505655.094    23505662.4734
  20607724.628      270965.233 9    222079.86747  20607724.109    20607730.1364
  24454293.691    16213001.563 7  12626207.89045  24454293.295    24454303.6404
  21078110.620     -662713.868 9   -510891.98047  21078110.258    21078116.3334
 00  9 20 17 42  0.0000000  0  8 29 31 03 11 25 15 23 21
  20645854.916    -7132244.411 9  -5545121.95947  20645854.902    20645859.6074
  23240993.315     -369514.106 8   -275775.36946  23240992.945    23240999.6944
  24271313.732    15156289.907 8  11836772.63445  24271313.469    24271323.4094
  22198884.437   -16291512.950 8 -12392353.74146  22198884.212    22198889.6634
  23486794.908   -11813430.788 8  -8912096.15545  23486795.010    23486802.2954
  20620350.361      337313.454 9    273779.74447  20620349.829    20620355.8504
  24468184.859    16285999.236 7  12683089.00345  24468184.638    24468194.6394
  21083429.143     -634764.876 9   -489113.57947  21083428.796    21083434.9004
 00  9 20 17 42 30.0000000  0  8 29 31 03 11 25 15 23 21
  20652502.954    -7097308.596 9  -5517899.26447  20652502.960    20652507.6554
  23253729.726     -302584.656 8   -223622.63946  23253729.328    23253735.9944
  24289255.251    15250571.714 8  11910238.75345  24289255.018    24289264.9514
  22183592.817   -16371870.866 8 -12454970.27246  22183592.598    22183598.0524
  23467957.707   -11912421.002 8  -8989231.29345  23467957.732    23467965.0024
  20633064.864      404128.469 9    325843.35847  20633064.307    20633070.2884
  24482091.187    16359076.479 7  12740032.13645  24482090.751    24482101.0074
  21088793.259     -606576.112 9   -467148.33547  21088792.912    21088799.0594
 00  9 20 17 43  0.0000000  0  8 29 31 03 11 25 15 23 21
  20659221.442    -7062002.648 9  -5490388.15247  20659221.489    20659226.1724
  23266531.365     -235312.125 8   -171202.57146  23266530.975    23266537.6264
  24307200.706    15344874.489 8  11983721.21945  24307200.514    24307210.4994
  22168361.898   -16451909.650 8 -12517338.13046  22168361.713    22168367.1784
  23449143.623   -12011288.283 8  -9066270.64845  23449143.726    23449151.1304
  20645867.914      471408.839 9    378269.58047  20645867.354    20645873.3394
  24496012.607    16432232.943 7  12797037.01345  24496012.173    24496021.9874
  21094203.207     -578146.921 9   -444995.75247  21094202.837    21094208.9964
 00  9 20 17 43 30.0000000  0  8 29 31 03 11 25 15 23 21
  20666010.239    -7026327.452 9  -5462589.31947  20666010.269    20666014.9634
  23279397.876     -167698.812 8   -118516.94846  23279397.418    23279404.1034
  24325149.709    15439196.236 7  12057218.48845  24325149.539    24325159.4324
  22153192.362   -16531626.045 8 -12579454.76446  22153192.124    22153197.6274
  23430353.726   -12110029.398 8  -9143211.70146  23430353.733    23430361.3554
  20658759.419      539153.774 9    431057.80647  20658758.859    20658764.7594
  24509949.213    16505469.410 7  12854104.27245  24509948.836    24509958.5034
  21099659.086     -549476.409 9   -422655.12647  21099658.720    21099664.8284
 00  9 20 17 44  0.0000000  0  8 29 31 03 11 25 15 23 21
  20672868.897    -6990285.141 9  -5434504.42447  20672868.931    20672873.6454
  23292328.534      -99748.053 8    -65568.41346  23292328.067    23292334.7754
  24343101.467    15533533.362 7  12130727.70745  24343101.212    24343111.4434
  22138084.497   -16611018.242 8 -12641318.79546  22138084.283    22138089.7144
  23411588.252   -12208642.233 8  -9220052.78646  23411588.215    23411595.9654
  20671738.888      607361.250 9    484206.44447  20671738.353    20671744.2394
  24523901.024    16578785.564 7  12911233.59845  24523900.527    24523910.5674
  21105160.853     -520564.714 9   -400126.56647  21105160.501    21105166.5724
 00  9 20 17 44 30.0000000  0  8 29 31 03 11 25 15 23 21
  20679797.125    -6953877.091 9  -5406134.53747  20679797.134    20679801.8764
  23305322.823      -31462.591 8    -12359.04246  23305322.391    23305329.1474
  24361055.766    15627883.354 8  12204247.00445  24361055.492    24361065.6884
  22123038.776   -16690083.489 8 -12702928.04346  22123038.609    22123044.1234
  23392847.565   -12307123.518 8  -9296791.37745  23392847.530    23392855.4854
  20684806.275      676030.475 9    537714.89447  20684805.727    20684811.6494
  24537867.960    16652181.794 7  12968425.30745  24537867.447    24537877.4234
  21110708.540     -491411.682 9   -377409.94947  21110708.181    21110714.2244
 00  9 20 17 45  0.0000000  0  8 29 31 03 11 25 15 23 21
  20686794.701    -6917104.613 9  -5377480.67847  20686794.730    20686799.4894
  23318380.282       37155.189 8     41109.26846  23318379.951    23318386.7794
  24379012.299    15722244.068 7  12277774.59445  24379011.942    24379021.8484
  22108055.914   -16768818.914 8 -12764280.29546  22108055.712    22108061.2084
  23374132.294   -12405470.353 8  -9373425.19245  23374132.405    23374140.4594
  20697961.282      745160.554 9    591582.45147  20697960.740    20697966.7304
  24551850.189    16725658.410 7  13025679.66145  24551849.747    24551859.5034
  21116302.311     -462016.231 9   -354504.43947  21116301.968    21116308.0394
 00  9 20 17 45 30.0000000  0  8 29 31 03 11 25 15 23 21
  20693861.096    -6879970.285 9  -5348544.86147  20693861.128    20693865.9034
  23331500.426      106101.285 8     94833.40546  23331500.038    23331506.8884
  24396970.072    15816611.468 7  12351307.41745  24396969.859    24396979.6214
  22093136.069   -16847222.988 8 -12825374.35446  22093135.940    22093141.3924
  23355443.138   -12503680.975 8  -9449952.85745  23355443.363    23355451.3604
  20711203.466      814749.035 9    645807.20547  20711202.923    20711209.0004
  24565847.370    16799214.536 7  13082995.99945  24565846.899    24565857.0144
  21121942.062     -432379.012 9   -331410.53147  21121941.724    21121947.8304
 00  9 20 17 46  0.0000000  0  8 29 31 03 11 25 15 23 21
  20700996.176    -6842475.136 9  -5319327.88547  20700996.219    20701001.0114
  23344682.611      175373.352 8    148811.53546  23344682.153    23344689.0854
  24414928.553    15910983.436 7  12424843.81145  24414928.337    24414938.3354
  22078279.916   -16925292.834 8 -12886207.98546  22078279.765    22078285.1094
  23336780.889   -12601752.062 8  -9526371.78845  23336781.073    23336789.0384
  20724532.837      884795.159 9    700388.55647  20724532.285    20724538.3644
  24579859.921    16872850.887 7  13140374.84844  24579859.387    24579869.4984
  21127628.065     -402498.839 9   -308127.30947  21127627.748    21127633.8664
 00  9 20 17 46 30.0000000  0  8 29 31 03 11 25 15 23 21
  20708199.465    -6804621.562 9  -5289831.61647  20708199.492    20708204.2954
  23357925.839      244967.698 8    203040.81546  23357925.515    23357932.5184
  24432886.834    16005356.355 7  12498380.94945  24432886.963    24432897.0694
  22063487.667   -17003026.914 8 -12946779.96646  22063487.416    22063492.7224
  23318145.723   -12699681.679 8  -9602680.48146  23318145.853    23318153.7014
  20737948.794      955296.418 9    755324.56847  20737948.267    20737954.3404
  24593887.941    16946566.670 7  13197815.53244  24593887.236    24593897.5784
  21133360.073     -372376.925 9   -284655.72247  21133359.740    21133365.9074
 00  9 20 17 47  0.0000000  0  8 29 31 03 11 25 15 23 21
  20715470.687    -6766410.971 9  -5260057.15747  20715470.738    20715475.5624
  23371230.239      314882.272 8    257519.60946  23371229.795    23371236.9064
  24450845.523    16099727.780 7  12571916.95445  24450845.621    24450855.3434
  22048759.704   -17080422.342 8 -13007088.07446  22048759.482    22048764.8734
  23299537.882   -12797467.016 8  -9678876.75346  23299538.015    23299545.8084
  20751451.184     1026252.034 9    810614.61147  20751450.640    20751456.7534
  24607930.706    17020362.393 7  13255318.53044  24607929.976    24607940.3274
  21139138.460     -342011.206 9   -260994.15847  21139138.139    21139144.3524
 00  9 20 17 47 30.0000000  0  8 29 31 03 11 25 15 23 21
  20722809.646    -6727844.527 9  -5230005.40547  20722809.707    20722814.5634
  23384594.987      385114.464 8    312245.89346  23384594.612    23384601.7624
  24468803.298    16194095.154 7  12645449.69445  24468803.401    24468812.8434
  22034096.869   -17157475.765 8 -13067129.67246  22034096.673    22034102.1324
  23280957.948   -12895104.578 8  -9754957.90146  23280958.038    23280966.0774
  20765039.895     1097661.051 9    866257.95447  20765039.372    20765045.4964
  24621988.803    17094238.519 7  13312884.18844  24621988.102    24621998.6854
  21144963.382     -311401.066 9   -237142.13247  21144963.067    21144969.3284
 00  9 20 17 48  0.0000000  0  8 29 31 03 11 25 15 23 21
  20730215.895    -6688924.474 9  -5199678.11247  20730215.950    20730220.8344
  23398019.557      455660.675 8    367216.88446  23398019.158    23398026.3334
  24486759.524    16288455.291 7  12718976.80245  24486759.490    24486769.1594
  22019499.489   -17234185.585 8 -13126903.54246  22019499.238    22019504.7104
  23262406.536   -12992592.007 8  -9830922.04646  23262406.681    23262414.7684
  20778714.486     1169521.505 9    922253.07247  20778713.996    20778720.1084
  24636062.299    17168194.585 7  13370512.12345  24636061.540    24636072.4354
  21150834.716     -280547.274 9   -213100.24547  21150834.392    21150840.6344
 00  9 20 17 48 30.0000000  0  8 29 31 03 11 25 15 23 21
  20737689.148    -6649652.576 9  -5169076.64747  20737689.156    20737694.0704
  23411503.102      526517.865 8    422430.18346  23411502.873    23411510.1184
  24504713.592    16382805.109 7  12792495.94345  24504713.599    24504723.4534
  22004967.930   -17310549.256 8 -13186407.68046  22004967.708    22004973.1764
  23243884.295   -13089926.712 8  -9906767.18846  23243884.423    23243892.4084
  20792474.673     1241831.849 9    978598.75047  20792474.180    20792480.3214
  24650150.980    17242230.538 7  13428202.33145  24650150.216    24650161.0164
  21156752.546     -249449.254 9   -188868.05447  21156752.245    21156758.4374
 00  9 20 17 49  0.0000000  0  8 29 31 03 11 25 15 23 21
  20745228.989    -6610030.507 9  -5138202.33447  20745229.017    20745233.9564
  23425045.553      597683.154 8    477883.56146  23425045.218    23425052.5854
  24522665.580    16477142.254 7  12866005.23645  24522665.681    24522675.4344
  21990502.657   -17386564.439 8 -13245640.26946  21990502.442    21990507.9204
  23225391.713   -13187106.316 8  -9982491.45546  23225391.806    23225399.5334
  20806320.214     1314590.693 9   1035293.91747  20806319.754    20806325.9164
  24664255.075    17316346.493 7  13485954.88245  24664254.272    24664264.9374
  21162716.908     -218106.602 9   -164445.24847  21162716.566    21162722.7764
 00  9 20 17 49 30.0000000  0  8 29 31 03 11 25 15 23 21
  20752835.093    -6570059.994 9  -5107056.49647  20752835.141    20752840.0834
  23438646.014      669153.304 8    533574.49046  23438645.693    23438652.9824
  24540614.764    16571463.450 7  12939502.01745  24540614.685    24540624.6444
  21976104.153   -17462229.104 8 -13304599.72846  21976103.910    21976109.4284
  23206929.104   -13284128.254 8 -10058092.85346  23206929.128    23206936.6154
  20820250.809     1387796.351 9   1092337.24647  20820250.341    20820256.5834
  24678373.847    17390542.306 7  13543769.65644  24678373.288    24678384.2194
  21168727.848     -186519.141 9   -139831.67447  21168727.505    21168733.7084
 00  9 20 17 50  0.0000000  0  8 29 31 03 11 25 15 23 21
  20760507.299    -6529742.308 9  -5075640.13547  20760507.360    20760512.3054
  23452303.976      740926.241 8    589501.37246  23452303.678    23452311.0004
  24558560.208    16665766.574 7  13012984.77345  24558560.092    24558570.1284
  21961772.854   -17537540.253 8 -13363283.71846  21961772.641    21961778.1684
  23188497.118   -13380989.262 8 -10133568.86146  23188497.097    23188504.3004
  20834266.257     1461447.757 9   1149727.91447  20834265.808    20834272.0234
  24692508.405    17464818.589 7  13601647.06845  24692507.711    24692519.0354
  21174785.552     -154685.973 9   -115026.65547  21174785.211    21174791.4164
 00  9 20 17 50 30.0000000  0  7 29 31 03 11 25 15 21
  20768245.279    -6489079.205 9  -5043954.61847  20768245.303    20768250.2634
  23466018.971      812998.585 8    645661.53946  23466018.643    23466025.9714
  24576501.741    16760048.662 7  13086451.14545  24576501.493    24576511.4314
  21947509.369   -17612495.516 8 -13421690.40246  21947509.145    21947514.6264
  23170096.166   -13477686.504 8 -10208917.25246  23170096.067    23170103.2004
  20848366.220     1535543.202 9   1207464.57047  20848365.737    20848371.9244
  21180889.998     -122607.073 9    -90030.15547  21180889.665    21180895.8694
 00  9 20 17 51  0.0000000  0  7 29 31 03 11 25 15 21
  20776048.724    -6448072.195 9  -5012001.12147  20776048.721    20776053.6764
  23479790.498      885367.700 8    702052.97146  23479790.079    23479797.3794
  24594438.770    16854307.345 8  13159899.26045  24594438.673    24594448.4594
  21933313.951   -17687092.733 8 -13479818.08446  21933313.763    21933319.1594
  23151726.921   -13574217.288 8 -10284135.93346  23151726.823    23151733.9964
  20862550.386     1610081.398 9   1265546.23847  20862549.927    20862556.0844
  21187041.431      -90281.380 9    -64841.34947  21187041.057    21187047.2894
 00  9 20 17 51 30.0000000  0  7 29 31 03 11 25 15 21
  20783917.029    -6406724.065 9  -4979781.81647  20783917.024    20783921.9634
  23493617.650      958029.387 8    758672.37245  23493617.137    23493624.5704
  24612370.781    16948538.795 7  13233326.16445  24612370.530    24612380.3384
  21919187.150   -17761329.747 8 -13537665.08146  21919186.943    21919192.3214
  23133389.719   -13670579.649 8 -10359223.35746  23133389.578    23133396.9984
  20876818.378     1685059.791 9   1323970.92447  20876817.869    20876824.0434
  21193239.603      -57710.105 9    -39461.17947  21193239.246    21193245.4124
 00  9 20 17 52  0.0000000  0  7 29 31 03 11 25 15 21
  20791850.056    -6365035.668 9  -4947297.36547  20791850.062    20791854.9984
  23507500.008     1030981.543 8    815518.11045  23507499.636    23507507.0804
  24630296.958    17042740.959 7  13306730.26145  24630296.790    24630306.8354
  21905129.424   -17835203.501 8 -13595229.02246  21905129.224    21905134.6024
  23115084.952   -13766770.485 8 -10434177.14846  23115085.009    23115092.5884
  20891169.956     1760477.567 9   1382737.97847  20891169.444    20891175.6854
  21199484.778      -24891.905 9    -13888.60547  21199484.392    21199490.5204
 00  9 20 17 52 30.0000000  0  7 29 31 03 11 25 15 21
  20799847.662    -6323008.214 9  -4914548.71747  20799847.655    20799852.6074
  23521437.358     1104221.813 8    872588.36146  23521436.958    23521444.3344
  24648217.072    17136911.574 8  13380109.73045  24648216.814    24648227.0214
  21891141.295   -17908711.239 8 -13652507.75746  21891141.128    21891146.4914
  23096813.716   -13862786.309 8 -10508994.56846  23096813.798    23096821.3434
  20905604.969     1836333.579 9   1441846.51647  20905604.441    20905610.7104
  21205777.046        8174.058 9     11877.03447  21205776.666    21205782.7834
 00  9 20 17 53  0.0000000  0  7 29 31 03 11 25 15 21
  20807909.402    -6280643.601 9  -4881537.34947  20807909.404    20807914.3324
  23535428.851     1177747.049 8    929880.66145  23535428.422    23535435.9154
  24666130.783    17231047.692 8  13453462.35445  24666130.592    24666140.8074
  21877223.316   -17981850.851 8 -13709499.63547  21877223.124    21877228.4994
  23078576.157   -13958624.777 8 -10583673.78746  23078576.265    23078583.7514
  20920123.015     1912625.910 9   1501295.04647  20920122.461    20920128.6704
  21212116.546       41488.326 9     37836.15247  21212116.178    21212122.3104
 00  9 20 17 53 30.0000000  0  7 29 31 03 11 25 15 21
  20816034.768    -6237944.764 9  -4848265.54347  20816034.769    20816039.6734
  23549473.623     1251552.948 8    987391.64645  23549473.259    23549480.8504
  24684037.165    17325145.252 7  13526784.97445  24684036.967    24684047.1904
  21863375.613   -18054621.025 8 -13766203.63947  21863375.420    21863380.8154
  23060372.518   -14054284.783 8 -10658213.94846  23060372.656    23060380.0094
  20934723.487     1989351.863 9   1561081.44847  20934722.953    20934729.1504
  21218503.065       75049.947 9     63988.01847  21218502.736    21218508.9044
 00  9 20 17 54  0.0000000  0  7 29 31 03 11 25 15 21
  20824223.470    -6194912.897 9  -4814734.23847  20824223.470    20824228.4154
  23563571.498     1325637.340 8   1045119.65745  23563571.149    23563578.7234
  24701935.609    17419202.516 7  13600076.13545  24701935.416    24701946.1784
  21849598.747   -18127018.736 8 -13822617.42247  21849598.578    21849603.9224
  23042203.772   -14149762.219 8 -10732611.86146  23042203.844    23042211.2094
  20949406.265     2066510.445 9   1621204.97847  20949405.738    20949411.8904
  21224936.974      108859.871 9     90333.37047  21224936.632    21224942.8194
 00  9 20 17 54 30.0000000  0  7 29 31 03 11 25 15 21
  20832475.146    -6151550.055 9  -4780945.03147  20832475.148    20832480.0934
  23577721.754     1399996.896 8   1103062.07045  23577721.343    23577728.9774
  24719825.839    17513216.046 7  13673333.24145  24719825.810    24719836.6454
  21835893.131   -18199042.363 8 -13878739.70747  21835892.906    21835898.2044
  23024070.207   -14245055.423 8 -10806866.19146  23024070.208    23024077.6074
  20964170.925     2144099.257 9   1681663.74147  20964170.397    20964176.5774
  21231417.998      142917.954 9    116872.09847  21231417.646    21231423.8894
 00  9 20 17 55  0.0000000  0  6 29 31 11 25 15 21
  20840792.508    -6107842.339 9  -4746887.09047  20840792.499    20840797.3984
  23591926.819     1474644.122 8   1161228.66345  23591926.349    23591933.8914
  21822262.100   -18270673.821 8 -13934556.40847  21822261.892    21822267.1934
  23005975.094   -14340145.900 8 -10880962.55246  23005975.014    23005982.5104
  20979020.198     2222132.675 9   1742468.95747  20979019.697    20979025.8604
  21237949.319      177240.313 9    143616.74547  21237949.014    21237955.3114
 00  9 20 17 55 30.0000000  0  6 29 31 11 25 15 21
  20849171.617    -6063809.855 9  -4712576.08347  20849171.619    20849176.4804
  23606182.388     1549557.559 8   1219602.67545  23606181.961    23606189.4784
  21808702.723   -18341928.822 8 -13990079.76247  21808702.510    21808707.8524
  22987915.552   -14435049.219 8 -10954913.09846  22987915.428    22987922.8614
  20993950.397     2300590.763 9   1803605.08347  20993949.881    20993956.0514
  21244527.547      211809.003 9    170553.34047  21244527.200    21244533.5684
 00  9 20 17 56  0.0000000  0  6 29 31 11 25 15 21
  20857611.901    -6019455.637 9  -4678014.37847  20857611.946    20857616.8354
  23620487.777     1624732.688 8   1278180.61945  23620487.357    23620494.9134
  21795215.084   -18412806.401 8 -14045309.01647  21795214.917    21795220.3334
  22969891.719   -14529764.313 8 -11028716.98246  22969891.605    22969898.8964
  21008960.778     2379470.209 9   1865069.53947  21008960.239    21008966.4124
  21251152.406      246622.793 9    197680.92547  21251152.083    21251158.4514
 00  9 20 17 56 30.0000000  0  6 29 31 11 25 15 21
  20866113.420    -5974779.681 9  -4643201.96547  20866113.490    20866118.4294
  23634842.755     1700168.427 8   1336961.61745  23634842.369    23634849.9004
  21781800.229   -18483302.475 8 -14100241.00047  21781799.973    21781805.3124
  22951904.382   -14624286.757 8 -11102370.73546  22951904.358    22951911.5494
  21024051.275     2458771.163 9   1926862.44847  21024050.742    21024056.8714
  21257824.393      281683.751 9    225001.10647  21257824.024    21257830.4134
 00  9 20 17 57  0.0000000  0  6 29 31 11 25 15 21
  20874676.097    -5929782.190 9  -4608139.01147  20874676.212    20874681.1874
  23649247.194     1775863.121 8   1395944.40245  23649246.746    23649254.2104
  21768458.485   -18553413.514 8 -14154872.95747  21768458.300    21768463.5694
  22933954.450   -14718612.351 8 -11175871.09246  22933954.445    22933961.7484
  21039221.855     2538493.303 9   1988983.53747  21039221.330    21039227.4574
  21264543.767      316993.947 9    252515.50447  21264543.383    21264549.8044
 00  9 20 17 57 30.0000000  0  6 29 31 11 25 15 21
  20883299.735    -5884464.993 9  -4572826.93447  20883299.822    20883304.8294
  23663700.280     1851813.949 8   1455126.77645  23663699.861    23663707.1934
  21755190.664   -18623136.690 9 -14209202.68947  21755190.405    21755195.5904
  22916042.859   -14812737.956 8 -11249215.63046  22916042.874    22916050.1474
  21054472.384     2618635.105 9   2051431.64347  21054471.872    21054477.9704
  21271310.608      352554.094 9    280224.66647  21271310.278    21271316.7174
 00  9 20 17 58  0.0000000  0  6 29 31 11 25 15 21
  20891983.883    -5838829.770 9  -4537267.04547  20891983.960    20891988.9374
  23678201.443     1928017.573 8   1514506.14745  23678201.003    23678208.2934
  21741996.899   -18692470.051 8 -14263228.65847  21741996.699    21742001.8954
  22898170.010   -14906661.223 8 -11322402.51046  22898169.937    22898177.2914
  21069802.358     2699194.701 9   2114205.29647  21069801.870    21069808.0524
  21278125.009      388363.927 9    308128.39947  21278124.661    21278131.1264
 00  9 20 17 58 30.0000000  0  6 29 31 11 25 15 21
  20900728.380    -5792877.213 9  -4501459.87847  20900728.437    20900733.4184
  23692750.316     2004472.214 8   1574081.09445  23692749.980    23692757.2464
  21728878.101   -18761409.937 8 -14316948.02247  21728877.871    21728883.0654
  22880336.269   -15000378.614 8 -11395428.97146  22880336.133    22880343.6034
  21085211.705     2780171.109 9   2177303.73647  21085211.192    21085217.4734
  21284987.191      424424.807 9    336227.75747  21284986.870    21284993.3324
 00  9 20 17 59  0.0000000  0  6 29 31 11 25 15 21
  20909532.737    -5746609.668 9  -4465407.27247  20909532.822    20909537.8274
  23707346.343     2081174.312 8   1633848.88145  23707345.797    23707353.3464
  21715834.424   -18829954.456 9 -14370359.32247  21715834.231    21715839.4504
  22862541.923   -15093887.566 8 -11468292.99346  22862541.891    22862549.3894
  21100699.984     2861562.235 9   2240725.34547  21100699.490    21100705.7874
  21291897.149      460736.680 9    364522.67847  21291896.777    21291903.2994
 00  9 20 17 59 30.0000000  0  6 29 31 11 25 15 21
  20918397.100    -5700027.150 9  -4429109.23247  20918397.225    20918402.2304
  23721989.205     2158122.260 8   1693808.22445  23721988.639    23721996.2464
  21702866.755   -18898100.016 8 -14423459.74147  21702866.568    21702871.7634
  22844788.220   -15187184.133 8 -11540991.53346  22844788.132    22844795.4674
  21116267.173     2943367.757 9   2304469.84647  21116266.643    21116272.8974
  21298855.188      497301.313 9    393014.55847  21298854.829    21298861.3974
 00  9 20 18  0  0.0000000  0  6 29 31 11 25 15 21
  20927320.988    -5653132.150 9  -4392567.69247  20927321.077    20927326.0664
  23736677.971     2235312.547 8   1753956.42345  23736677.480    23736685.1984
  21689975.404   -18965844.852 9 -14476247.90747  21689975.163    21689980.3544
  22827075.163   -15280266.240 8 -11613522.94446  22827075.105    22827082.2244
  21131912.722     3025585.391 9   2368535.47047  21131912.172    21131918.4324
  21305861.356      534119.102 9    421703.70447  21305861.009    21305867.5934
 00  9 20 18  0 30.0000000  0  6 29 31 11 25 15 21
  20936303.960    -5605926.507 9  -4355784.10047  20936304.028    20936309.0124
  23751412.244     2312741.986 8   1814290.94945  23751411.840    23751419.5244
  21677160.667   -19033186.745 8 -14528722.09247  21677160.444    21677165.6394
  22809403.455   -15373131.506 8 -11685885.38946  22809403.428    22809410.4554
  21147636.243     3108213.208 9   2432920.71247  21147635.726    21147642.0654
  21312915.710      571189.748 9    450589.87947  21312915.386    21312921.9404
 00  9 20 18  1  0.0000000  0  6 29 31 11 25 15 21
  20945345.249    -5558414.396 9  -4318761.69747  20945345.309    20945350.2934
  23766191.266     2390405.238 8   1874807.67845  23766190.709    23766198.5484
  21664422.591   -19100125.869 9 -14580882.43247  21664422.352    21664427.5154
  22791773.103   -15465779.635 8 -11758078.62746  22791773.044    22791780.0384
  21163437.046     3191246.898 9   2497622.23547  21163436.518    21163442.9434
  21320017.877      608511.610 9    479671.81347  21320017.569    21320024.0874
 00  9 20 18  1 30.0000000  0  6 29 31 11 25 15 21
  20954444.836    -5510595.526 9  -4281500.26347  20954444.950    20954449.9464
  23781014.396     2468301.344 8   1935505.82945  23781013.896    23781021.7674
  21651761.999   -19166657.850 8 -14632725.51947  21651761.737    21651766.7844
  22774184.910   -15558205.814 8 -11830098.93146  22774184.890    22774191.9094
  21179315.179     3274686.749 9   2562640.24347  21179314.606    21179321.1194
  21327168.202      646086.608 9    508950.98947  21327167.899    21327174.3224
 00  9 20 18  2  0.0000000  0  6 29 31 11 25 15 21
  20963602.696    -5462471.044 9  -4244000.69147  20963602.770    20963607.7514
  23795881.287     2546427.441 8   1996383.20445  23795880.884    23795888.7564
  21639179.310   -19232779.790 8 -14684249.08947  21639179.098    21639184.1644
  22756639.589   -15650407.037 8 -11901943.92746  22756639.537    22756646.5134
  21195270.275     3358531.232 9   2627973.54447  21195269.740    21195276.2454
  21334366.858      683915.715 9    538428.17547  21334366.545    21334372.9504
 00  9 20 18  2 30.0000000  0  6 29 31 11 25 15 21
  20972818.521    -5414041.968 9  -4206263.77547  20972818.540    20972823.5014
  23810791.611     2624781.354 8   2057438.08845  23810791.252    23810799.1354
  21626675.375   -19298488.649 9 -14735450.77347  21626675.154    21626680.2184
  22739137.728   -15742379.852 8 -11973610.95046  22739137.733    22739144.4404
  21211302.317     3442779.605 9   2693621.55647  21211301.801    21211308.1684
  21341614.120      722000.112 9    568104.29147  21341613.778    21341620.2104
 00  9 20 18  3  0.0000000  0  6 29 31 11 25 15 21
  20982091.705    -5365311.024 9  -4168291.64047  20982091.740    20982096.7054
  23825744.561     2703358.810 8   2118667.16245  23825744.101    23825751.9874
  21614250.151   -19363783.444 9 -14786329.81647  21614249.976    21614255.0354
  22721679.560   -15834122.815 8 -12045098.85946  22721679.579    22721686.0484
  21227410.569     3527428.464 9   2759581.63147  21227410.030    21227416.2724
  21348909.729      760338.819 9    597978.56247  21348909.358    21348915.8254
 00  9 20 18  3 30.0000000  0  6 29 31 11 25 15 21
  20991422.136    -5316279.355 9  -4130085.16947  20991422.171    20991427.1144
  23840739.480     2782157.694 8   2180068.78645  23840739.109    23840747.0174
  21601904.485   -19428660.804 9 -14836883.58147  21601904.203    21601909.2564
  22704265.642   -15925632.282 8 -12116404.80546  22704265.715    22704272.2484
  21243594.746     3612477.007 9   2825853.16147  21243594.236    21243600.5634
  21356254.052      798933.466 9    628052.27947  21356253.723    21356260.2204
 00  9 20 18  4  0.0000000  0  6 29 31 11 25 15 21
  21000809.273    -5266949.657 9  -4091646.47347  21000809.322    21000814.2684
  23855775.793     2861173.937 8   2241639.76745  23855775.351    23855783.5144
  21589638.307   -19493119.644 9 -14887111.23147  21589638.075    21589643.1184
  22686896.400   -16016906.714 8 -12187527.63446  22686896.529    22686903.3064
  21259854.368     3697922.135 9   2892433.72347  21259853.859    21259860.4084
  21363646.964      837783.171 9    658324.73547  21363646.615    21363653.0864
 00  9 20 18  4 30.0000000  0  6 29 31 11 25 15 21
  21010252.789    -5217323.993 9  -4052977.15547  21010252.845    21010257.7574
  23870852.838     2940404.084 8   2303377.43445  23870852.433    23870860.6094
  21577452.188   -19557157.967 9 -14937011.20647  21577451.931    21577456.9944
  22669572.493   -16107943.993 8 -12258465.65946  22669572.582    22669579.5974
  21276189.125     3783761.691 9   2959321.63747  21276188.621    21276195.2834
  21371088.374      876887.648 9    688795.72347  21371088.023    21371094.4734
 00  9 20 18  5  0.0000000  0  6 29 31 11 25 15 21
  21019752.367    -5167403.723 9  -4014078.27247  21019752.408    21019757.2914
  23885970.279     3019845.630 8   2365279.85045  23885969.787    23885977.9254
  21565346.531   -19620773.233 8 -14986581.52747  21565346.252    21565351.4084
  22652294.400   -16198740.924 8 -12329216.40046  22652294.393    22652301.5404
  21292598.777     3869994.347 9   3026515.83747  21292598.251    21292604.8244
  21378578.399      916247.760 9    719465.90747  21378578.078    21378584.5264
 00  9 20 18  5 30.0000000  0  6 29 31 11 25 15 21
  21029307.702    -5117189.986 9  -3974950.71647  21029307.763    21029312.6944
  23901127.154     3099495.864 8   2427344.84445  23901126.814    23901135.0194
  21553321.871   -19683962.681 9 -15035820.03447  21553321.626    21553326.8224
  22635062.580   -16289294.401 8 -12399777.43846  22635062.562    22635069.6804
  21309082.895     3956618.445 9   3094015.06647  21309082.329    21309088.7894
  21386117.220      955864.339 9    750335.93147  21386116.889    21386123.3294
 00  9 20 18  6  0.0000000  0  6 29 31 11 25 15 21
  21038918.652    -5066684.059 9  -3935595.47847  21038918.749    21038923.7024
  23916323.199     3179351.876 8   2489570.18445  23916322.943    23916331.2094
  21541378.783   -19746723.628 9 -15084724.66147  21541378.604    21541383.7784
  22617877.707   -16379601.403 8 -12470146.41946  22617877.719    22617884.6444
  21325641.130     4043632.564 9   3161818.20647  21325640.566    21325647.0404
  21393704.963      995738.057 9    781406.31847  21393704.686    21393711.0964
 00  9 20 18  6 30.0000000  0  6 29 31 11 25 15 21
  21048584.790    -5015888.095 9  -3896014.23547  21048584.868    21048589.8554
  23931557.877     3259410.649 8   2551953.52445  23931557.648    23931565.9574
  21529517.772   -19809054.031 9 -15133293.78047  21529517.525    21529522.7684
  22600740.242   -16469659.765 8 -12540321.63746  22600740.183    22600746.8344
  21342273.127     4131034.319 9   3229923.40847  21342272.552    21342279.0584
  21401341.691     1035869.069 9    812677.19547  21401341.399    21401347.8134
 00  9 20 18  7  0.0000000  0  6 29 31 11 25 15 21
  21058305.724    -4964804.508 9  -3856208.87447  21058305.798    21058310.8044
  23946830.607     3339668.879 8   2614492.28045  23946830.314    23946838.7884
  21517738.929   -19870952.334 9 -15181526.20647  21517738.679    21517743.9634
  22583650.297   -16559467.232 8 -12610301.37346  22583650.284    22583656.7944
  21358978.536     4218821.318 9   3298328.80247  21358977.977    21358984.4874
  21409027.385     1076257.091 9    844148.33647  21409027.049    21409033.4284
 00  9 20 18  7 30.0000000  0  6 29 31 11 25 15 21
  21068081.067    -4913434.914 9  -3816180.65747  21068081.101    21068086.1824
  23962140.675     3420123.051 8   2677183.71445  23962140.275    23962148.9684
  21506042.725   -19932416.374 9 -15229420.24747  21506042.457    21506047.7694
  22566608.622   -16649021.158 8 -12680083.55046  22566608.632    22566615.2564
  21375756.857     4306991.502 9   3367032.77547  21375756.311    21375762.8954
  21416762.043     1116902.709 9    875820.20147  21416761.724    21416768.1154
 00  9 20 18  8  0.0000000  0  6 29 31 11 25 15 21
  21077910.445    -4861781.032 9  -3775930.91347  21077910.496    21077915.6404
  23977487.386     3500770.220 8   2740025.52445  23977487.090    23977495.6654
  21494429.502   -19993444.019 9 -15276974.24447  21494429.256    21494434.5314
  22549615.759   -16738318.904 8 -12749666.13746  22549615.766    22549622.5574
  21392607.714     4395542.810 9   3436033.71247  21392607.166    21392613.7484
  21424545.752     1157806.072 9    907692.90447  21424545.406    21424551.7824
 00  9 20 18  8 30.0000000  0  6 29 31 11 25 15 21
  21087793.576    -4809844.538 9  -3735460.95247  21087793.684    21087798.8454
  23992870.156     3581606.933 8   2803015.04145  23992869.892    23992878.5424
  21482899.755   -20054033.273 9 -15324186.63847  21482899.508    21482904.7594
  22532672.092   -16827358.344 8 -12819047.43346  22532672.016    22532678.8834
  21409530.626     4484472.991 9   3505329.88847  21409530.091    21409536.6234
  21432378.498     1198967.556 9    939766.74847  21432378.163    21432384.5444
 00  9 20 18  9  0.0000000  0  6 29 31 11 25 15 21
  21097730.362    -4757626.699 9  -3694771.76347  21097730.455    21097735.6014
  24008288.503     3662630.979 8   2866150.53345  24008288.337    24008297.0494
  21471454.013   -20114180.969 9 -15371054.95947  21471453.782    21471459.0314
  22515778.219   -16916136.133 8 -12888224.86646  22515778.141    22515784.9064
  21426525.518     4573781.134 9   3574920.57247  21426524.935    21426531.4804
  21440260.625     1240388.287 8    972042.59747  21440260.247    21440266.6764
 00  9 20 18  9 30.0000000  0  6 29 31 11 25 15 21
  21107720.170    -4705130.362 9  -3653865.55947  21107720.239    21107725.3444
  24023741.840     3743838.180 7   2929428.74945  24023741.620    24023750.3824
  21460092.565   -20173885.983 9 -15417578.33847  21460092.337    21460097.5334
  22498934.444   -17004650.696 8 -12957197.17146  22498934.332    22498941.0134
  21443591.597     4663464.020 9   3644803.28547  21443591.041    21443597.5774
  21448191.869     1282067.348 8   1004519.74647  21448191.516    21448198.0024
 00  9 20 18 10  0.0000000  0  6 29 31 11 25 15 21
  21117762.723    -4652356.479 9  -3612743.08947  21117762.827    21117767.9014
  24039229.690     3825226.334 8   2992847.93845  24039229.397    24039238.2214
  21448815.779   -20233145.672 9 -15463754.70147  21448815.554    21448820.7364
  22482141.224   -17092898.598 8 -13025961.68546  22482141.218    22482147.7354
  21460728.786     4753520.303 8   3714976.94847  21460728.237    21460734.8004
  21456172.428     1324005.597 8   1037198.85947  21456172.131    21456178.6564
 00  9 20 18 10 30.0000000  0  6 29 31 11 25 15 21
  21127857.426    -4599308.393 9  -3571406.95447  21127857.509    21127862.6134
  24054751.038     3906790.604 7   3056404.37245  24054750.582    24054759.4524
  21437623.841   -20291959.505 9 -15509583.64947  21437623.622    21437628.7604
  22465399.092   -17180878.894 8 -13094517.68246  22465399.078    22465405.4574
  21477936.229     4843946.126 9   3785438.55547  21477935.714    21477942.2884
  21464202.152     1366201.669 9   1070078.87947  21464201.842    21464208.3364
 00  9 20 18 11  0.0000000  0  6 29 31 11 25 15 21
  21138004.316    -4545986.087 9  -3529857.14147  21138004.434    21138009.5214
  24070305.527     3988529.811 7   3120097.11545  24070305.104    24070313.9804
  21426517.533   -20350323.639 9 -15555062.18647  21426517.311    21426522.4254
  22448708.654   -17268587.593 8 -13162862.05446  22448708.632    22448714.9884
  21495213.992     4934741.132 9   3856187.82647  21495213.493    21495220.0344
  21472281.305     1408657.796 9   1103161.52547  21472280.979    21472287.4754
 00  9 20 18 11 30.0000000  0  6 29 31 11 25 15 21
  21148203.190    -4492391.153 9  -3488094.88847  21148203.263    21148208.3294
  24085892.721     4070441.046 8   3183923.92945  24085892.364    24085901.2624
  21415497.311   -20408235.492 9 -15600188.29447  21415497.060    21415502.1724
  22432070.407   -17356021.659 8 -13230992.41346  22432070.381    22432076.8634
  21512561.763     5025903.907 8   3927223.68147  21512561.224    21512567.8584
  21480409.993     1451374.302 9   1136447.07047  21480409.672    21480416.2274
 00  9 20 18 12  0.0000000  0  6 29 31 11 25 15 21
  21158453.648    -4438525.005 9  -3446121.29747  21158453.707    21158458.7744
  24101512.155     4152521.094 8   3247882.24645  24101511.870    24101520.7944
  21404563.435   -20465692.975 9 -15644960.34547  21404563.209    21404568.3094
  22415484.802   -17443178.468 8 -13298906.73346  22415484.843    22415491.4894
  21529979.030     5117432.041 8   3998544.24347  21529978.496    21529985.1624
  21488588.313     1494351.682 9   1169935.89347  21488588.010    21488594.5654
 00  9 20 18 12 30.0000000  0  6 29 31 11 25 15 21
  21168754.916    -4384391.588 9  -3403939.44947  21168754.956    21168760.0644
  24117163.010     4234765.172 8   3311968.41145  24117162.606    24117171.4364
  21393716.125   -20522695.869 9 -15689378.17447  21393715.899    21393721.0564
  22398952.280   -17530057.519 8 -13366604.63546  22398952.278    22398958.8904
  21547465.009     5209321.674 8   4070146.47647  21547464.501    21547471.3074
  21496816.007     1537588.305 8   1203626.71547  21496815.684    21496822.2564
 00  9 20 18 13  0.0000000  0  6 29 31 11 25 15 21
  21179106.877    -4329991.471 9  -3361549.77447  21179106.910    21179112.0854
  24132844.541     4317171.477 8   3376180.97645  24132844.139    24132852.9964
  21382955.909   -20579241.269 9 -15733439.51547  21382955.668    21382960.8194
  22382473.192   -17616655.108 8 -13434083.19946  22382473.167    22382479.8784
  21565019.694     5301571.538 8   4142029.42147  21565019.178    21565025.9214
  21505093.242     1581085.550 8   1237520.63347  21505092.914    21505099.5544
 00  9 20 18 13 30.0000000  0  6 29 31 11 25 15 21
  21189509.439    -4275325.427 9  -3318952.88947  21189509.498    21189514.7474
  24148556.478     4399737.820 7   3440518.25345  24148556.052    24148565.0764
  21372283.344   -20635325.831 9 -15777141.76347  21372283.116    21372288.2674
  22366048.375   -17702967.375 8 -13501339.44446  22366048.427    22366055.1184
  21582642.764     5394180.862 8   4214192.46147  21582642.238    21582648.8794
  21513420.267     1624844.245 8   1271618.27147  21513419.929    21513426.5594
 00  9 20 18 14  0.0000000  0  6 29 31 11 25 15 21
  21199962.392    -4220394.919 9  -3276149.92147  21199962.461    21199967.7174
  24164298.276     4482461.012 7   3504977.73845  24164297.935    24164306.7994
  21361698.938   -20690947.338 9 -15820483.18147  21361698.674    21361703.8534
  22349678.552   -17788992.408 8 -13568371.86646  22349678.529    22349685.0324
  21600333.864     5487147.706 8   4286634.07747  21600333.350    21600339.9064
  21521797.299     1668865.378 8   1305920.41147  21521796.960    21521803.5894
 00  9 20 18 14 30.0000000  0  6 29 31 11 25 15 21
  21210465.170    -4165202.638 9  -3233142.97647  21210465.231    21210470.5034
  24180069.213     4565337.170 7   3569556.42145  24180068.856    24180077.7424
  21351202.762   -20746104.919 9 -15863463.11547  21351202.520    21351207.6994
  22333363.558   -17874728.411 8 -13635179.07546  22333363.514    22333369.9804
  21618092.379     5580468.749 8   4359351.69947  21618091.836    21618098.3954
  21530224.108     1713148.032 9   1340426.32447  21530223.766    21530230.3414
 00  9 20 18 15  0.0000000  0  6 29 31 11 25 15 21
  21221017.336    -4109750.541 9  -3189933.57347  21221017.445    21221022.7084
  24195868.641     4648363.113 7   3634251.82045  24195868.349    24195877.2324
  21340795.332   -20800796.361 9 -15906079.81747  21340795.095    21340800.2534
  22317103.874   -17960172.873 8 -13701759.10446  22317103.871    22317110.4604
  21635917.828     5674141.705 8   4432343.53547  21635917.276    21635923.9694
  21538700.654     1757692.347 8   1375136.12947  21538700.298    21538706.9134
 00  9 20 18 15 30.0000000  0  6 29 31 11 25 15 21
  21231618.878    -4054039.266 9  -3146522.21847  21231619.006    21231624.2344
  24211696.213     4731536.880 7   3699062.41645  24211695.862    24211704.6504
  21330477.145   -20855018.846 9 -15948331.09247  21330476.908    21330482.0714
  22300900.502   -18045322.040 8 -13768109.04146  22300900.498    22300906.9524
  21653810.006     5768165.668 8   4505608.87947  21653809.430    21653816.2764
  21547227.257     1802499.762 9   1410050.94747  21547226.925    21547233.5154
 00  9 20 18 16  0.0000000  0  6 29 31 11 25 15 21
  21242269.068    -3998072.581 9  -3102911.84347  21242269.173    21242274.3984
  24227551.014     4814853.206 7   3763984.09045  24227550.615    24227559.3294
  21320248.159   -20908772.474 9 -15990217.03847  21320247.959    21320253.0694
  22284753.289   -18130175.641 8 -13834228.65646  22284753.327    22284759.5874
  21671768.193     5862536.287 8   4579144.34147  21671767.617    21671774.4734
  21555803.607     1847568.643 9   1445169.50647  21555803.308    21555809.9124
 00  9 20 18 16 30.0000000  0  6 29 31 11 25 15 21
  21252967.890    -3941850.172 9  -3059102.20047  21252967.936    21252973.1654
  24243432.515     4898311.118 8   3829016.06845  24243432.281    24243441.0314
  21310109.332   -20962052.909 9 -16031734.25447  21310109.078    21310114.1804
  22268663.303   -18214729.209 8 -13900114.48346  22268663.335    22268669.3344
  21689792.349     5957253.342 8   4652949.75247  21689791.750    21689798.6334
  21564430.126     1892901.269 8   1480493.58247  21564429.856    21564436.4864
 00  9 20 18 17  0.0000000  0  6 29 31 11 25 15 21
  21263714.930    -3885374.001 9  -3015094.82347  21263715.006    21263720.2094
  24259340.501     4981907.050 7   3894155.63245  24259340.148    24259348.9034
  21300060.713   -21014858.635 9 -16072881.56047  21300060.445    21300065.5814
  22252630.832   -18298980.445 8 -13965764.71446  22252630.844    22252636.7524
  21707881.876     6052314.505 8   4727023.29447  21707881.336    21707888.2274
  21573106.810     1938497.133 8   1516022.78747  21573106.479    21573113.1834
 00  9 20 18 17 30.0000000  0  6 29 31 11 25 15 21
  21274509.846    -3828646.548 9  -2970891.64647  21274509.943    21274515.1084
  24275273.986     5065637.735 8   3959400.18645  24275273.707    24275282.3484
  21290102.616   -21067188.326 9 -16113657.94647  21290102.419    21290107.5504
  22236656.179   -18382927.823 8 -14031178.20047  22236656.263    22236662.1694
  21726036.475     6147716.960 8   4801362.77947  21726035.958    21726042.7654
  21581833.466     1984356.033 8   1551756.94947  21581833.168    21581839.9334
 00  9 20 18 18  0.0000000  0  6 29 31 11 25 15 21
  21285352.334    -3771669.165 9  -2926493.71447  21285352.427    21285357.5504
  24291232.720     5149500.178 7   4024747.41045  24291232.350    24291240.7804
  21280235.632   -21119039.664 9 -16154061.58347  21280235.439    21280240.5254
  22220739.901   -18466568.310 8 -14096352.54547  22220739.952    22220745.9284
  21744255.604     6243458.889 8   4875966.79447  21744255.076    21744262.0184
  21590610.347     2030478.814 8   1587696.73147  21590610.032    21590616.8574
 00  9 20 18 18 30.0000000  0  6 29 31 11 25 15 21
  21296242.047    -3714443.630 9  -2881902.42047  21296242.108    21296247.2674
  24307215.655     5233491.059 7   4090194.69245  24307215.364    24307223.7674
  21270460.091   -21170410.850 9 -16194091.07747  21270459.867    21270464.9124
  22204882.369   -18549899.650 8 -14161285.99647  22204882.390    22204888.4094
  21762538.841     6339537.762 8   4950833.37147  21762538.298    21762545.2324
  21599437.416     2076865.238 8   1623841.95747  21599437.091    21599443.9834
 00  9 20 18 19  0.0000000  0  6 29 31 11 25 15 21
  21307178.710    -3656971.005 9  -2837118.59547  21307178.757    21307184.0034
  24323222.628     5317607.673 7   4155739.97045  24323222.214    24323230.7784
  21260776.317   -21221299.406 9 -16233744.48947  21260776.081    21260781.1674
  22189084.253   -18632918.900 8 -14225976.26147  22189084.297    22189090.2534
  21780885.882     6435952.243 8   5025961.47447  21780885.377    21780892.2894
  21608314.820     2123516.363 8   1660193.43847  21608314.525    21608321.4714
 00  9 20 18 19 30.0000000  0  6 29 31 11 25 15 21
  21318162.078    -3599253.158 9  -2792143.68347  21318162.113    21318167.4164
  24339252.923     5401847.198 8   4221380.97945  24339252.615    24339261.2074
  21251184.825   -21271702.988 9 -16273019.99947  21251184.591    21251189.7004
  22173345.971   -18715623.484 8 -14290421.33046  22173345.982    22173351.9554
  21799296.433     6532700.005 8   5101349.27347  21799295.921    21799302.9004
  21617242.678     2170432.657 8   1696751.53947  21617242.414    21617249.3354
 00  9 20 18 20  0.0000000  0  6 29 31 11 25 15 21
  21329191.530    -3541293.041 9  -2746979.99347  21329191.588    21329196.8684
  24355306.063     5486205.415 7   4287114.53045  24355305.523    24355314.2294
  21241685.639   -21321621.439 9 -16311917.49847  21241685.437    21241690.5134
  22157667.631   -18798012.631 8 -14354620.59746  22157667.706    22157673.7844
  21817769.657     6629777.264 8   5176993.82347  21817769.163    21817776.2194
  21626220.806     2217612.720 8   1733515.17747  21626220.549    21626227.4094
 00  9 20 18 20 30.0000000  0  6 29 31 11 25 15 21
  21340266.897    -3483092.099 9  -2701628.64447  21340266.930    21340272.1594
  24371380.930     5570679.565 7   4352938.38945  24371380.474    24371389.2314
  21232279.208   -21371052.584 9 -16350435.26347  21232278.959    21232284.0374
  22142050.048   -18880083.194 8 -14418571.63847  22142050.138    22142056.1814
  21836305.267     6727182.296 8   5252893.78246  21836304.751    21836311.8784
  21635249.294     2265057.310 8   1770484.94147  21635248.999    21635255.8414
 00  9 20 18 21  0.0000000  0  6 29 31 11 25 15 21
  21351387.883    -3424650.928 9  -2656090.11247  21351387.922    21351393.1344
  24387477.655     5655267.463 8   4418850.90645  24387477.231    24387485.9234
  21222966.072   -21419993.444 9 -16388570.99747  21222965.836    21222970.8544
  22126493.784   -18961831.659 8 -14482271.68947  22126493.867    22126499.8794
  21854902.891     6824913.561 8   5329047.93146  21854902.396    21854909.5564
  21644328.362     2312767.754 8   1807661.85647  21644328.033    21644334.9214
 00  9 20 18 21 30.0000000  0  6 29 31 11 25 15 21
  21362554.154    -3365971.786 9  -2610366.14147  21362554.231    21362559.4374
  24403595.121     5739965.447 7   4484849.19845  24403594.703    24403603.6484
  21213746.531   -21468442.521 9 -16426323.52247  21213746.289    21213751.2614
  22110999.194   -19043256.308 8 -14545719.41047  22110999.294    22111005.2364
  21873562.215     6922968.538 8   5405454.32146  21873561.728    21873568.7704
  21653457.853     2360743.186 8   1845045.26047  21653457.523    21653464.3564
 00  9 20 18 22  0.0000000  0  6 29 31 11 25 15 21
  21373765.647    -3307055.462 9  -2564457.35447  21373765.700    21373770.8874
  24419733.416     5824771.809 8   4550931.93445  24419732.950    24419741.8494
  21204621.030   -21516397.214 9 -16463690.81547  21204620.787    21204625.7604
  22095566.906   -19124353.683 8 -14608912.10947  22095566.967    22095572.9104
  21892282.843     7021345.761 8   5482111.81546  21892282.328    21892289.3904
  21662637.912     2408984.655 8   1882635.96947  21662637.598    21662644.4184
 00  9 20 18 22 30.0000000  0  6 29 31 11 25 15 21
  21385021.721    -3247904.678 9  -2518365.86847  21385021.748    21385026.9824
  24435891.412     5909682.001 7   4617095.55045  24435890.914    24435900.0014
  21195589.845   -21563856.453 9 -16500672.03447  21195589.599    21195594.5854
  22080197.012   -19205122.843 8 -14671849.05747  22080197.097    22080203.0264
  21911064.175     7120042.034 8   5559017.92946  21911063.666    21911070.7914
  21671868.516     2457491.654 8   1920433.58847  21671868.188    21671875.0344
 00  9 20 18 23  0.0000000  0  6 29 31 11 25 15 21
  21396322.118    -3188520.658 9  -2472092.65247  21396322.145    21396327.4634
  24452068.819     5994693.375 7   4683338.02645  24452068.315    24452077.1864
  21186653.260   -21610818.440 9 -16537265.78747  21186653.025    21186658.0054
  22064890.077   -19285561.097 8 -14734528.15647  22064890.164    22064896.1124
  21929905.847     7219055.375 8   5636171.10346  21929905.382    21929912.5694
  21681149.818     2506265.007 8   1958438.75247  21681149.492    21681156.3844
 00  9 20 18 23 30.0000000  0  6 29 31 11 25 15 21
  21407666.475    -3128905.646 9  -2425639.44447  21407666.551    21407671.8944
  24468264.636     6079802.656 7   4749656.79845  24468264.253    24468273.1374
  21177811.696   -21657281.211 9 -16573470.54047  21177811.486    21177816.4424
  22049646.629   -19365666.082 8 -14796947.58847  22049646.657    22049652.6454
  21948807.384     7318382.950 8   5713569.12846  21948806.857    21948814.0814
  21690481.792     2555304.661 8   1996651.42847  21690481.422    21690488.4064
 00  9 20 18 24  0.0000000  0  6 29 31 11 25 15 21
  21419054.747    -3069060.186 9  -2379006.65747  21419054.837    21419060.1454
  24484478.778     6165007.969 7   4816050.38145  24484478.339    24484487.4964
  21169065.644   -21703242.166 9 -16609284.26147  21169065.391    21169070.3934
  22034467.157   -19445434.477 8 -14859104.73747  22034467.196    22034473.1444
  21967768.526     7418023.548 8   5791211.07046  21967768.010    21967775.0844
  21699864.538     2604611.294 8   2035072.14347  21699864.177    21699871.1074
 00  9 20 18 24 30.0000000  0  6 29 31 11 25 15 21
  21430486.527    -3008986.635 9  -2332196.13347  21430486.553    21430491.8344
  24500710.282     6250305.507 7   4882515.86745  24500709.871    24500719.1294
  21160415.235   -21748700.241 9 -16644706.13747  21160415.029    21160419.9934
  22019352.073   -19524864.720 8 -14920998.37247  22019352.090    22019358.0744
  21986788.512     7517974.355 8   5869094.73146  21986787.934    21986795.0154
  21709298.025     2654184.464 8   2073700.53847  21709297.696    21709304.6774
 00  9 20 18 25  0.0000000  0  6 29 31 11 25 15 21
  21441961.141    -2948687.060 9  -2285209.50147  21441961.199    21441966.5044
  24516958.923     6335691.442 7   4949050.19245  24516958.452    24516967.7474
  21151860.807   -21793654.348 9 -16679735.31247  21151860.582    21151865.5284
  22004301.659   -19603955.133 8 -14982627.22247  22004301.699    22004307.6364
  22005866.893     7618232.369 8   5947217.76246  22005866.356    22005873.5314
  21718782.291     2704024.022 8   2112536.50147  21718781.940    21718788.8574
 00  9 20 18 25 30.0000000  0  6 29 31 11 25 15 21
  21453478.640    -2888162.454 9  -2238047.51947  21453478.666    21453484.0024
  24533223.944     6421163.911 7   5015651.94045  24533223.592    24533232.7864
  21143402.732   -21838101.678 9 -16714369.59347  21143402.507    21143407.4994
  21989316.572   -19682702.181 8 -15043988.51147  21989316.563    21989322.4314
  22025003.519     7718796.345 8   6025579.21446  22025003.047    22025010.2624
  21728317.380     2754130.883 8   2151580.74947  21728317.059    21728323.9304
 00  9 20 18 26  0.0000000  0  7 29 31 11 25 20 15 21
  21465038.498    -2827415.283 9  -2190712.10647  21465038.533    21465043.8224
  24549504.428     6506718.842 7   5082317.96045  24549504.062    24549513.5334
  21135041.246   -21882041.479 9 -16748608.39847  21135041.055    21135046.0084
  21974396.966   -19761104.321 8 -15105081.04147  21974397.012    21974403.0184
  24706745.004    -4554031.008 8  -3035344.95045  24706744.217    24706753.3324
  22044198.013     7819662.986 8   6104176.52046  22044197.509    22044204.7144
  21737903.309     2804505.183 8   2190833.39747  21737903.003    21737909.8324
 00  9 20 18 26 30.0000000  0  7 29 31 11 25 20 15 21
  21476640.484    -2766446.864 9  -2143204.28647  21476640.501    21476645.7304
  24565800.326     6592353.404 7   5149046.02045  24565799.990    24565809.3334
  21126776.817   -21925471.489 9 -16782449.95747  21126776.597    21126781.5784
  21959543.523   -19839159.293 8 -15165903.06447  21959543.544    21959549.6434
  24689485.018    -4644734.082 8  -3106022.60745  24689483.986    24689492.9924
  22063449.540     7920830.208 8   6183008.01046  22063449.092    22063456.3554
  21747540.064     2855146.650 8   2230294.23347  21747539.732    21747546.6474
 00  9 20 18 27  0.0000000  0  7 29 31 11 25 20 15 21
  21488284.353    -2705257.729 8  -2095524.48347  21488284.390    21488289.6694
  24582110.970     6678065.640 7   5215834.61645  24582110.588    24582119.9084
  21118609.813   -21968389.179 9 -16815892.30847  21118609.581    21118614.6164
  21944756.862   -19916863.323 8 -15226451.61747  21944756.891    21944763.0494
  24672222.750    -4735448.076 8  -3176708.77145  24672221.806    24672230.6344
  22082758.140     8022296.911 8   6262072.87846  22082757.705    22082764.9494
  21757227.909     2906056.610 8   2269964.28947  21757227.615    21757234.5674
 00  9 20 18 27 30.0000000  0  7 29 31 11 25 20 15 21
  21499969.654    -2643850.886 8  -2047675.03947  21499969.711    21499975.0724
  24598435.555     6763851.355 7   5282680.45345  24598435.147    24598444.5624
  21110540.402   -22010793.951 9 -16848934.98847  21110540.197    21110545.2104
  21930037.225   -19994215.468 8 -15286725.96647  21930037.261    21930043.3424
  24654958.169    -4826173.837 8  -3247404.08745  24654957.288    24654966.0444
  22102122.908     8124059.348 8   6341368.17446  22102122.479    22102129.7164
  21766966.731     2957234.182 8   2309842.87447  21766966.393    21766973.4064
 00  9 20 18 28  0.0000000  0  7 29 31 11 25 20 15 21
  21511696.346    -2582226.331 9  -1999655.96147  21511696.452    21511701.8934
  24614773.943     6849709.365 7   5349582.62745  24614773.686    24614782.8224
  21102569.297   -22052682.387 9 -16881575.33447  21102569.095    21102574.1034
  21915385.319   -20071211.886 8 -15346723.13447  21915385.344    21915391.3204
  24637691.728    -4916908.972 8  -3318106.72645  24637691.021    24637699.6464
  22121543.923     8226116.500 8   6420893.13246  22121543.404    22121550.6274
  21776756.770     3008681.183 8   2349931.40247  21776756.445    21776763.4484
 00  9 20 18 28 30.0000000  0  7 29 31 11 25 20 15 21
  21523464.110    -2520386.629 9  -1951469.21847  21523464.196    21523469.6504
  24631125.159     6935635.558 7   5416537.93945  24631124.958    24631134.3374
  21094696.637   -22094053.926 9 -16913812.89447  21094696.396    21094701.3784
  21900801.231   -20147851.460 8 -15406442.23647  21900801.251    21900807.1764
  24620423.528    -5007653.927 8  -3388817.01145  24620422.836    24620431.2994
  22141020.358     8328465.365 8   6500645.39846  22141019.841    22141027.1984
  21786597.966     3060396.551 8   2390229.03647  21786597.622    21786604.6414
 00  9 20 18 29  0.0000000  0  7 29 31 11 25 20 15 21
  21535272.405    -2458333.712 9  -1903116.34347  21535272.511    21535277.9564
  24647488.587     7021626.799 7   5483543.92745  24647488.559    24647498.2904
  21086922.494   -22134907.279 9 -16945646.67847  21086922.257    21086927.2434
  21886285.525   -20224131.906 8 -15465881.50547  21886285.560    21886291.3994
  24603153.435    -5098408.373 7  -3459534.68945  24603152.862    24603160.9934
  22160551.809     8431103.504 8   6580623.08446  22160551.260    22160558.8224
  21796490.259     3112380.446 8   2430735.91447  21796489.904    21796496.8814
 00  9 20 18 29 30.0000000  0  7 29 31 11 25 20 15 21
  21547121.102    -2396068.758 8  -1854598.25247  21547121.158    21547126.6464
  24663864.417     7107680.605 7   5550598.67445  24663864.192    24663873.8014
  21079247.367   -22175240.115 9 -16977074.86447  21079247.181    21079252.1794
  21871838.669   -20300050.854 8 -15525039.09547  21871838.681    21871844.4544
  24585881.698    -5189171.019 7  -3530258.77045  24585881.358    24585889.3514
  22180137.819     8534028.833 8   6660824.53246  22180137.291    22180145.0034
  21806433.674     3164633.178 8   2471452.26947  21806433.290    21806440.2974
 00  9 20 18 30  0.0000000  0  7 29 31 11 25 20 15 21
  21559009.696    -2333593.694 9  -1805916.43447  21559009.788    21559015.3064
  24680251.085     7193793.434 7   5617699.38845  24680251.067    24680260.5384
  21071671.493   -22215051.477 9 -17008096.70947  21071671.295    21071676.3074
  21857460.924   -20375606.179 8 -15583913.33847  21857460.925    21857466.7264
  24568608.316    -5279941.738 7  -3600989.13045  24568608.167    24568616.2564
  22199778.092     8637238.750 8   6741247.73546  22199777.573    22199785.1564
  21816428.228     3217154.827 8   2512378.18246  21816427.851    21816434.8594
 00  9 20 18 30 30.0000000  0  7 29 31 11 25 20 15 21
  21570938.074    -2270910.182 8  -1757072.19047  21570938.110    21570943.6314
  24696648.777     7279962.043 7   5684843.58145  24696648.456    24696658.0884
  21064195.225   -22254339.656 9 -17038710.87447  21064194.991    21064200.0324
  21843152.862   -20450795.446 9 -15642502.33447  21843152.880    21843158.6054
  24551333.754    -5370719.859 7  -3671725.27745  24551333.575    24551341.8014
  22219472.113     8740730.718 8   6821890.70246  22219471.600    22219478.9074
  21826473.910     3269945.282 8   2553513.55346  21826473.557    21826480.6004
 00  9 20 18 31  0.0000000  0  7 29 31 11 25 20 15 21
  21582905.669    -2208020.055 8  -1708066.94647  21582905.685    21582911.2314
  24713056.406     7366183.552 7   5752028.97045  24713056.066    24713065.5564
  21056818.778   -22293103.128 9 -17068916.18147  21056818.548    21056823.6144
  21828914.823   -20525616.893 8 -15700804.70647  21828914.787    21828920.5064
  24534057.998    -5461505.104 7  -3742466.97444  24534057.396    24534065.6154
  22239219.212     8844502.123 8   6902751.42146  22239218.709    22239226.1814
  21836570.654     3323004.073 8   2594858.01146  21836570.367    21836577.3994
 00  9 20 18 31 30.0000000  0  7 29 31 11 25 20 15 21
  21594912.401    -2144924.351 8  -1658901.50847  21594912.443    21594917.9364
  24729473.588     7452455.306 7   5819253.54845  24729473.231    24729482.8834
  21049542.613   -22331339.948 9 -17098711.10447  21049542.355    21049547.4254
  21814747.227   -20600067.924 9 -15758818.44047  21814747.215    21814752.9344
  24516781.050    -5552296.169 7  -3813213.19244  24516780.566    24516788.7744
  22259019.028     8948551.094 8   6983828.44946  22259018.532    22259026.2614
  21846718.756     3376332.279 8   2636412.40247  21846718.461    21846725.5254
 00  9 20 18 32  0.0000000  0  7 29 31 11 25 20 15 21
  21606957.866    -2081625.478 8  -1609577.76547  21606957.834    21606963.3414
  24745899.708     7538773.530 7   5886514.31545  24745899.170    24745908.8074
  21042366.708   -22369049.290 9 -17128095.01147  21042366.503    21042371.5314
  21800650.454   -20674146.736 9 -15816542.13847  21800650.454    21800656.2404
  24499503.069    -5643093.301 7  -3883964.13844  24499502.667    24499510.3874
  22278871.051     9052874.486 8   7065119.30746  22278870.529    22278878.5524
  21856917.987     3429929.373 8   2678176.30946  21856917.681    21856924.7344
 00  9 20 18 32 30.0000000  0  7 29 31 11 25 20 15 21
  21619041.718    -2018124.263 8  -1560096.36247  21619041.759    21619047.3074
  24762334.084     7625136.211 8   5953809.70845  24762333.723    24762343.4344
  21035291.680   -22406228.845 9 -17157066.09547  21035291.471    21035296.5084
  21786625.172   -20747850.389 9 -15873973.51247  21786625.133    21786630.8794
  24482224.194    -5733894.696 7  -3954718.37844  24482223.810    24482231.5794
  22298775.025     9157470.581 8   7146622.64746  22298774.570    22298782.6024
  21867168.625     3483796.608 8   2720150.71146  21867168.344    21867175.4184
 00  9 20 18 33  0.0000000  0  7 29 31 11 25 20 15 21
  21631163.825    -1954422.042 8  -1510458.33147  21631163.907    21631169.5414
  24778776.685     7711540.843 7   6021137.79345  24778776.200    24778785.8904
  21028317.802   -22442876.818 9 -17185622.96047  21028317.579    21028322.6284
  21772671.678   -20821176.510 9 -15931110.70947  21772671.623    21772677.3684
  24464944.209    -5824699.435 7  -4025475.20244  24464943.974    24464951.7404
  22318730.759     9262337.368 8   7228336.88946  22318730.254    22318738.0124
  21877470.607     3537933.976 8   2762335.61346  21877470.352    21877477.4264
 00  9 20 18 33 30.0000000  0  7 29 31 11 25 20 15 21
  21643323.899    -1890520.529 8  -1460664.99847  21643324.009    21643329.6684
  24795226.400     7797984.337 8   6088496.17045  24795225.982    24795235.7024
  21021445.316   -22478991.913 9 -17213764.59847  21021445.106    21021450.1234
  21758790.278   -20894123.216 8 -15987952.25347  21758790.233    21758796.0054
  24447663.890    -5915507.001 7  -4096234.25545  24447663.644    24447671.6144
  22338737.459     9367471.977 8   7310259.82046  22338736.914    22338744.5034
  21887824.054     3592341.576 8   2804731.08946  21887823.805    21887830.9844
 00  9 20 18 34  0.0000000  0  7 29 31 11 25 20 15 21
  21655521.503    -1826421.985 8  -1410718.13747  21655521.624    21655527.2314
  24811682.929     7884462.747 8   6155881.75945  24811682.519    24811692.2424
  21014674.423   -22514573.332 9 -17241490.38347  21014674.234    21014679.2184
  21744981.342   -20966688.905 8 -16044496.91147  21744981.333    21744987.0844
  24430383.164    -6006317.733 7  -4166995.80645  24430382.938    24430390.8364
  22358794.428     9472871.655 8   7392389.30046  22358793.849    22358801.4734
  21898228.699     3647018.527 8   2847336.43846  21898228.482    21898235.6964
 00  9 20 18 34 30.0000000  0  7 29 31 11 25 20 15 21
  21667756.406    -1762127.721 8  -1360618.76547  21667756.484    21667762.0434
  24828145.406     7970973.366 8   6223292.41645  24828145.092    24828154.8144
  21008005.465   -22549619.098 9 -17268798.78047  21008005.281    21008010.2344
  21731245.434   -21038871.146 9 -16100742.75847  21731245.462    21731251.1424
  24413102.226    -6097130.368 7  -4237758.82045  24413101.951    24413109.8404
  22378901.283     9578534.390 8   7474723.78546  22378900.820    22378908.5394
  21908684.850     3701965.416 8   2890152.13346  21908684.583    21908691.8494
 00  9 20 18 35  0.0000000  0  7 29 31 11 25 20 15 21
  21680028.253    -1697638.963 8  -1310367.84347  21680028.338    21680033.9434
  24844613.748     8057513.685 8   6290726.24445  24844613.342    24844623.1164
  21001438.732   -22584127.674 9 -17295688.58247  21001438.546    21001443.4674
  21717583.026   -21110667.710 9 -16156688.08247  21717583.050    21717588.6624
  24395820.706    -6187943.955 7  -4308522.57745  24395820.505    24395828.4854
  22399057.860     9684457.767 8   7557261.34446  22399057.385    22399065.3184
  21919192.331     3757182.388 8   2933178.29146  21919192.069    21919199.2854
 00  9 20 18 35 30.0000000  0  7 29 31 11 25 20 15 21
  21692336.877    -1632956.893 8  -1259966.28847  21692336.958    21692342.6214
  24861087.102     8144080.849 7   6358180.95745  24861086.618    24861096.6174
  20994974.533   -22618097.451 9 -17322158.53647  20994974.322    20994979.2364
  21703994.506   -21182075.848 9 -16212330.72147  21703994.547    21704000.1384
  24378539.353    -6278757.496 7  -4379286.30045  24378539.069    24378547.2014
  22419263.591     9790639.736 8   7640000.41146  22419263.227    22419271.1894
  21929751.262     3812669.943 8   2976415.28246  21929750.989    21929758.3124
 00  9 20 18 36  0.0000000  0  7 29 31 11 25 20 15 21
  21704682.048    -1568083.201 8  -1209415.41747  21704682.051    21704687.7304
  24877564.928     8230672.062 7   6425654.42945  24877564.470    24877574.5414
  20988613.165   -22651526.535 9 -17348207.17247  20988612.966    20988617.8994
  21690480.321   -21253093.319 9 -16267668.95247  21690480.323    21690486.0324
  24361258.098    -6369569.940 7  -4450049.14845  24361257.902    24361266.1894
  22439518.226     9897077.910 8   7722939.08746  22439517.835    22439525.6644
  21940361.836     3868428.404 8   3019863.37746  21940361.504    21940368.8574
 00  9 20 18 36 30.0000000  0  7 29 31 11 25 20 15 21
  21717063.196    -1503020.037 8  -1158716.90847  21717063.220    21717068.8774
  24894046.598     8317283.496 7   6493143.63445  24894046.161    24894056.3464
  20982354.760   -22684414.627 9 -17373834.25647  20982354.558    20982359.5104
  21677040.602   -21323718.914 9 -16322701.84147  21677040.587    21677046.4454
  24343977.192    -6460381.555 7  -4520811.36345  24343976.995    24343985.2434
  22459821.038    10003769.067 8   7806074.91846  22459820.619    22459828.4684
  21951023.749     3924457.151 8   3063522.06746  21951023.443    21951030.7914
 00  9 20 18 37  0.0000000  0  7 29 31 11 25 20 15 21
  21729480.145    -1437768.786 8  -1107871.83247  21729480.164    21729485.8424
  24910531.536     8403912.950 7   6560646.89645  24910531.189    24910541.5644
  20976199.566   -22716760.253 9 -17399038.63947  20976199.350    20976204.3374
  21663676.018   -21393950.159 9 -16377427.43747  21663675.999    21663681.8454
  24326696.490    -6551191.386 7  -4591572.18145  24326696.229    24326704.6124
  22480171.503    10110711.034 8   7889406.18546  22480171.111    22480179.0914
  21961737.374     3980756.742 8   3107391.81746  21961737.035    21961744.2804
 00  9 20 18 37 30.0000000  0  6 29 11 25 20 15 21
  21741933.968    -1372323.474 8  -1056875.54247  21741934.022    21741939.7304
  20970149.398   -22748554.199 9 -17423813.15447  20970149.188    20970154.1624
  21650388.236   -21463777.598 9 -16431838.38247  21650388.248    21650394.0064
  24309417.770    -6641990.997 8  -4662325.02245  24309417.570    24309425.9104
  22500570.734    10217908.920 8   7972936.89346  22500570.368    22500578.4324
  21972503.932     4037334.657 8   3151478.43646  21972503.562    21972510.7284
 00  9 20 18 38  0.0000000  0  6 29 11 25 20 15 21
  21754422.817    -1306694.397 8  -1005736.05447  21754422.886    21754428.5664
  20964202.794   -22779804.075 9 -17448163.70347  20964202.525    20964207.4774
  21637176.142   -21533207.702 9 -16485939.69147  21637176.135    21637181.7994
  24292139.651    -6732788.306 8  -4733076.09145  24292139.352    24292147.7424
  22521016.601    10325351.593 8   8056658.33946  22521016.205    22521024.3004
  21983321.601     4094181.967 8   3195774.98446  21983321.283    21983328.4874
 00  9 20 18 38 30.0000000  0  6 29 11 25 20 15 21
  21766946.052    -1240885.068 8   -954456.11547  21766946.087    21766951.6964
  20958359.548   -22810510.411 9 -17472090.72747  20958359.320    20958364.1884
  21624039.636   -21602240.488 9 -16539731.42847  21624039.639    21624045.2454
  24274861.695    -6823584.889 8  -4803826.60945  24274861.443    24274869.6534
  22541508.235    10433034.473 8   8140566.92546  22541507.788    22541515.7584
  21994190.246     4151296.936 8   3240280.09446  21994189.949    21994197.2104
 00  9 20 18 39  0.0000000  0  6 29 11 25 20 15 21
  21779503.529    -1174895.378 8   -903035.63347  21779503.583    21779509.1564
  20952620.321   -22840670.180 9 -17495591.84547  20952620.083    20952624.9784
  21610979.310   -21670872.540 9 -16593210.90847  21610979.331    21610984.9824
  24257584.291    -6914378.109 7  -4874574.48245  24257584.055    24257592.1364
  22562045.309    10540956.968 8   8224662.25946  22562044.831    22562052.6174
  22005110.118     4208680.935 8   3284994.84246  22005109.799    22005117.1314
 00  9 20 18 39 30.0000000  0  6 29 11 25 20 15 21
  21792095.241    -1108725.866 8   -851475.03347  21792095.286    21792100.8564
  20946985.404   -22870281.510 9 -17518665.62047  20946985.194    20946990.1514
  21597995.727   -21739100.922 9 -16646375.84547  21597995.809    21598001.5934
  24240307.896    -7005166.454 7  -4945318.57245  24240307.544    24240315.5094
  22582627.549    10649117.239 8   8308942.87146  22582627.053    22582634.7684
  22016081.408     4266335.140 8   3329920.12946  22016081.084    22016088.4574
 00  9 20 18 40  0.0000000  0  6 29 11 25 20 15 21
  21804720.923    -1042377.568 8   -799775.11047  21804720.995    21804726.5694
  20941455.307   -22899342.183 9 -17541310.30247  20941455.082    20941460.1094
  21585089.715   -21806922.723 9 -16699223.96447  21585089.744    21585095.4854
  24223032.706    -7095948.215 7  -5016057.52345  24223032.354    24223040.2454
  22603254.630    10757513.603 8   8393407.40946  22603254.183    22603262.0244
  22027104.275     4324260.238 8   3375056.49446  22027103.943    22027111.2824
 00  9 20 18 40 30.0000000  0  6 29 11 25 20 15 21
  21817380.308     -975852.201 8   -747937.22247  21817380.372    21817385.9754
  20936030.161   -22927851.642 9 -17563525.47747  20936029.938    20936034.9984
  21572261.312   -21874336.295 9 -16751753.99847  21572261.334    21572266.9784
  24205758.763    -7186723.060 7  -5086791.09945  24205758.423    24205766.3324
  22623926.289    10866143.008 8   8478053.54146  22623925.901    22623933.8284
  22038178.678     4382456.073 8   3420403.81246  22038178.327    22038185.6084
 00  9 20 18 41  0.0000000  0  6 29 11 25 20 15 21
  21830073.315     -909150.333 8   -695961.80147  21830073.375    21830078.9744
  20930710.349   -22955807.648 9 -17585309.38347  20930710.141    20930715.1974
  21559511.139   -21941339.063 9 -16803963.91847  21559511.111    21559516.6704
  24188486.377    -7277489.552 7  -5157518.16245  24188485.960    24188493.8844
  22644642.157    10975004.103 8   8562880.22146  22644641.710    22644649.7724
  22049304.659     4440923.362 8   3465962.65546  22049304.364    22049311.6044
 00  9 20 18 41 30.0000000  0  6 29 11 25 20 15 21
  21842799.410     -842274.451 8   -643850.77747  21842799.464    21842805.0854
  20925495.910   -22983209.769 9 -17606661.69247  20925495.711    20925500.7654
  21546839.163   -22007929.760 9 -16855852.74047  21546839.194    21546844.8454
  24171215.756    -7368247.466 8  -5228238.52245  24171215.296    24171223.1924
  22665401.175    11084093.298 8   8647884.64046  22665400.710    22665409.0164
  22060482.128     4499661.185 8   3511732.31846  22060481.836    22060489.1274
 00  9 20 18 42  0.0000000  0  6 29 11 25 20 15 21
  21855558.455     -775225.352 8   -591604.77547  21855558.531    21855564.1574
  20920387.274   -23010056.080 9 -17627580.89247  20920387.067    20920392.1004
  21534246.300   -22074105.354 9 -16907418.10647  21534246.351    21534252.0944
  24153947.069    -7458995.312 7  -5298951.05845  24153946.521    24153954.4324
  22686203.139    11193408.863 8   8733065.46546  22686202.699    22686211.1994
  22071711.333     4558670.671 8   3557713.67146  22071711.022    22071718.3614
 00  9 20 18 42 30.0000000  0  6 29 11 25 20 15 21
  21868350.251     -708004.203 8   -539224.72347  21868350.326    21868356.0274
  20915384.550   -23036345.315 9 -17648066.01147  20915384.351    20915389.4074
  21521732.979   -22139863.769 9 -16958658.41347  21521733.014    21521738.7554
  24136680.383    -7549732.149 8  -5369655.00645  24136679.924    24136687.8224
  22707047.786    11302948.742 8   8818421.05746  22707047.408    22707056.0274
  22082992.221     4617951.914 8   3603906.77046  22082991.903    22082999.2924
 00  9 20 18 43  0.0000000  0  6 29 11 25 20 15 21
  21881174.458     -640612.632 8   -486711.87347  21881174.518    21881180.2824
  20910488.098   -23062076.319 9 -17668116.15447  20910487.930    20910492.9444
  21509299.388   -22205203.159 9 -17009572.20347  21509299.362    21509305.1074
  24119415.903    -7640456.947 7  -5440349.56545  24119415.386    24119423.3404
  22727935.036    11412710.361 8   8903949.43746  22727934.568    22727943.1674
  22094324.872     4677504.679 8   3650311.43546  22094324.497    22094331.9584
 00  9 20 18 43 30.0000000  0  6 29 11 25 20 15 21
  21894030.670     -573052.627 8   -434067.77547  21894030.758    21894036.5964
  20905698.007   -23087248.585 9 -17687730.90247  20905697.796    20905702.8484
  21496945.690   -22270122.332 9 -17060158.56047  21496945.674    21496951.3824
  24102153.687    -7731169.793 8  -5511034.86145  24102153.197    24102160.9274
  22748863.881    11522690.675 8   8989648.22446  22748863.310    22748871.9514
  22105708.987     4737328.719 8   3696927.48846  22105708.676    22105716.1144
 00  9 20 18 44  0.0000000  0  6 29 11 25 20 15 21
  21906918.724     -505325.536 8   -381293.47247  21906918.806    21906924.6854
  20901014.474   -23111860.802 9 -17706909.25847  20901014.279    20901019.2954
  21484672.329   -22334619.164 9 -17110415.80847  21484672.251    21484677.9734
  24084893.887    -7821869.486 7  -5581709.87145  24084893.496    24084901.1694
  22769833.764    11632887.342 8   9075515.58246  22769833.222    22769841.7724
  22117144.765     4797423.969 8   3743754.87246  22117144.510    22117151.9994
 00  9 20 18 44 30.0000000  0  6 29 11 25 20 15 21
  21919838.420     -437432.204 8   -328389.63647  21919838.532    21919844.4584
  20896437.744   -23135911.633 9 -17725650.16547  20896437.537    20896442.5644
  21472479.744   -22398691.176 9 -17160342.04347  21472479.712    21472485.4274
  24067636.923    -7912554.639 7  -5652373.56445  24067636.652    24067644.2574
  22790844.458    11743298.485 8   9161550.08246  22790843.907    22790852.4724
  22128632.137     4857790.693 8   3790793.79646  22128631.937    22128639.4294
 00  9 20 18 45  0.0000000  0  6 29 11 25 20 15 21
  21932789.362     -369374.873 8   -275358.00447  21932789.445    21932795.3764
  20891967.959   -23159400.543 9 -17743953.20947  20891967.762    20891972.7804
  21460368.297   -22462336.988 9 -17209936.16447  21460368.286    21460374.0204
  24050382.700    -8003225.106 7  -5723025.78845  24050382.387    24050390.3314
  22811895.380    11853920.744 8   9247749.07246  22811894.813    22811903.2584
  22140171.276     4918428.611 8   3838044.04246  22140171.028    22140178.4864
 00  9 20 18 45 30.0000000  0  6 29 11 25 20 15 21
  21945771.374     -301154.496 8   -222199.33247  21945771.389    21945777.3784
  20887605.449   -23182325.933 9 -17761817.14847  20887605.252    20887610.2584
  21448338.434   -22525554.611 9 -17259196.63747  21448338.414    21448344.1624
  24033131.431    -8093879.669 7  -5793665.61545  24033131.259    24033139.4804
  22832986.091    11964752.169 8   9334111.05546  22832985.503    22832993.9844
  22151762.025     4979337.786 8   3885505.65546  22151761.705    22151769.1674
 00  9 20 18 46  0.0000000  0  6 29 11 25 20 15 21
  21958784.200     -232771.983 8   -168914.32647  21958784.230    21958790.2214
  20883350.491   -23204686.212 9 -17779240.74247  20883350.227    20883355.2624
  21436390.486   -22588341.464 9 -17308121.45247  21436390.486    21436396.2504
  24015883.620    -8184516.772 8  -5864291.83345  24015883.509    24015891.7174
  22854116.083    12075790.774 8   9420634.46746  22854115.495    22854124.1564
  22163404.435     5040519.095 8   3933179.30846  22163404.104    22163411.6304
 00  9 20 18 46 30.0000000  0  6 29 11 25 20 15 21
  21971827.285     -164230.275 8   -115505.26647  21971827.320    21971833.3004
  20879202.809   -23226482.146 9 -17796224.58947  20879202.569    20879207.6194
  21424524.389   -22650697.573 9 -17356710.61347  21424524.430    21424530.2394
  23998639.391    -8275137.220 8  -5934905.10145  23998639.148    23998646.9924
  22875284.650    12187032.168 8   9507315.90546  22875284.120    22875292.9664
  22175098.422     5101971.116 8   3981063.91146  22175098.119    22175105.6854
 00  9 20 18 47  0.0000000  0  6 29 11 25 20 15 21
  21984900.449      -95530.496 8    -61973.03747  21984900.500    21984906.5154
  20875162.847   -23247712.074 9 -17812767.38947  20875162.626    20875167.6914
  21412740.892   -22712620.076 9 -17404961.89647  21412740.908    21412746.6964
  23981398.104    -8365739.679 8  -6005504.34045  23981398.084    23981405.6344
  22896491.644    12298474.683 8   9594154.07646  22896491.159    22896499.9724
  22186844.050     5163694.049 8   4029159.61546  22186843.678    22186851.2834
 00  9 20 18 47 30.0000000  0  6 29 11 25 20 15 21
  21998003.569      -26673.456 8     -8318.27247  21998003.619    21998009.6604
  20871230.862   -23268374.705 9 -17828868.14947  20871230.628    20871235.7104
  21401040.259   -22774107.058 9 -17452873.81747  21401040.288    21401045.9834
  23964160.852    -8456322.824 8  -6076088.53945  23964160.786    23964168.2414
  22917736.639    12410115.986 8   9681147.10246  22917736.091    22917744.7094
  22198641.187     5225688.303 8   4077466.74346  22198640.841    22198648.4744
 00  9 20 18 48  0.0000000  0  6 29 11 25 20 15 21
  22011136.253       42338.512 8     45457.22447  22011136.237    22011142.2354
  20867406.831   -23288469.835 9 -17844526.69047  20867406.615    20867411.7524
  21389422.802   -22835157.207 9 -17500445.34147  21389422.851    21389428.4744
  23946927.230    -8546886.211 8  -6146657.33145  23946927.128    23946934.6134
  22939018.906    12521953.088 8   9768292.73446  22939018.308    22939026.5184
  22210489.843     5287953.088 8   4125984.67146  22210489.518    22210497.1584
 00  9 20 18 48 30.0000000  0  6 29 11 25 20 15 21
  22024298.443      111505.737 8     99353.69647  22024298.425    22024304.3784
  20863691.315   -23307995.073 9 -17859741.16047  20863691.107    20863696.2404
  21377889.099   -22895767.532 9 -17547674.14147  21377889.115    21377894.7794
  23929697.676    -8637427.560 8  -6217208.94845  23929697.545    23929704.9794
  22960337.903    12633984.750 8   9855589.95245  22960337.299    22960345.4274
  22222390.175     5350489.578 8   4174714.31146  22222389.840    22222397.5054
 00  9 20 18 49  0.0000000  0  6 29 11 25 20 15 21
  22037489.762      180826.409 8    153369.74147  22037489.723    22037495.7254
  20860084.384   -23326949.825 9 -17874511.10847  20860084.174    20860089.2544
  21366439.295   -22955936.541 9 -17594559.06247  21366439.322    21366445.0614
  23912472.571    -8727946.204 8  -6287742.90645  23912472.450    23912479.7634
  22981693.183    12746208.376 8   9943036.76345  22981692.726    22981701.0194
  22234342.208     5413297.770 8   4223655.66846  22234341.855    22234349.5504
 00  9 20 18 49 30.0000000  0  6 29 11 25 20 15 21
  22050709.926      250299.110 8    207504.24547  22050709.941    22050715.9714
  20856586.113   -23345333.435 9 -17888835.99747  20856585.876    20856590.9734
  21355073.744   -23015662.466 9 -17641098.72547  21355073.800    21355079.5474
  23895251.977    -8818441.228 8  -6358258.46345  23895251.771    23895259.1034
  23003084.573    12858621.230 8  10030631.03145  23003084.067    23003092.5964
  22246345.943     5476377.747 8   4272808.80446  22246345.586    22246353.2784
 00  9 20 18 50  0.0000000  0  6 29 11 25 20 15 21
  22063958.614      319921.877 8    261755.67947  22063958.719    22063964.8174
  20853196.614   -23363145.272 9 -17902715.35847  20853196.432    20853201.4814
  21343792.851   -23074943.750 9 -17687291.90747  21343792.940    21343798.6864
  23878035.923    -8908912.332 8  -6428755.36045  23878035.600    23878042.9994
  23024511.312    12971220.273 8  10118370.36245  23024511.002    23024519.7434
  22258401.340     5539728.477 8   4322172.93746  22258401.019    22258408.6514
 00  9 20 18 50 30.0000000  0  6 29 11 25 20 15 21
  22077235.762      389693.252 8    316122.90847  22077235.828    22077241.9744
  20849916.052   -23380384.957 9 -17916148.88547  20849915.844    20849920.9024
  21332596.871   -23133779.100 9 -17733137.60347  21332596.931    21332602.6304
  23860824.715    -8999358.704 8  -6499232.99845  23860824.235    23860831.6104
  23045973.423    13084002.796 8  10206252.65645  23045973.034    23045981.9014
  22270508.056     5603349.265 8   4371747.49946  22270507.708    22270515.4344
 00  9 20 18 51  0.0000000  0  6 29 11 25 20 15 21
  22090540.937      459611.861 8    370604.86947  22090540.957    22090547.1144
  20846744.566   -23397051.339 9 -17929135.68447  20846744.339    20846749.3854
  21321486.124   -23192166.381 9 -17778634.14447  21321486.182    21321491.8294
  23843618.159    -9089779.368 8  -6569690.61645  23843617.627    23843625.1014
  23067470.012    13196966.496 8  10294276.13846  23067469.523    23067478.5014
  22282666.263     5667240.914 8   4421533.11746  22282665.952    22282673.7134
 00  9 20 18 51 30.0000000  0  6 29 11 25 20 15 21
  22103873.968      529677.059 8    425201.05247  22103873.997    22103880.1494
  20843682.354   -23413143.104 9 -17941674.72647  20843682.159    20843687.2224
  21310461.135   -23250103.680 9 -17823780.04747  21310461.145    21310466.7194
  23826416.901    -9180172.520 8  -6640126.77045  23826416.245    23826423.7804
  23089000.515    13310109.448 8  10382439.30146  23089000.008    23089009.1284
  22294876.129     5731404.056 8   4471530.26946  22294875.809    22294883.6264
 00  9 20 18 52  0.0000000  0  6 29 11 25 20 15 21
  22117234.498      599886.914 8    479909.95846  22117234.527    22117240.6504
  20840729.521   -23428660.269 9 -17953766.02747  20840729.323    20840734.3904
  21299521.888   -23307589.718 9 -17868574.33047  21299521.898    21299527.4554
  23809220.939    -9270537.848 7  -6710541.23945  23809220.160    23809227.7344
  23110564.638    13423428.484 8  10470739.67346  23110564.158    23110573.2364
  22307137.586     5795837.923 8   4521738.39546  22307137.240    22307145.1004
 00  9 20 18 52 30.0000000  0  6 29 11 25 20 15 21
  22130622.341      670240.159 8    534730.59546  22130622.349    22130628.4354
  20837886.311   -23443601.466 9 -17965408.52847  20837886.132    20837891.1564
  21288668.864   -23364622.623 9 -17913015.51447  21288668.861    21288674.4784
  23792030.318    -9360874.277 8  -6780933.18145  23792029.551    23792037.2354
  23132161.843    13536921.235 8  10559175.40045  23132161.317    23132170.1704
  22319450.501     5860542.516 8   4572157.46946  22319450.126    22319458.0994
 00  9 20 18 53  0.0000000  0  6 29 11 25 20 15 21
  22144037.322      740735.927 8    589662.29446  22144037.312    22144043.4044
  20835152.886   -23457965.907 9 -17976601.60647  20835152.684    20835157.6854
  21277902.320   -23421200.619 9 -17957102.22347  21277902.345    21277908.0614
  23774845.361    -9451180.254 8  -6851301.42645  23774844.787    23774852.5514
  23153791.654    13650585.840 8  10647745.02045  23153791.153    23153799.8844
  22331814.968     5925517.781 8   4622787.46646  22331814.556    22331822.5864
 00  9 20 18 53 30.0000000  0  6 29 11 25 20 15 21
  22157479.135      811372.620 8    644703.79447  22157479.146    22157485.2134
  20832529.302   -23471753.034 9 -17987344.82547  20832529.070    20832534.0744
  21267222.776   -23477321.984 9 -18000833.11947  21267222.788    21267228.4904
  23757666.512    -9541455.077 8  -6921645.38345  23757665.970    23757673.8774
  23175453.703    13764419.372 8  10736446.29745  23175453.167    23175461.7964
  22344231.003     5990764.070 8   4673628.64646  22344230.671    22344238.6194
 00  9 20 18 54  0.0000000  0  6 29 11 25 20 15 21
  22170947.423      882148.373 8    699853.67147  22170947.462    22170953.4944
  20830015.528   -23484962.898 9 -17997638.23447  20830015.321    20830020.3474
  21256630.235   -23532985.913 9 -18044207.56747  21256630.241    21256635.9214
  23740493.852    -9631698.398 8  -6991964.80245  23740493.278    23740501.0674
  23197147.117    13878418.653 8  10825276.72045  23197146.509    23197155.2124
  22356698.409     6056280.029 8   4724679.95046  22356698.070    22356705.9554
 00  9 20 18 54 30.0000000  0  6 29 11 25 20 15 21
  22184441.901      953062.189 8    755111.10847  22184441.950    22184448.0494
  20827611.819   -23497594.450 9 -18007481.00147  20827611.585    20827616.6634
  21246125.188   -23588190.034 9 -18087223.72947  21246125.233    21246130.8644
  23723327.170    -9721908.900 8  -7062258.64545  23723326.803    23723334.5594
  23218871.812    13992581.548 8  10914234.59945  23218871.240    23218879.9264
  22369217.098     6122066.107 8   4775941.74346  22369216.744    22369224.6444
 00  9 20 18 55  0.0000000  0  6 29 11 25 20 15 21
  22197962.495     1024113.091 8    810475.36847  22197962.530    22197968.6874
  20825318.376   -23509646.376 9 -18016872.12247  20825318.162    20825323.2814
  21235708.048   -23642932.521 9 -18129880.17347  21235708.085    21235713.6654
  23706167.161    -9812084.753 8  -7132525.48345  23706166.912    23706174.6144
  23240627.368    14106906.004 8  11003318.35545  23240626.758    23240635.4734
  22381787.164     6188122.439 8   4827414.12046  22381786.881    22381794.9054
 00  9 20 18 55 30.0000000  0  6 29 11 25 20 15 21
  22211508.701     1095299.106 8    865944.91747  22211508.832    22211515.0024
  20823135.183   -23521119.109 9 -18025811.92047  20823134.964    20823140.1074
  21225378.881   -23697212.683 9 -18172176.37047  21225378.916    21225384.4364
  23689013.941    -9902226.091 8  -7202765.42445  23689013.637    23689021.2054
  23262412.864    14221388.554 8  11092525.28645  23262412.266    23262421.0494
  22394408.646     6254447.964 8   4879096.27546  22394408.324    22394416.3004
 00  9 20 18 56  0.0000000  0  6 29 11 25 20 15 21
  22225080.547     1166619.225 8    921518.97546  22225080.677    22225086.8434
  20821062.396   -23532011.951 9 -18034299.85847  20821062.189    20821067.3004
  21215138.076   -23751028.398 9 -18214110.66347  21215138.106    21215143.5644
  23671867.516    -9992331.402 8  -7272977.29245  23671867.137    23671874.6114
  23284227.944    14336027.170 8  11181853.87445  23284227.365    23284236.3024
  22407081.561     6321043.393 8   4930988.72546  22407081.180    22407089.1364
 00  9 20 18 56 30.0000000  0  6 29 11 25 20 15 21
  22238677.723     1238072.354 8    977196.65746  22238677.774    22238683.9844
  20819100.183   -23542323.735 9 -18042335.02747  20819099.967    20819105.0424
  21204986.012   -23804377.821 9 -18255681.61247  21204986.014    21204991.4254
  23654728.260   -10082399.403 8  -7343160.09645  23654727.833    23654735.1624
  23306072.184    14450819.573 8  11271302.30845  23306071.673    23306080.7074
  22419805.622     6387908.438 8   4983091.27146  22419805.262    22419813.1554
 00  9 20 18 57  0.0000000  0  6 29 11 25 20 15 21
  22252300.051     1309657.795 8   1032977.44746  22252300.073    22252306.3564
  20817248.686   -23552053.424 9 -18049916.61847  20817248.489    20817253.5744
  21194922.985   -23857259.201 9 -18296887.85847  21194923.000    21194928.3864
  23637596.355   -10172428.394 8  -7413312.52045  23637595.833    23637603.0644
  23327945.343    14565763.594 8  11360868.89145  23327944.839    23327953.8314
  22432580.957     6455043.764 8   5035404.40146  22432580.648    22432588.5444
 00  9 20 18 57 30.0000000  0  6 29 11 25 20 15 21
  22265947.095     1381373.272 8   1088859.57346  22265947.115    22265953.4774
  20815507.813   -23561201.646 9 -18057045.11847  20815507.604    20815512.7524
  21184949.072   -23909672.200 9 -18337729.12747  21184949.075    21184954.5104
  23620471.812   -10262418.465 8  -7483434.59345  23620471.288    23620478.3224
  23349846.835    14680855.728 8  11450550.89445  23349846.317    23349855.3434
  22445407.480     6522447.798 8   5087926.92946  22445407.218    22445415.0924
 00  9 20 18 58  0.0000000  0  6 29 11 25 20 15 21
  22279618.691     1453217.710 8   1144842.18246  22279618.671    22279625.0664
  20813877.764   -23569767.644 9 -18063719.93747  20813877.572    20813882.6804
  21175064.710   -23961614.951 9 -18378203.98447  21175064.718    21175070.1444
  23603354.896   -10352368.240 8  -7553525.25745  23603354.348    23603361.3274
  23371776.129    14796094.204 8  11540346.90945  23371775.587    23371784.6184
  22458285.433     6590121.447 8   5140659.54846  22458285.152    22458293.0314
 00  9 20 18 58 30.0000000  0  6 29 11 25 20 15 21
  22293314.475     1525189.778 8   1200924.25246  22293314.529    22293320.9704
  20812358.578   -23577750.984 9 -18069940.73647  20812358.384    20812363.4754
  21165270.004   -24013086.056 9 -18418311.31947  21165270.028    21165275.4924
  23586245.726   -10442276.746 8  -7623583.74445  23586245.212    23586252.3354
  23393732.804    14911475.930 8  11630254.55545  23393732.226    23393741.1984
  22471214.604     6658063.804 8   5193601.55346  22471214.302    22471222.2294
 00  9 20 18 59  0.0000000  0  6 29 11 25 20 15 21
  22307034.452     1597288.535 8   1257105.04646  22307034.501    22307040.9334
  20810950.356   -23585151.188 9 -18075707.14247  20810950.169    20810955.2474
  21155565.519   -24064083.519 9 -18458049.58447  21155565.527    21155570.9764
  23569144.742   -10532142.857 8  -7693609.22445  23569144.291    23569151.3994
  23415716.069    15026998.465 8  11720271.91945  23415715.507    23415724.6734
  22484194.829     6726274.782 8   5246752.88846  22484194.525    22484202.4444
 00  9 20 18 59 30.0000000  0  6 29 11 25 20 15 21
  22320778.296     1669512.339 8   1313383.26946  22320778.337    22320784.7344
  20809653.209   -23591967.814 9 -18081018.81547  20809653.017    20809658.1324
  21145951.367   -24114606.066 9 -18497417.79247  21145951.412    21145956.8254
  23552052.014   -10621965.507 8  -7763600.83845  23552051.654    23552058.7514
  23437725.672    15142659.096 8  11810396.89545  23437725.150    23437734.3614
  22497226.132     6794753.970 8   5300113.19746  22497225.755    22497233.7584
 00  9 20 19  0  0.0000000  0  6 29 11 25 20 15 21
  22334545.798     1741860.512 8   1369758.41946  22334545.815    22334552.1884
  20808467.257   -23598200.071 9 -18085875.13447  20808467.038    20808472.2214
  21136428.019   -24164652.045 9 -18536414.65547  21136428.025    21136433.4234
  23534967.981   -10711743.126 8  -7833557.35045  23534967.531    23534974.6004
  23459761.171    15258456.110 8  11900628.17545  23459760.605    23459770.1184
  22510308.372     6863501.817 8   5353682.84246  22510308.058    22510315.9994
 00  9 20 19  0 30.0000000  0  6 29 11 25 20 15 21
  22348336.668     1814331.674 8   1426229.39946  22348336.648    22348343.0534
  20807392.534   -23603847.804 9 -18090275.97547  20807392.322    20807397.5364
  21126995.492   -24214220.455 9 -18575039.37647  21126995.486    21127000.8684
  23517892.646   -10801474.533 8  -7903477.85245  23517892.211    23517899.2724
  23481821.991    15374386.429 7  11990963.27645  23481821.483    23481831.2564
  22523441.824     6932518.270 8   5407461.80346  22523441.416    22523449.3794
 00  9 20 19  1  0.0000000  0  6 29 11 25 20 15 21
  22362150.636     1886924.572 8   1482795.23246  22362150.625    22362157.0544
  20806429.181   -23608910.279 9 -18094220.77447  20806428.969    20806434.2034
  21117654.100   -24263309.578 9 -18613290.63647  21117654.102    21117659.5414
  23500826.314   -10891158.807 8  -7973361.63845  23500825.857    23500832.9834
  23503907.471    15490447.405 7  12081400.19245  23503907.124    23503917.2434
  22536626.431     7001803.348 8   5461450.08146  22536626.009    22536633.9774
 00  9 20 19  1 30.0000000  0  6 29 11 25 20 15 21
  22375987.664     1959638.194 8   1539455.14046  22375987.656    22375994.0634
  20805577.213   -23613387.527 9 -18097709.55447  20805577.019    20805582.2284
  21108404.293   -24311917.781 9 -18651167.15747  21108404.296    21108409.7254
  23483769.193   -10980794.719 8  -8043207.75446  23483768.665    23483775.7764
  23526017.639    15606636.932 7  12171937.27345  23526017.296    23526027.6524
  22549861.952     7071356.303 8   5515647.10246  22549861.586    22549869.7134
 00  9 20 19  2  0.0000000  0  6 29 11 25 20 15 21
  22389847.276     2032470.707 8   1596207.69046  22389847.301    22389853.6844
  20804836.638   -23617279.466 9 -18100742.24247  20804836.451    20804841.6404
  21099246.092   -24360044.396 9 -18688668.41047  21099246.106    21099251.5194
  23466721.366   -11070381.518 8  -8113015.57545  23466720.738    23466727.9644
  23548151.843    15722951.958 8  12262572.12545  23548151.494    23548161.8444
  22563148.470     7141176.593 8   5570052.43546  22563148.037    22563156.2154
 00  9 20 19  2 30.0000000  0  6 29 11 25 20 15 21
  22403729.234     2105420.797 8   1653051.84846  22403729.301    22403735.6844
  20804207.478   -23620586.074 9 -18103318.83047  20804207.247    20804212.4144
  21090179.795   -24407688.137 9 -18725793.40247  21090179.822    21090185.1874
  23449682.998   -11159918.212 8  -8182784.36545  23449682.413    23449689.6864
  23570309.436    15839389.818 7  12353302.66845  23570309.174    23570319.4474
  22576485.814     7211263.770 8   5624665.70846  22576485.314    22576493.3894
 00  9 20 19  3  0.0000000  0  6 29 11 25 20 15 21
  22417633.420     2178487.753 8   1709987.07546  22417633.485    22417639.8864
  20803689.735   -23623306.768 9 -18105438.86547  20803689.535    20803694.6954
  21081205.730   -24454846.995 9 -18762540.55847  21081205.755    21081211.0824
  23432654.488   -11249403.104 8  -8252512.79646  23432653.961    23432661.2554
  23592490.114    15955948.082 8  12444127.06145  23592489.638    23592499.9674
  22589873.740     7281617.748 8   5679486.87346  22589873.296    22589881.3724
 00  9 20 19  3 30.0000000  0  6 29 11 25 20 15 21
  22431559.625     2251670.088 8   1767012.21846  22431559.694    22431566.0184
  20803283.558   -23625441.460 9 -18107102.27147  20803283.347    20803288.4594
  21072324.116   -24501519.957 9 -18798909.09847  21072324.153    21072329.4654
  23415635.932   -11338835.350 8  -8322200.19945  23415635.513    23415642.7734
  23614693.254    16072624.390 8  12535043.47545  23614692.787    23614702.9154
  22603312.249     7352238.052 8   5734515.58146  22603311.862    22603320.0574
 00  9 20 19  4  0.0000000  0  6 29 11 25 20 15 21
  22445507.638     2324967.049 8   1824126.66146  22445507.718    22445514.0284
  20802988.952   -23626989.613 9 -18108308.63747  20802988.711    20802993.8554
  21063535.256   -24547705.716 9 -18834898.00347  21063535.308    21063540.6224
  23398627.841   -11428213.596 8  -8391845.53945  23398627.278    23398634.4934
  23636918.467    16189416.315 8  12626049.95145  23636917.882    23636927.8684
  22616801.706     7423125.207 8   5789752.23446  22616801.384    22616809.5574
 00  9 20 19  4 30.0000000  0  6 29 11 25 20 15 21
  22459477.224     2398376.996 8   1881329.14446  22459477.197    22459483.5124
  20802805.928   -23627951.190 9 -18109057.92747  20802805.717    20802810.8784
  21054839.319   -24593403.234 9 -18870506.45947  21054839.328    21054844.6264
  23381629.990   -11517536.869 8  -8461448.03145  23381629.485    23381636.5874
  23659164.934    16306321.239 8  12717144.47845  23659164.322    23659174.3654
  22630341.991     7494278.709 8   5845196.42946  22630341.591    22630349.7254
 00  9 20 19  5  0.0000000  0  6 29 11 25 20 15 21
  22473468.102     2471899.271 8   1938619.15746  22473468.121    22473474.5174
  20802734.642   -23628325.978 9 -18109349.98247  20802734.436    20802739.6304
  21046236.591   -24638610.927 9 -18905733.22947  21046236.604    21046241.8764
  23364643.086   -11606803.464 8  -8531006.35245  23364642.614    23364649.6744
  23681432.233    16423336.882 8  12808325.26245  23681431.745    23681441.9054
  22643932.824     7565698.385 8   5900847.99746  22643932.431    22643940.5174
 00  9 20 19  5 30.0000000  0  6 29 11 25 20 15 21
  22487480.145     2545532.805 8   1995995.87046  22487480.191    22487486.6154
  20802775.035   -23628113.381 9 -18109184.33247  20802774.879    20802780.0864
  21037727.392   -24683327.320 9 -18940577.16347  21037727.404    21037732.5964
  23347667.192   -11696012.062 8  -8600519.48645  23347666.737    23347673.8644
  23703720.263    16540460.833 8  12899590.43845  23703719.726    23703729.9634
  22657574.236     7637383.970 8   5956706.77846  22657573.848    22657581.9804
 00  9 20 19  6  0.0000000  0  6 29 11 25 20 15 21
  22501513.073     2619276.070 8   2053458.07946  22501513.107    22501519.5614
  20802927.211   -23627313.874 9 -18108561.35247  20802927.023    20802932.2224
  21029311.792   -24727551.475 9 -18975037.52947  21029311.781    21029317.0344
  23330702.506   -11785161.903 8  -8669986.83446  23330702.071    23330709.2634
  23726028.413    16657690.247 8  12990937.81145  23726027.872    23726038.1064
  22671266.200     7709335.247 8   6012772.60446  22671265.770    22671274.0334
 00  9 20 19  6 30.0000000  0  6 29 11 25 20 15 21
  22515566.527     2693127.681 8   2111004.70846  22515566.578    22515573.0944
  20803190.983   -23625927.674 9 -18107481.20947  20803190.801    20803196.0304
  21020989.984   -24771282.448 9 -19009113.60647  21020990.002    21020995.3214
  23313749.140   -11874252.091 8  -8739407.70846  23313748.737    23313755.9574
  23748356.004    16775022.149 8  13082365.02645  23748355.445    23748365.7834
  22685008.479     7781551.509 8   6069044.91246  22685008.086    22685016.5644
 00  9 20 19  7  0.0000000  0  6 29 11 25 20 15 21
  22529640.647     2767087.021 8   2168635.28046  22529640.654    22529647.1184
  20803566.526   -23623954.260 9 -18105943.49747  20803566.341    20803571.5884
  21012762.323   -24814518.804 9 -19042804.26647  21012762.327    21012767.7184
  23296807.488   -11963280.742 8  -8808780.62246  23296807.166    23296814.4264
  23770703.026    16892454.707 8  13173870.67145  23770702.534    23770712.9574
  22698801.132     7854032.606 8   6125523.57346  22698800.847    22698809.3814
 00  9 20 19  7 30.0000000  0  6 29 11 25 20 15 21
  22543734.877     2841152.384 8   2226348.46746  22543734.907    22543741.4154
  20804053.794   -23621393.726 9 -18103948.29147  20804053.603    20804058.8564
  21004628.994   -24857259.633 9 -19076108.79547  21004629.028    21004634.4484
  23279877.747   -12052247.147 8  -8878105.03146  23279877.387    23279884.6584
  23793068.244    17009984.954 7  13265452.46745  23793067.803    23793078.1414
  22712644.195     7926777.900 8   6182208.10146  22712643.903    22712652.3684
 00  9 20 19  8  0.0000000  0  6 29 11 25 20 15 21
  22557849.118     2915323.153 8   2284143.78346  22557849.156    22557855.7314
  20804652.805   -23618245.858 9 -18101495.42447  20804652.599    20804657.8914
  20996590.334   -24899503.466 9 -19109026.06747  20996590.313    20996595.6914
  23262960.235   -12141149.590 8  -8947379.60346  23262959.818    23262966.9424
  23815451.668    17127610.742 7  13357108.67345  23815451.326    23815461.5764
  22726537.726     7999787.669 8   6239098.71746  22726537.386    22726545.7634
 00  9 20 19  8 30.0000000  0  6 29 11 25 20 15 21
  22571983.060     2989597.556 8   2342019.85146  22571983.121    22571989.7224
  20805363.454   -23614511.452 9 -18098585.51947  20805363.277    20805368.5554
  20988646.269   -24941249.915 9 -19141555.75247  20988646.242    20988651.6084
  23246054.949   -12229987.518 8  -9016603.89846  23246054.462    23246061.5484
  23837853.021    17245328.801 7  13448836.75745  23837852.567    23837862.8404
  22740481.303     8073060.836 8   6296194.58346  22740480.962    22740489.3334
 00  9 20 19  9  0.0000000  0  6 29 11 25 20 15 21
  22586136.562     3063974.751 8   2399976.00646  22586136.683    22586143.2544
  20806185.789   -23610190.166 9 -18095218.30847  20806185.588    20806190.8814
  20980797.206   -24982497.273 9 -19173696.52747  20980797.166    20980802.4484
  23229162.176   -12318759.417 8  -9085776.74146  23229161.647    23229168.7214
  23860271.607    17363137.062 8  13540635.14445  23860271.108    23860281.4054
  22754474.903     8146597.626 8   6353495.86746  22754474.595    22754483.0854
 00  9 20 19  9 30.0000000  0  6 29 11 25 20 15 21
  22600309.621     3138453.519 8   2458011.33146  22600309.611    22600316.1684
  20807119.756   -23605282.080 9 -18091393.84547  20807119.581    20807124.8574
  20973043.208   -25023244.799 9 -19205447.81847  20973043.164    20973048.3694
  23212282.151   -12407463.987 8  -9154897.11346  23212281.732    23212288.6494
  23882706.716    17481032.681 7  13632501.62545  23882706.227    23882716.5334
  22768518.530     8220397.510 8   6411002.15846  22768518.223    22768526.8854
 00  9 20 19 10  0.0000000  0  6 29 11 25 20 15 21
  22614501.623     3213033.027 8   2516125.14946  22614501.696    22614508.2694
  20808165.465   -23599787.041 9 -18087112.01647  20808165.287    20808170.5414
  20965384.540   -25063490.841 9 -19236808.33947  20965384.516    20965389.8134
  23195415.226   -12496099.711 8  -9223963.83746  23195414.819    23195421.7224
  23905157.735    17599013.653 7  13724434.62645  23905157.194    23905167.7674
  22782612.292     8294460.322 8   6468713.33646  22782611.956    22782620.6314
 00  9 20 19 10 30.0000000  0  6 29 11 25 20 15 21
  22628712.804     3287712.821 8   2574317.10946  22628712.868    22628719.4474
  20809322.925   -23593704.603 9 -18082372.47247  20809322.746    20809327.9994
  20957821.579   -25103234.077 9 -19267777.07047  20957821.572    20957826.9344
  23178561.752   -12584664.905 8  -9292975.59646  23178561.256    23178568.1534
  23927624.656    17717077.892 8  13816432.48445  23927624.150    23927634.8254
  22796755.983     8368785.564 8   6526628.99246  22796755.634    22796764.3974
 00  9 20 19 11  0.0000000  0  7 29 11 25 20 15 21 30
  22642942.848     3362491.516 8   2632586.13346  22642942.937    22642949.5164
  20810592.069   -23587035.275 9 -18077175.61347  20810591.877    20810597.1164
  20950354.440   -25142473.841 9 -19298353.48847  20950354.461    20950359.9024
  23161721.826   -12673158.604 8  -9361931.66445  23161721.384    23161728.2364
  23950107.343    17835222.571 8  13908493.00745  23950106.745    23950117.3694
  22810949.676     8443373.343 8   6584749.23046  22810949.308    22810958.0294
  24596738.498    -2788876.337 7  -1881465.15745  24596738.683    24596748.8444
 00  9 20 19 11 30.0000000  0  7 29 11 25 20 15 21 30
  22657191.237     3437366.987 8   2690930.56446  22657191.282    22657197.9814
  20811972.776   -23579779.975 9 -18071522.15347  20811972.561    20811977.7844
  20942983.193   -25181209.938 9 -19328537.42348  20942983.234    20942988.6984
  23144895.533   -12761580.323 8  -9430831.63446  23144895.142    23144902.0854
  23972604.650    17953444.416 7  14000613.63945  23972604.002    23972614.3564
  22825193.035     8518222.165 8   6643072.88946  22825192.738    22825201.3104
  24591354.971    -2817166.286 7  -1903509.17945  24591355.319    24591365.4884
 00  9 20 19 12  0.0000000  0  7 29 11 25 20 15 21 30
  22671458.143     3512339.542 8   2749350.63546  22671458.156    22671464.9324
  20813465.170   -23571937.499 9 -18065411.15547  20813464.968    20813470.1704
  20935708.301   -25219439.891 9 -19358326.97048  20935708.341    20935713.8074
  23128083.610   -12849927.211 8  -9499673.29246  23128083.231    23128090.2064
  23995115.494    18071742.163 7  14092793.43145  23995115.018    23995125.9744
  22839486.160     8593333.361 8   6701600.95845  22839485.803    22839494.5674
  24586060.531    -2844987.830 7  -1925188.21045  24586060.805    24586071.1174
 00  9 20 19 12 30.0000000  0  7 29 11 25 20 15 21 30
  22685743.130     3587407.812 8   2807845.30046  22685743.227    22685750.0114
  20815069.143   -23563508.624 9 -18058843.22147  20815068.957    20815074.1374
  20928529.750   -25257163.349 9 -19387721.83348  20928529.790    20928535.2614
  23111286.149   -12938198.795 8  -9568456.30646  23111285.720    23111292.5524
  24017640.662    18190112.723 7  14185029.94545  24017640.135    24017651.3934
  22853829.028     8668705.790 8   6760332.59945  22853828.763    22853837.5664
  24580855.515    -2872339.837 7  -1946501.42945  24580855.768    24580866.1304
 00  9 20 19 13  0.0000000  0  7 29 11 25 20 15 21 30
  22700046.146     3662569.738 8   2866412.94946  22700046.185    22700052.9534
  20816784.558   -23554494.383 9 -18051819.16347  20816784.360    20816789.5314
  20921447.603   -25294380.190 9 -19416721.94048  20921447.653    20921453.0704
  23094503.241   -13026393.943 8  -9637179.76346  23094502.709    23094509.4514
  24040179.106    18308552.918 7  14277320.73445  24040178.521    24040190.1724
  22868221.754     8744338.308 8   6819266.91146  22868221.349    22868230.1894
  24575740.229    -2899221.001 7  -1967447.72445  24575740.519    24575750.5954
 00  9 20 19 13 30.0000000  0  7 29 11 25 20 15 21 30
  22714366.761     3737824.660 8   2925053.04346  22714366.711    22714373.5564
  20818611.301   -23544895.043 9 -18044339.17647  20818611.095    20818616.2754
  20914462.053   -25331089.172 9 -19445326.30547  20914462.109    20914467.4814
  23077734.953   -13114511.579 8  -9705842.80346  23077734.348    23077741.2664
  24062730.155    18427060.337 7  14369663.87645  24062729.609    24062741.5844
  22882663.862     8820230.650 8   6878403.69046  22882663.491    22882672.2174
  24570714.882    -2925629.397 7  -1988025.69545  24570715.207    24570724.9784
 00  9 20 19 14  0.0000000  0  7 29 11 25 20 15 21 30
  22728704.742     3813171.671 8   2983764.91046  22728704.855    22728711.7164
  20820549.390   -23534710.462 9 -18036403.17047  20820549.174    20820554.3564
  20907573.488   -25367289.134 9 -19473534.03148  20907573.508    20907578.8844
  23060981.640   -13202550.192 8  -9774444.25446  23060981.055    23060988.1004
  24085294.090    18545633.005 8  14462057.90545  24085293.627    24085305.4804
  22897155.133     8896382.477 8   6937742.65746  22897154.779    22897163.3984
  24565779.876    -2951563.343 7  -2008233.95145  24565780.074    24565789.9714
 00  9 20 19 14 30.0000000  0  7 29 11 25 20 15 21 30
  22743060.157     3888609.161 8   3042547.27746  22743060.227    22743067.0684
  20822598.635   -23523941.544 9 -18028011.82847  20822598.425    20822603.6404
  20900781.772   -25402979.533 9 -19501344.69348  20900781.790    20900787.1774
  23044243.550   -13290508.839 8  -9842983.40446  23044243.033    23044250.0374
  24107870.301    18664267.530 8  14554500.09145  24107869.607    24107881.1604
  22911695.549     8972793.380 8   6997283.50545  22911695.274    22911703.9054
  24560935.207    -2977021.424 8  -2028071.37845  24560935.428    24560945.3724
 00  9 20 19 15  0.0000000  0  7 29 11 25 20 15 21 30
  22757432.701     3964136.760 8   3101399.86546  22757432.757    22757439.5944
  20824759.168   -23512588.024 9 -18019164.95747  20824758.969    20824764.1634
  20894087.260   -25438159.340 9 -19528757.50148  20894087.304    20894092.6894
  23027521.147   -13378385.363 8  -9911458.57146  23027520.709    23027527.7174
  24130457.629    18782961.904 7  14646988.89345  24130456.912    24130468.1944
  22926285.172     9049463.216 8   7057026.10345  22926284.924    22926293.7444
  24556181.604    -3002001.206 8  -2047536.14945  24556181.969    24556191.8104
 00  9 20 19 15 30.0000000  0  7 29 11 25 20 15 21 30
  22771822.032     4039753.334 8   3160321.77746  22771822.065    22771828.9824
  20827030.932   -23500650.135 9 -18009862.72947  20827030.717    20827035.8924
  20887490.102   -25472827.587 9 -19555771.69448  20887490.131    20887495.5434
  23010814.705   -13466178.557 8  -9979868.81546  23010814.304    23010821.1964
  24153055.497    18901713.758 7  14739522.51245  24153054.758    24153066.1464
  22940924.070     9126390.760 8   7116969.50845  22940923.788    22940932.6684
  24551519.575    -3026500.962 8  -2066626.87045  24551519.907    24551529.8554
 00  9 20 19 16  0.0000000  0  7 29 11 25 20 15 21 30
  22786228.151     4115458.023 8   3219312.34346  22786228.242    22786235.1644
  20829413.714   -23488128.653 9 -18000105.74947  20829413.487    20829418.6654
  20880990.508   -25506983.477 9 -19582386.65948  20880990.521    20880995.8324
  22994124.464   -13553887.124 8 -10048213.10746  22994123.890    22994130.7894
  24175663.688    19020520.531 7  14832098.90845  24175663.056    24175674.5564
  22955612.261     9203576.100 8   7177113.81645  22955611.861    22955620.6944
  24546949.092    -3050519.337 7  -2085342.49745  24546949.341    24546959.2284
 00  9 20 19 16 30.0000000  0  8 29 01 11 25 20 15 21 30
  22800649.837     4191243.812 8   3278366.13146  22800649.908    22800656.8334
  24668774.959    -3896413.196 7  -3021395.34745  24668774.563    24668786.0864
  20831906.382   -23475029.548 9 -17989898.67447  20831906.171    20831911.3664
  20874587.410   -25540632.162 9 -19608606.38248  20874587.424    20874592.6614
  22977449.197   -13641515.514 8 -10116494.91646  22977448.663    22977455.6814
  24198280.981    19139373.852 7  14924711.59945  24198280.458    24198291.8414
  22970348.115     9281012.959 8   7237454.08746  22970347.709    22970356.6954
  24542469.230    -3074060.307 7  -2103686.11045  24542469.652    24542479.7194
 00  9 20 19 17  0.0000000  0  8 29 01 11 25 20 15 21 30
  22815088.476     4267118.782 8   3337489.40546  22815088.532    22815095.4514
  24652336.637    -3982797.669 7  -3088707.79445  24652336.233    24652347.6804
  20834510.577   -23461344.459 9 -17979234.98847  20834510.339    20834515.5884
  20868282.735   -25573763.560 9 -19634423.03648  20868282.738    20868287.8354
  22960791.097   -13729053.390 8 -10184706.23046  22960790.805    22960797.7104
  24220908.544    19258280.455 7  15017365.76745  24220908.183    24220919.4204
  22985133.422     9358709.980 8   7297997.09446  22985132.983    22985142.0974
  24538082.402    -3097113.405 7  -2121649.58745  24538082.718    24538092.8594
 00  9 20 19 17 30.0000000  0  8 29 01 11 25 20 15 21 30
  22829543.398     4343079.869 8   3396679.77446  22829543.466    22829550.4464
  24635921.716    -4069058.260 7  -3155923.67445  24635921.346    24635932.4184
  20837225.831   -23447075.557 9 -17968116.38447  20837225.619    20837230.8634
  20862076.218   -25606378.775 9 -19659837.45948  20862076.205    20862081.2864
  22944150.346   -13816501.251 8 -10252847.37846  22944149.996    22944156.8274
  24243544.817    19377235.831 7  15110057.93445  24243544.434    24243556.2614
  22999967.896     9436665.117 8   7358741.24046  22999967.593    22999976.6524
  24533788.453    -3119679.172 7  -2139233.30245  24533788.841    24533798.6244
 00  9 20 19 18  0.0000000  0  8 29 01 11 25 20 15 21 30
  22844014.565     4419125.977 8   3455936.40646  22844014.648    22844021.6594
  24619530.407    -4155194.680 7  -3223042.80245  24619530.035    24619541.0694
  20840052.062   -23432223.666 9 -17956543.51647  20840051.862    20840057.1224
  20855968.008   -25638477.378 9 -19684849.33948  20855967.984    20855973.0684
  22927526.928   -13903858.105 8 -10320917.61346  22927526.465    22927533.2874
  24266190.045    19496236.987 7  15202785.78745  24266189.496    24266201.5024
  23014851.313     9514877.134 8   7419685.52746  23014850.971    23014860.0384
  24529587.411    -3141755.828 7  -2156435.90445  24529587.589    24529597.6974
 00  9 20 19 18 30.0000000  0  8 29 01 11 25 20 15 21 30
  22858501.609     4495255.817 8   3515258.28346  22858501.728    22858508.8084
  24603162.709    -4241206.718 7  -3290065.01245  24603162.375    24603173.4524
  20842989.129   -23416789.678 9 -17944517.05647  20842988.919    20842994.1354
  20849958.192   -25670058.786 9 -19709458.21248  20849958.195    20849963.3234
  22910921.004   -13991122.448 8 -10388915.74546  22910920.540    22910927.3434
  24288843.612    19615281.381 7  15295547.34045  24288843.133    24288855.4554
  23029783.431     9593345.674 8   7480829.72146  23029783.073    23029792.2434
  24525479.506    -3163342.087 7  -2173256.38045  24525479.724    24525489.7654
 00  9 20 19 19  0.0000000  0  8 29 01 11 25 20 15 21 30
  22873004.314     4571467.963 8   3574644.30346  22873004.399    22873011.4904
  24586818.765    -4327094.324 7  -3356990.24245  24586818.410    24586829.6814
  20846036.722   -23400774.541 9 -17932037.75747  20846036.519    20846041.7184
  20844046.779   -25701123.113 9 -19733664.17048  20844046.797    20844052.0094
  22894332.823   -14078293.458 8 -10456841.15546  22894332.393    22894339.2114
  24311505.208    19734365.821 7  15388340.08945  24311504.773    24311516.4924
  23044764.120     9672069.307 8   7542172.67845  23044763.721    23044772.9614
  24521465.339    -3184437.133 7  -2189694.09845  24521465.692    24521475.3694
 00  9 20 19 19 30.0000000  0  8 29 01 11 25 20 15 21 30
  22887522.344     4647760.974 8   3634093.30546  22887522.508    22887529.6814
  24570498.376    -4412857.664 7  -3423818.66645  24570498.187    24570509.2074
  20849194.760   -23384179.330 9 -17919106.44647  20849194.523    20849199.7164
  20838233.880   -25731670.056 9 -19757466.95948  20838233.881    20838239.1414
  22877762.524   -14165370.284 8 -10524693.18146  22877762.125    22877768.8944
  24334173.822    19853487.321 7  15481161.70545  24334173.233    24334185.1804
  23059793.502     9751047.872 8   7603714.27045  23059793.007    23059802.2004
  24517544.859    -3205040.032 7  -2205748.27945  24517545.237    24517554.9664
